GFSSGP_sfc_dewp_000.txt.gz
Dewpoint
71 68 67 63 40 34 38 42 45 48 50 53 54 52 56 58 56 56 64 67 69 68 69 72 77 78 78 78 77 78 77 78 78 78 78 77 77 77 77 77 77 77 76 75 75 75 75 75 75
67 66 65 51 30 32 41 40 42 46 53 56 56 55 55 58 61 62 65 69 70 69 69 71 76 77 78 78 78 78 77 77 78 78 78 78 77 77 77 76 76 76 76 75 75 75 75 74 74
67 66 56 33 32 30 39 45 48 51 51 48 55 56 55 60 62 63 67 69 69 71 71 74 77 78 78 78 78 77 77 77 77 77 77 77 77 77 76 75 76 75 75 75 75 75 74 74 74
64 61 54 33 36 40 44 47 49 48 48 49 51 56 61 63 63 64 68 69 70 71 72 74 77 78 78 78 77 77 76 78 78 78 77 76 75 75 75 75 75 75 75 74 74 74 74 73 73
63 55 33 35 41 43 45 45 43 43 45 48 50 54 60 65 65 66 67 67 68 69 72 73 78 78 78 78 77 77 77 76 77 77 76 75 75 75 75 74 74 74 74 74 74 74 73 73 73
50 47 30 32 41 46 48 48 42 46 50 52 53 57 64 66 65 66 66 66 67 68 71 73 76 78 78 77 77 78 78 77 77 76 75 75 75 75 74 74 74 74 73 73 73 73 73 73 74
46 34 30 33 43 45 48 49 43 44 47 50 54 56 65 64 64 65 66 66 66 68 70 72 73 75 77 77 77 77 77 76 77 76 75 75 75 75 74 74 73 73 72 72 73 73 73 73 74
47 36 29 31 32 43 49 47 47 47 51 56 55 54 62 64 65 65 65 66 68 68 71 72 73 72 73 73 76 76 76 76 75 75 75 75 75 75 75 74 74 73 73 74 74 75 74 73 73
45 28 26 29 32 44 49 47 53 52 56 60 59 55 62 64 64 64 65 65 67 67 69 70 71 72 73 73 73 75 75 75 75 74 74 74 68 71 71 73 74 73 74 74 74 74 75 74 74
34 24 27 35 36 43 47 48 52 53 57 61 61 63 65 64 64 63 63 64 66 67 68 68 69 71 72 69 74 73 71 69 70 71 72 71 71 71 71 73 74 74 74 74 75 74 74 72 68
27 26 40 44 44 46 47 49 50 50 50 58 61 63 63 62 63 63 63 64 65 67 67 68 70 72 71 71 71 70 70 69 70 74 73 72 71 71 70 68 69 69 72 68 69 69 68 67 68
29 44 44 49 48 45 45 48 55 55 57 61 62 63 63 62 61 61 62 63 65 67 68 69 72 73 73 71 70 69 68 69 69 70 74 75 71 70 70 68 68 70 68 69 69 67 70 69 68
38 47 49 49 46 46 44 49 56 59 61 63 63 64 63 62 62 62 62 63 65 67 68 69 72 74 74 74 70 69 69 68 68 69 71 71 69 70 69 72 69 68 68 69 71 69 69 69 67
43 47 47 45 42 42 43 48 49 61 62 62 63 63 63 63 63 63 63 63 65 66 67 69 71 73 74 76 76 75 71 71 69 68 69 73 71 70 69 71 68 68 68 72 71 73 70 69 68
47 46 49 45 47 42 41 44 52 61 62 61 61 63 63 64 65 66 66 66 67 67 68 69 71 72 74 74 75 74 71 69 69 68 72 73 74 72 74 71 69 72 71 72 71 72 70 69 68
39 39 39 44 47 45 49 44 54 57 58 59 60 62 63 64 64 66 67 68 69 70 72 73 71 71 74 75 77 75 71 70 68 67 68 71 73 74 76 70 70 70 71 69 69 72 70 71 67
35 30 31 40 47 46 45 44 52 54 54 56 59 60 62 63 65 66 67 69 69 69 71 73 73 72 72 74 73 73 73 71 70 69 71 73 75 75 76 75 71 73 70 69 68 69 69 71 71
24 25 29 33 42 46 42 46 49 52 51 53 56 58 60 60 62 65 67 68 69 70 72 73 72 74 75 74 75 77 77 79 78 77 72 74 74 73 74 71 72 73 70 69 69 71 69 69 68
17 20 27 31 37 41 42 48 47 49 51 49 50 57 57 58 60 64 66 67 68 69 71 72 73 74 74 74 74 73 72 73 73 72 73 74 74 74 75 76 73 75 73 71 72 72 71 68 69
17 18 21 35 40 42 47 48 50 50 47 50 50 55 56 58 60 64 65 67 67 69 71 73 74 75 75 73 76 74 73 69 70 74 73 72 71 72 71 72 69 71 68 71 72 73 70 67 71
20 19 21 28 44 43 47 47 53 52 53 52 54 55 57 59 59 62 63 65 66 68 71 72 74 74 75 74 72 69 67 67 63 65 64 68 70 70 71 70 70 70 71 68 70 72 71 68 67
21 24 23 27 42 32 44 29 51 52 54 54 53 57 57 59 60 60 61 64 65 68 70 74 76 75 73 70 67 68 61 61 62 63 63 67 67 68 69 70 69 71 69 70 69 70 71 71 68
27 34 33 35 40 39 45 37 34 50 51 52 53 54 55 58 59 59 59 62 65 69 71 72 72 71 69 68 67 61 63 60 62 62 65 68 67 67 67 69 69 69 67 69 69 70 71 71 69
37 39 39 37 31 30 28 33 25 34 48 48 52 54 56 57 59 60 61 64 67 67 67 65 68 69 68 64 64 65 64 64 61 62 62 60 61 63 66 66 67 68 67 67 68 69 70 71 72
30 27 22 22 22 20 31 30 29 30 46 46 48 54 57 57 58 60 63 65 66 67 64 63 67 68 68 62 61 62 63 64 65 64 59 63 59 59 62 65 65 63 66 66 67 69 69 69 70
24 20 17 21 15 15 35 24 29 42 44 44 49 52 56 57 58 60 65 65 66 65 63 63 66 67 64 62 64 66 65 59 60 62 62 59 59 59 64 64 64 64 65 65 66 64 63 67 69
24 23 18 19 19 16 18 29 36 42 44 46 51 53 56 56 57 60 63 64 64 62 63 64 66 66 64 62 66 66 66 66 63 65 66 60 64 59 60 63 63 64 64 65 66 62 64 64 66
27 24 20 19 23 23 19 21 25 34 35 44 48 52 56 55 56 59 60 63 61 60 62 64 65 65 64 63 64 61 62 64 64 64 64 64 64 64 64 63 63 63 63 63 65 65 65 66 65
25 24 26 23 24 21 19 21 31 31 34 37 47 53 56 55 54 57 60 62 60 60 61 62 63 63 63 63 63 63 62 62 62 62 63 64 64 65 64 64 64 64 63 63 64 64 62 62 63
23 24 26 25 33 25 24 20 31 32 34 37 42 52 55 57 52 53 59 61 59 60 58 59 59 60 60 61 62 62 63 63 62 62 62 63 63 64 64 64 65 64 63 64 64 62 62 62 62

GFSSGP_sfc_dewp_003.txt.gz
Dewpoint
70 68 63 60 38 35 36 38 40 43 46 48 50 50 55 56 50 56 64 67 67 67 69 70 77 76 77 77 77 77 77 77 77 78 77 77 75 76 76 76 76 76 75 75 75 75 75 75 75
65 63 62 54 34 31 32 35 40 45 50 50 49 51 54 56 59 62 64 67 68 67 68 70 77 77 76 77 77 78 77 77 77 78 77 77 75 76 76 76 76 76 75 75 75 75 75 74 74
68 63 58 31 29 32 35 40 44 45 43 49 48 51 55 58 60 63 67 68 69 70 72 74 77 77 77 77 77 78 77 77 77 77 77 76 75 75 76 76 75 75 75 75 75 74 74 73 72
62 59 42 32 31 33 39 43 41 41 43 46 51 54 58 60 61 64 68 69 70 70 71 76 77 77 77 77 77 77 77 77 76 76 76 76 75 75 75 75 75 75 75 74 74 74 73 73 73
61 54 34 35 34 36 38 38 37 40 42 43 50 54 58 61 63 65 68 68 70 70 71 72 78 78 78 77 77 77 77 76 77 75 75 75 75 75 74 74 74 74 74 73 73 73 73 72 73
58 36 33 34 36 40 39 37 40 43 43 47 51 56 59 62 62 65 65 67 67 69 70 72 77 78 78 77 77 77 76 76 76 75 75 75 75 75 74 74 74 73 72 72 72 72 72 72 73
60 36 28 30 37 40 41 39 40 43 45 48 52 56 59 60 61 61 64 66 65 68 71 72 72 74 77 77 77 77 77 76 76 75 75 75 75 75 74 74 73 72 72 72 72 72 72 72 73
41 30 27 33 32 38 42 40 42 45 46 50 53 53 57 60 61 60 63 64 67 69 70 74 73 72 73 74 76 77 77 76 75 75 75 75 75 75 74 75 74 73 72 73 73 74 73 72 73
38 33 22 29 31 38 41 44 48 51 50 51 53 53 58 60 61 60 62 66 67 68 69 70 70 71 76 72 74 76 76 76 75 74 74 73 68 73 72 74 72 73 73 73 73 74 74 74 74
31 26 25 30 33 37 41 45 48 52 56 54 55 56 59 60 61 60 60 64 63 65 67 68 69 72 74 69 74 73 71 70 70 70 74 70 73 75 70 73 74 74 74 74 74 74 74 73 68
26 23 30 33 35 38 40 40 42 42 53 54 57 58 59 60 61 60 61 62 64 65 64 64 71 70 70 75 70 69 68 70 69 73 75 73 73 75 73 72 72 73 74 67 72 74 70 69 65
29 32 35 35 36 38 37 42 47 54 55 57 57 58 59 59 59 59 60 62 64 66 65 67 69 72 71 72 67 71 71 66 68 72 74 73 69 75 73 69 73 71 67 68 70 69 68 67 67
33 35 36 36 37 36 39 46 53 56 56 57 58 58 58 58 59 60 60 62 64 65 66 67 70 73 74 74 68 68 70 66 68 67 70 69 74 74 71 71 68 70 67 70 72 73 72 70 67
35 37 35 36 36 38 42 45 54 57 57 58 59 59 59 58 59 60 60 61 63 65 65 67 69 74 75 75 75 73 67 70 70 70 73 74 69 76 71 73 69 72 70 69 70 72 70 70 68
34 35 36 36 37 35 38 41 51 58 58 58 59 59 60 61 62 61 61 61 63 64 66 69 73 74 74 75 76 76 69 66 69 72 73 69 72 73 76 73 70 69 70 73 71 71 72 69 66
32 32 32 37 37 41 52 44 52 55 57 57 58 60 61 62 62 63 64 66 65 67 70 70 68 71 74 75 74 73 70 69 72 65 66 69 72 76 77 70 68 71 72 69 70 69 68 67 68
30 28 31 35 36 46 50 44 50 50 51 54 56 58 58 59 61 63 64 67 67 68 70 71 70 69 73 75 74 73 75 69 68 74 71 73 74 73 75 71 70 73 70 68 69 69 69 68 68
27 27 28 32 34 34 41 41 48 48 46 51 53 55 56 57 59 61 63 65 66 67 70 71 70 72 73 77 75 74 77 72 71 70 71 75 76 74 76 76 73 74 74 72 70 72 70 70 69
24 23 26 27 32 34 35 40 46 48 46 47 50 54 54 54 57 60 62 64 65 67 70 71 73 76 75 76 75 77 72 74 72 78 74 74 74 74 75 75 73 75 72 72 73 71 72 70 71
17 19 24 27 31 32 34 41 42 46 47 46 47 51 51 52 55 60 63 64 65 67 69 72 73 76 75 73 76 76 73 68 66 68 71 72 70 73 70 72 69 71 65 72 71 72 70 69 67
18 16 17 23 28 30 37 37 44 43 45 47 46 48 49 52 52 57 60 62 62 66 70 71 74 74 76 76 74 72 70 70 63 62 63 66 67 67 69 70 70 70 70 63 69 71 71 69 70
18 17 17 18 27 27 29 27 44 46 43 43 46 47 47 50 50 52 55 58 59 64 68 72 74 75 73 71 68 70 63 59 62 61 61 65 66 66 67 68 68 70 68 69 69 68 70 71 68
22 19 19 20 22 27 31 29 42 42 47 45 43 46 49 50 51 51 50 56 59 63 66 71 73 71 70 68 67 61 63 56 56 58 64 68 69 66 65 67 68 69 66 70 69 70 71 71 70
26 26 26 26 24 24 30 34 29 44 48 48 47 44 47 49 51 53 53 57 59 64 67 69 70 70 69 66 65 64 63 63 59 61 61 59 58 59 65 65 67 68 67 67 67 68 69 71 71
24 23 23 23 23 23 25 23 31 28 35 34 43 47 47 48 50 54 55 58 63 64 66 65 68 69 68 64 61 60 62 64 65 64 59 63 57 58 63 66 66 64 67 66 68 68 67 67 67
22 21 20 24 19 18 26 25 23 23 33 39 41 44 48 51 52 54 57 61 64 64 65 63 68 69 67 63 65 66 65 59 59 61 62 59 59 58 64 64 64 65 65 65 67 64 63 68 67
23 20 18 16 20 18 20 26 26 35 34 38 39 42 49 51 54 54 56 62 63 64 64 64 67 69 66 63 67 67 66 66 64 66 66 60 64 60 61 63 64 65 64 64 66 61 64 65 68
24 21 18 18 23 23 20 22 22 34 32 32 36 41 46 52 55 54 56 62 63 63 61 62 65 67 65 63 64 61 61 63 65 65 65 65 65 65 64 63 63 64 64 66 67 64 65 65 61
20 22 24 21 25 22 20 23 29 30 31 31 34 38 46 51 56 54 56 60 62 62 60 58 62 64 64 63 63 62 62 61 63 62 62 64 65 65 65 64 63 64 64 64 66 66 64 63 65
19 22 23 24 30 25 24 23 27 28 28 32 35 38 45 54 57 56 57 59 61 60 58 57 57 59 61 61 62 61 63 63 62 62 62 63 63 64 64 64 64 63 63 65 64 63 62 63 63

GFSSGP_sfc_dewp_006.txt.gz
Dewpoint
72 69 67 60 52 37 37 37 40 42 45 48 56 60 55 60 52 56 64 68 67 67 70 73 78 77 77 77 77 77 77 78 78 78 77 77 77 78 78 77 77 77 76 75 75 75 75 75 74
65 66 60 58 36 30 35 40 41 43 44 49 52 55 57 58 60 63 65 67 67 66 69 71 77 78 78 77 77 77 77 77 78 78 77 77 77 77 77 77 76 76 76 75 75 75 74 73 73
63 64 58 42 35 32 35 39 40 41 44 47 51 54 56 58 62 65 66 67 68 71 72 75 78 77 77 77 78 78 78 78 78 77 77 77 76 75 76 75 75 75 75 75 74 74 73 72 72
61 59 55 30 30 33 34 36 39 42 45 50 52 53 57 63 64 65 67 68 70 71 72 76 78 77 78 77 78 78 78 78 78 77 77 76 76 75 75 75 75 75 75 74 74 73 73 72 72
66 63 38 33 33 34 34 35 38 40 43 48 53 54 56 64 66 67 68 68 68 70 72 74 78 78 78 78 78 78 78 77 77 77 76 76 76 75 75 75 74 74 74 73 73 72 71 71 72
56 54 35 35 33 38 31 34 37 40 46 50 53 55 57 62 63 66 68 68 67 68 70 72 77 78 78 78 77 78 77 77 77 76 76 76 75 75 74 74 74 73 72 71 72 72 71 71 72
50 47 37 39 42 43 48 34 38 42 46 51 54 55 57 59 61 65 66 68 68 69 71 73 73 76 77 78 77 77 77 77 76 76 76 75 75 74 74 74 73 72 71 71 72 73 72 73 74
58 52 33 37 42 43 46 35 40 43 46 51 54 54 55 58 60 62 65 68 68 69 71 73 74 74 75 75 78 77 77 77 76 75 74 75 75 75 74 74 75 73 72 72 73 74 74 75 75
52 40 32 32 34 41 43 42 42 45 48 51 53 54 57 57 59 61 66 67 69 69 69 70 71 74 76 74 74 77 76 76 75 75 75 75 72 73 70 66 71 74 73 73 74 75 76 76 76
30 31 31 34 34 47 51 46 45 47 49 49 50 56 57 57 58 62 60 63 64 68 69 69 70 72 74 70 75 75 74 73 74 74 76 74 74 75 72 68 72 74 74 75 75 75 76 73 71
27 25 28 36 39 49 48 51 57 60 49 51 52 55 57 58 58 57 62 62 65 67 66 67 74 74 74 75 73 74 73 72 73 76 77 78 77 72 73 72 73 75 76 72 74 73 72 72 70
27 33 32 31 43 40 38 50 54 57 57 54 53 56 57 57 57 57 58 60 64 65 67 71 72 74 75 72 71 72 72 73 71 74 77 77 74 76 75 73 74 76 73 75 74 72 74 72 72
31 33 32 37 38 38 43 47 53 49 54 53 53 56 57 57 57 58 58 60 64 65 65 70 74 75 77 74 76 72 72 70 72 74 75 74 75 76 75 75 74 74 74 72 74 74 73 72 71
32 33 32 34 33 39 42 46 50 53 54 54 54 55 56 56 57 59 59 61 63 65 66 69 73 76 76 77 78 78 73 72 75 74 72 74 73 76 75 74 74 75 73 75 75 75 74 73 72
33 31 33 32 37 39 39 45 50 54 55 55 56 56 56 57 57 59 59 62 64 64 67 71 72 74 76 77 78 77 75 69 73 73 75 75 76 76 76 75 74 74 76 76 75 74 73 72 71
30 31 29 35 42 41 42 45 51 53 54 55 56 56 57 59 59 60 60 62 64 67 71 71 68 72 75 77 77 76 74 73 75 76 73 74 75 76 76 75 73 74 75 73 75 74 73 72 71
29 28 33 36 40 39 41 44 50 51 51 52 54 55 57 58 61 63 64 65 69 71 72 71 72 73 75 76 77 76 76 75 77 75 76 74 76 76 76 74 74 75 73 72 71 71 73 71 70
27 30 33 35 37 41 40 42 47 47 48 50 51 53 55 56 56 63 65 66 67 70 71 73 73 76 76 78 78 77 78 75 74 77 75 76 77 76 76 75 75 74 74 73 73 72 72 71 71
27 26 32 33 41 42 41 42 44 43 46 49 51 52 52 53 58 60 64 66 66 68 73 73 74 78 78 76 75 76 74 76 75 76 76 76 76 76 76 76 75 74 73 73 73 72 71 69 72
20 22 24 30 32 35 43 43 44 43 44 48 50 52 52 53 55 58 61 60 63 69 73 74 76 78 78 79 78 76 77 76 76 74 76 75 73 74 74 75 73 72 71 71 71 72 70 70 71
20 17 19 26 29 29 31 41 47 44 44 45 47 51 51 52 54 58 61 62 63 67 71 74 76 77 78 78 79 78 76 76 73 73 70 71 70 71 73 73 73 73 72 68 70 71 69 68 70
18 17 16 17 25 24 31 28 46 44 42 44 44 46 48 51 54 56 59 62 63 67 70 74 76 77 77 77 76 75 71 67 72 71 71 70 71 71 71 72 72 72 71 70 71 69 70 71 68
17 16 16 16 17 20 23 27 41 43 41 41 42 44 46 49 51 53 55 59 61 66 68 73 76 77 76 75 73 71 71 67 68 68 70 71 71 72 69 71 72 71 70 70 70 70 70 69 69
16 24 19 18 18 20 22 27 37 44 47 43 42 43 46 47 49 52 55 59 59 64 67 72 75 75 74 73 72 71 69 69 68 69 68 67 68 68 71 69 71 71 70 69 68 70 69 69 69
18 23 24 23 22 21 23 25 37 40 40 45 55 56 45 47 50 53 54 57 61 65 68 72 73 73 73 71 70 68 68 70 70 69 68 69 66 67 70 71 71 69 70 69 69 69 68 68 67
19 22 22 28 21 20 27 28 35 34 41 47 50 50 45 46 52 54 58 59 63 66 70 70 72 72 71 71 71 70 71 69 69 71 69 67 67 67 69 69 69 69 69 69 69 67 67 68 68
22 22 19 20 19 17 22 28 27 30 29 28 34 33 46 45 48 53 57 60 64 66 69 70 71 72 71 69 73 72 72 71 70 71 71 68 71 65 67 68 68 69 69 68 69 67 67 67 67
20 22 20 20 27 25 20 23 25 38 33 32 31 32 39 48 49 51 54 61 65 66 68 69 71 72 70 69 70 69 70 70 71 70 70 70 70 70 69 68 68 68 68 69 68 67 66 66 66
19 20 21 18 21 22 21 27 36 41 38 32 32 35 36 39 51 54 56 63 66 65 66 66 68 70 68 68 70 70 67 67 69 69 68 69 71 70 69 69 68 67 67 68 67 68 66 65 66
17 22 26 25 31 29 30 25 30 32 31 31 34 34 40 45 49 57 57 63 65 65 64 63 63 65 66 67 70 69 69 68 69 69 68 69 69 70 69 68 68 66 66 67 65 65 65 65 64

GFSSGP_sfc_dewp_009.txt.gz
Dewpoint
73 72 71 66 61 52 39 45 50 51 55 58 59 56 58 62 57 56 68 68 69 72 74 74 77 77 77 77 77 77 77 77 77 78 78 78 78 78 78 78 78 77 77 75 75 75 75 75 75
67 64 67 62 50 37 39 41 41 51 56 59 57 59 60 59 62 65 67 68 69 71 74 75 77 77 77 77 77 77 77 77 77 78 78 78 78 77 77 76 76 77 76 75 75 75 74 74 74
68 63 61 59 37 37 37 41 43 52 57 57 57 59 60 61 63 65 66 67 69 70 74 75 78 77 77 77 77 78 77 78 77 77 78 77 77 76 75 76 75 75 76 75 74 74 74 74 73
56 61 60 40 32 35 37 42 46 51 53 55 60 60 63 64 64 66 70 71 71 72 74 77 78 78 78 78 78 78 78 78 78 77 77 77 77 76 75 75 75 75 75 74 74 74 73 73 73
65 60 52 35 34 35 37 40 44 49 52 58 61 61 62 65 67 68 69 70 71 72 74 76 78 78 78 78 78 78 78 77 78 77 77 77 77 76 75 75 74 74 74 73 73 72 72 73 72
51 53 49 35 37 36 36 42 47 52 53 58 62 62 63 66 66 67 68 69 71 72 75 76 78 78 78 77 77 78 77 77 77 77 77 77 77 76 76 74 74 72 72 72 72 74 74 74 74
54 55 50 39 36 38 42 45 46 49 53 54 63 62 63 65 67 67 68 68 70 71 73 75 76 76 78 78 78 77 77 77 77 77 77 77 76 75 75 74 74 72 72 72 73 75 75 75 75
57 51 47 48 39 36 42 42 47 50 52 56 58 58 58 64 67 68 68 68 69 71 72 73 74 75 76 76 77 76 77 76 77 77 76 76 75 74 73 73 74 74 74 73 74 75 75 76 76
52 50 45 50 47 43 47 42 47 52 53 55 55 57 59 65 67 67 68 68 69 70 71 72 72 73 74 75 76 78 77 77 77 76 76 76 74 69 67 72 71 73 75 74 75 75 75 76 75
52 48 37 47 45 47 51 53 56 51 52 54 55 56 60 62 65 65 67 67 68 68 70 71 72 72 73 72 75 75 75 75 74 74 74 74 72 72 72 71 70 72 75 76 76 75 75 75 72
49 42 42 42 44 51 52 52 55 56 49 53 55 56 57 61 64 65 66 67 68 68 68 69 70 72 73 74 73 74 74 73 73 73 74 74 74 72 73 71 73 73 74 73 73 73 72 72 71
32 38 42 45 49 51 50 53 46 52 54 56 56 57 57 57 60 61 61 64 66 67 67 70 72 73 72 73 73 73 72 72 72 73 73 73 72 72 71 71 71 72 71 71 70 69 71 70 69
32 33 38 42 45 51 52 50 50 50 51 56 56 57 58 57 57 59 60 63 63 66 69 70 71 73 72 72 74 71 71 72 70 72 73 72 72 71 70 71 69 71 71 70 71 71 70 71 71
35 31 38 38 43 48 51 50 50 51 52 54 55 56 57 57 58 58 60 63 63 64 69 71 71 73 72 73 73 74 72 69 71 72 72 72 72 73 72 70 70 72 71 73 72 71 71 70 71
35 32 33 38 41 47 49 50 52 53 52 53 55 56 56 57 59 59 61 62 63 64 69 71 72 73 72 73 73 74 73 72 69 71 71 69 70 71 72 70 71 71 72 72 72 72 72 71 70
31 31 31 39 41 46 49 49 53 54 53 53 54 55 56 58 59 60 62 62 64 63 67 70 71 73 73 74 74 74 73 72 72 72 71 71 72 71 72 71 70 71 71 70 70 71 70 70 70
30 30 36 38 40 40 45 49 52 54 54 55 55 56 57 59 60 60 62 63 64 68 68 67 69 72 73 74 74 74 74 73 73 72 73 72 74 73 72 72 72 72 71 70 70 70 69 69 69
28 28 37 37 39 38 41 48 50 52 54 54 55 57 59 59 60 62 63 65 67 68 69 69 70 72 74 74 74 74 73 72 72 74 72 72 72 72 71 71 71 71 71 70 70 69 69 69 69
30 30 36 37 37 40 41 47 49 49 49 50 53 55 56 58 62 64 65 65 68 68 69 70 70 74 73 72 71 72 70 72 72 72 73 72 72 72 71 71 71 70 70 70 70 69 68 67 68
23 33 36 37 40 41 41 43 45 51 50 50 52 52 54 55 63 64 65 64 67 68 71 71 72 73 73 74 73 73 73 73 72 72 73 72 72 72 72 71 68 67 68 67 65 67 66 67 68
21 22 29 36 41 40 43 45 51 51 50 50 52 52 53 57 60 63 65 65 67 69 71 72 73 73 74 73 74 73 73 71 69 67 67 66 65 68 67 67 67 67 67 66 67 66 66 65 66
18 22 19 23 37 37 42 41 48 49 46 48 50 51 52 55 56 58 59 61 68 69 71 73 73 73 74 74 72 70 68 59 65 66 65 64 67 65 65 65 67 67 67 66 66 67 65 65 64
16 21 18 18 21 27 32 28 43 46 44 44 47 51 51 54 56 58 59 61 65 68 70 73 73 74 73 66 67 64 59 60 63 64 62 60 62 65 67 67 66 66 66 66 66 65 65 65 64
21 18 22 17 18 19 22 27 42 44 43 41 45 48 49 53 55 57 59 61 65 67 71 73 73 70 69 64 63 60 58 60 61 62 61 62 61 63 67 66 64 65 65 65 65 65 64 64 64
17 28 25 24 20 19 20 21 38 43 42 42 47 48 48 51 54 56 57 59 64 67 70 73 70 68 67 65 65 61 60 60 59 60 63 62 61 64 64 64 65 63 63 64 65 64 64 64 63
17 22 28 24 24 22 24 24 33 43 45 45 47 46 44 48 51 54 56 58 63 66 71 70 68 69 67 66 63 61 61 61 63 66 64 61 61 63 64 63 64 63 64 64 64 63 63 63 63
19 23 23 22 25 22 27 29 37 42 42 45 47 46 43 44 50 53 56 57 62 66 70 69 68 68 67 66 65 63 63 63 65 64 63 62 65 62 63 63 63 64 65 65 63 63 63 62 62
22 24 24 23 24 23 23 34 33 35 36 37 49 47 47 48 51 52 55 58 63 67 69 68 68 67 68 67 66 66 66 65 64 64 63 63 62 64 63 63 63 63 63 64 63 62 62 61 62
23 22 27 25 26 22 25 31 40 39 37 34 32 41 45 49 51 58 60 60 63 67 68 68 68 68 67 67 66 66 67 65 65 64 63 63 64 65 64 64 63 63 63 63 63 62 62 62 62
20 20 28 30 25 30 31 32 34 39 38 38 39 41 40 45 50 55 55 59 63 66 67 67 68 67 66 66 66 65 61 62 64 63 63 63 63 63 64 63 64 63 63 63 62 61 61 61 61

GFSSGP_sfc_dewp_012.txt.gz
Dewpoint
76 72 71 66 58 47 48 50 51 54 54 59 59 57 59 61 55 56 69 71 72 73 74 75 77 77 77 77 77 77 78 78 78 78 78 78 77 77 77 77 76 76 75 75 75 75 75 74 74
70 70 68 64 52 39 42 50 54 53 55 59 59 60 60 61 64 66 68 71 73 73 74 75 77 77 77 77 77 77 77 77 78 78 78 77 77 77 76 76 76 75 75 75 75 74 74 73 73
68 65 63 59 44 40 48 51 54 54 57 58 58 61 61 62 65 66 68 71 73 73 74 74 77 77 77 77 78 77 77 77 77 78 77 77 76 76 76 75 75 75 75 74 74 74 73 73 72
64 61 57 43 35 46 50 55 56 56 57 59 61 61 63 65 65 67 69 70 72 73 74 76 77 76 77 77 77 77 77 77 77 77 76 76 75 75 75 75 75 75 75 74 74 73 73 72 72
64 56 47 36 36 46 52 55 56 57 59 60 61 61 63 66 69 69 70 71 72 74 75 75 77 77 77 77 78 78 77 76 77 76 76 76 76 75 75 75 74 74 74 73 73 72 72 72 72
52 52 47 40 36 42 50 52 56 59 61 61 62 62 63 67 69 70 71 71 72 74 75 75 77 77 77 77 77 77 77 76 76 77 77 77 76 75 75 74 74 74 73 72 72 72 72 72 72
51 50 47 45 42 46 51 54 58 60 61 61 62 61 64 66 68 70 70 71 73 75 75 75 75 75 77 78 77 76 76 76 76 76 76 76 75 74 74 74 74 73 72 72 72 73 74 74 74
52 50 45 45 40 41 49 49 55 59 59 63 63 61 62 65 67 69 69 71 72 74 75 75 75 76 76 76 77 76 76 76 76 75 75 75 75 74 74 73 74 74 74 73 73 74 74 75 75
54 48 46 45 45 43 45 50 54 57 61 60 60 62 65 66 67 68 68 70 71 72 73 74 74 75 75 76 75 77 76 76 76 75 75 76 74 72 67 70 72 73 74 73 75 74 74 75 74
50 48 46 47 47 48 49 51 52 55 57 57 59 63 66 66 67 67 68 68 69 70 71 72 74 74 75 75 75 75 75 75 74 74 74 74 73 72 70 71 73 71 72 74 75 74 74 73 72
49 45 45 46 48 52 52 53 55 54 54 56 59 63 65 66 66 67 68 68 69 70 71 70 72 73 73 74 74 74 75 74 74 73 73 73 73 72 73 72 70 72 73 72 72 72 73 72 72
44 47 45 46 53 51 50 53 47 55 55 57 63 65 66 65 65 66 66 67 68 69 69 70 72 72 72 74 74 74 74 73 73 73 73 73 72 71 70 71 70 71 71 71 70 70 70 70 71
43 46 47 50 50 50 50 48 50 53 56 56 60 62 64 64 65 67 67 67 68 68 68 70 72 72 72 72 73 73 73 73 72 72 72 73 72 71 70 71 70 70 71 69 70 71 70 69 69
43 43 46 50 51 50 47 49 49 54 56 56 56 58 59 62 62 61 64 65 66 67 68 71 72 72 71 71 73 72 72 73 72 71 72 72 72 72 70 70 69 71 71 72 71 71 70 70 70
42 42 47 50 52 51 52 51 50 53 56 55 56 57 57 58 59 61 63 62 65 68 69 70 72 72 72 72 72 73 73 71 69 71 72 71 72 71 72 70 69 69 71 70 71 70 70 70 70
35 38 39 44 50 52 52 51 52 54 54 55 56 56 57 58 58 61 62 62 64 68 69 70 70 71 71 72 73 73 73 72 71 71 70 71 70 70 71 70 70 70 71 70 69 69 69 69 69
30 30 38 41 45 49 51 51 52 52 53 54 55 55 56 57 58 60 62 63 62 67 69 70 71 71 72 73 74 73 73 73 72 71 72 72 73 74 72 71 71 71 70 69 69 69 68 68 68
28 35 38 38 40 46 50 51 52 52 52 53 54 55 56 57 57 60 62 63 63 66 68 70 71 72 73 73 73 73 73 73 72 72 72 72 72 72 72 71 70 70 69 69 68 68 68 68 67
29 37 36 37 39 48 49 50 52 53 53 53 54 55 56 57 58 60 62 63 65 66 66 68 69 72 72 72 71 70 70 70 71 71 72 72 72 72 71 70 70 70 68 67 66 67 66 66 66
24 33 36 38 39 39 49 50 51 53 54 55 55 57 57 59 60 62 63 65 66 67 67 69 70 72 72 72 71 71 71 71 71 71 72 72 71 71 71 70 68 67 67 65 65 65 64 65 66
23 34 34 36 39 41 47 47 49 52 52 51 55 57 58 60 60 61 63 65 66 66 69 70 72 71 72 72 72 72 71 70 68 67 68 66 67 68 66 66 66 66 65 65 65 65 64 63 64
19 26 33 38 38 38 42 41 46 47 47 48 51 54 56 61 61 62 63 63 66 68 70 70 72 72 72 71 72 70 67 65 64 64 63 64 65 64 64 65 66 66 66 65 65 66 64 63 61
20 22 20 38 37 36 41 41 43 47 44 46 48 51 53 61 62 63 63 63 66 68 70 71 71 71 72 72 70 68 62 61 63 64 61 59 61 64 66 67 65 64 64 64 64 63 63 63 63
21 18 23 23 24 28 37 36 34 46 44 44 47 51 52 59 61 63 64 63 66 68 70 71 70 71 71 66 65 59 59 60 61 61 58 62 59 66 66 64 63 64 64 63 63 63 62 62 62
18 17 15 18 19 16 20 38 37 46 45 45 45 51 52 56 58 61 61 63 67 67 69 71 70 70 68 63 61 58 59 59 59 58 61 61 63 63 63 63 64 61 62 62 63 62 61 62 61
15 16 20 17 21 18 23 21 22 43 46 46 45 51 52 55 55 57 57 61 66 67 68 71 70 69 66 63 62 60 60 59 59 61 63 59 60 63 63 63 63 62 63 63 63 63 62 62 62
13 20 22 22 33 22 24 27 36 41 44 43 46 49 50 54 55 56 58 59 64 66 68 70 69 67 65 63 62 60 60 62 64 64 62 60 63 63 63 63 62 62 64 63 62 62 62 61 61
13 19 19 21 18 17 23 27 31 42 43 43 44 45 46 52 55 56 57 59 63 66 68 70 68 66 65 65 62 61 61 62 63 63 62 63 61 62 62 63 62 63 62 62 62 62 61 61 61
21 21 20 21 23 19 20 28 35 38 43 44 46 45 46 48 52 55 57 58 63 65 68 69 68 66 65 65 64 63 64 63 63 63 62 62 62 63 63 63 63 62 62 62 62 62 62 61 61
20 21 22 21 19 26 27 29 36 38 41 44 46 48 49 49 51 53 56 57 62 65 68 69 68 66 66 65 64 64 65 65 63 63 62 62 62 63 63 63 63 63 63 62 61 61 61 60 60

GFSSGP_sfc_dewp_015.txt.gz
Dewpoint
75 73 71 68 57 50 50 50 52 53 54 59 59 59 60 61 55 54 68 70 72 71 73 74 76 76 76 76 76 76 76 76 77 78 77 77 76 76 76 76 76 76 75 75 75 74 73 73 73
73 71 70 64 43 46 48 52 52 54 56 60 60 60 61 60 64 67 68 72 73 73 74 75 76 77 76 77 77 77 77 76 77 77 77 77 76 76 75 76 75 75 75 74 74 73 73 72 72
70 67 64 58 41 45 48 52 53 55 57 59 60 61 61 62 65 66 69 72 73 73 74 75 77 77 76 76 77 77 76 76 76 76 76 76 75 75 75 75 74 74 74 74 73 73 72 72 72
64 63 57 38 42 48 51 52 54 56 58 61 61 61 64 66 66 68 71 72 73 73 74 76 76 76 76 76 76 76 76 76 77 77 76 75 75 75 75 74 74 74 74 73 73 72 72 72 72
63 54 38 40 46 52 55 54 54 55 58 60 61 61 63 67 68 69 71 72 72 73 74 75 77 77 77 76 76 76 75 76 76 76 75 75 75 75 75 74 74 74 73 73 72 72 72 72 72
52 50 42 38 46 53 55 56 56 59 60 62 61 62 65 67 68 69 71 72 73 74 75 74 76 77 77 76 75 75 75 75 75 76 76 75 75 75 75 74 73 73 72 72 72 73 73 72 72
51 46 46 42 46 51 54 58 59 59 59 60 62 61 66 67 69 70 70 72 73 74 74 74 74 75 76 77 75 75 75 75 75 76 76 75 75 75 74 74 73 73 72 72 73 74 74 74 74
52 46 42 44 47 49 56 58 60 59 60 62 63 61 63 67 69 71 71 72 73 74 75 75 75 74 75 75 76 75 75 74 75 76 75 75 74 74 74 74 73 73 73 73 73 73 74 74 75
53 43 43 43 43 47 52 56 60 61 61 59 61 63 65 68 69 69 70 71 73 74 74 75 75 75 75 75 75 76 75 75 75 75 75 76 74 73 72 72 72 73 73 73 72 73 75 74 74
50 45 44 45 46 48 50 56 57 57 59 60 61 63 65 67 68 68 69 70 71 72 73 74 74 74 75 75 74 75 73 74 74 74 74 74 73 72 70 70 72 72 72 73 74 74 74 73 72
50 46 46 46 49 48 52 53 55 58 57 60 62 63 65 66 67 68 68 69 70 71 72 73 74 74 74 74 74 75 74 74 73 73 73 73 72 72 73 72 71 70 72 72 72 72 73 72 71
48 45 45 46 52 51 51 53 54 57 56 61 64 65 65 66 66 67 68 68 69 70 70 71 73 73 74 73 74 74 74 73 73 73 72 72 72 71 70 71 70 70 71 70 70 69 70 70 71
40 44 45 49 51 51 50 50 54 55 58 61 65 66 65 66 66 67 68 68 69 69 70 70 72 72 73 73 73 73 73 73 73 72 72 72 72 71 70 70 70 70 71 69 70 70 70 69 69
44 46 47 50 49 50 50 52 54 56 62 63 64 65 65 66 66 67 67 67 68 69 69 70 71 72 72 72 72 72 73 73 72 72 72 72 72 72 70 70 69 70 70 71 70 70 70 70 70
45 46 50 50 50 46 51 51 54 56 62 62 64 64 65 65 66 66 66 67 67 68 68 70 71 72 71 71 72 72 73 72 71 72 72 71 72 71 70 70 69 69 70 70 70 69 69 69 69
43 44 46 50 51 50 52 50 55 55 56 59 60 62 63 63 64 63 65 66 67 67 68 70 71 71 71 71 72 72 73 72 70 72 71 72 71 71 71 70 69 70 69 70 69 69 69 68 68
34 43 43 47 50 51 52 50 53 55 54 54 56 59 58 60 60 62 64 64 66 68 69 70 70 71 71 72 72 72 72 72 71 72 71 71 71 72 72 70 70 70 69 69 69 69 68 67 67
38 40 44 46 49 49 51 50 52 54 54 54 55 56 56 57 58 61 63 63 66 68 69 70 70 71 71 72 72 72 72 72 72 72 72 72 72 72 71 71 70 70 68 67 67 66 66 66 66
30 37 43 46 46 50 50 51 51 54 54 54 55 55 56 56 58 60 62 62 63 67 68 70 70 71 72 71 70 70 70 70 70 71 71 71 71 71 70 69 69 69 67 65 65 65 65 64 65
24 37 39 40 46 49 50 51 50 52 53 54 54 55 55 56 58 59 61 62 63 65 67 68 70 71 72 71 70 70 69 69 70 71 71 72 71 71 70 69 68 67 65 64 64 63 63 64 65
24 27 36 37 43 48 49 49 51 53 53 52 53 54 55 57 57 59 61 62 63 65 66 68 69 71 72 71 70 71 71 70 68 67 69 70 70 71 71 68 66 66 64 64 64 63 62 61 63
26 26 33 38 39 40 48 44 47 51 52 53 54 55 55 57 58 59 61 62 64 65 67 68 70 70 71 71 70 69 68 66 65 65 63 63 65 65 65 65 66 65 64 64 63 64 63 62 60
26 25 25 37 37 41 43 41 44 49 48 51 53 54 56 57 59 59 61 63 64 64 67 69 70 70 71 71 71 70 66 64 63 63 60 61 61 63 64 66 65 64 63 63 63 62 62 62 61
29 21 22 29 35 36 42 39 38 46 48 49 51 51 56 57 59 60 61 62 63 65 67 69 70 70 71 71 70 69 65 61 62 61 59 59 59 64 66 65 63 63 63 63 62 62 61 61 61
20 17 16 23 31 33 33 39 38 44 48 48 49 49 54 57 59 60 61 62 63 66 67 69 70 70 71 70 68 65 60 61 60 59 57 61 62 63 63 62 63 62 61 62 62 62 60 61 61
18 18 19 13 19 23 25 36 38 41 44 48 48 48 52 55 59 61 62 62 62 65 67 68 69 69 70 67 64 59 59 59 59 58 61 60 61 62 63 62 63 61 62 62 62 62 61 61 61
19 16 18 16 30 22 25 27 28 40 38 45 46 45 50 53 58 61 62 63 62 64 66 68 69 68 69 65 61 59 59 59 59 61 62 59 59 62 63 62 62 62 62 63 62 61 61 61 61
15 18 17 20 17 20 21 24 25 28 40 44 46 44 50 52 55 59 61 62 63 65 66 68 69 69 68 64 61 59 60 61 62 63 61 61 62 62 62 62 62 61 62 62 61 61 61 60 60
20 16 19 20 22 18 18 23 31 31 41 45 45 45 48 52 55 56 59 60 62 65 66 67 69 68 66 65 63 61 61 61 63 62 62 62 61 61 61 62 62 62 62 61 61 61 61 61 60
15 17 17 15 16 23 22 22 33 38 43 44 44 46 50 52 54 55 57 58 59 63 65 67 68 68 66 65 63 62 63 62 62 62 62 61 61 62 62 63 63 62 62 62 61 60 61 61 60

GFSSGP_sfc_dewp_018.txt.gz
Dewpoint
75 73 71 68 54 51 49 49 53 53 55 59 61 59 60 61 56 52 68 70 70 71 73 73 75 75 75 74 74 74 75 75 76 77 77 76 75 76 76 76 75 75 75 74 74 74 73 73 73
73 70 70 65 47 46 47 52 52 54 57 61 61 61 60 59 65 66 67 71 72 72 73 73 75 75 75 75 76 76 76 75 77 77 77 77 76 76 75 75 75 74 74 74 74 73 73 72 72
71 68 64 55 45 46 47 52 54 58 60 59 60 62 62 62 66 66 69 72 74 73 74 75 76 76 75 76 76 77 76 76 76 76 76 75 75 75 75 74 74 74 74 74 73 73 73 72 72
67 63 56 40 45 49 51 53 56 57 59 61 61 61 64 65 66 69 72 73 73 74 74 75 76 75 75 75 76 76 76 75 76 76 75 75 75 75 74 74 74 73 73 73 73 72 72 72 72
63 55 41 44 48 53 54 54 56 56 60 60 61 61 63 67 69 71 72 72 73 73 75 74 76 76 76 76 76 76 75 75 76 76 75 75 75 75 74 74 73 73 73 73 72 72 72 72 72
52 49 43 44 50 54 55 55 57 60 62 62 61 62 64 68 68 71 71 72 73 74 74 75 76 76 76 75 75 76 75 76 75 75 75 75 75 74 74 73 73 72 72 72 72 73 73 73 73
50 46 44 46 51 53 55 57 59 60 61 60 62 61 65 66 69 70 71 73 74 74 74 74 75 75 75 76 75 75 75 75 75 75 75 75 75 74 74 73 73 73 73 73 73 73 74 74 73
50 44 42 45 50 50 56 59 60 59 59 62 64 61 62 67 69 70 71 72 73 74 74 74 74 75 75 75 75 75 75 75 75 75 75 75 74 74 73 74 73 73 73 73 73 74 73 74 73
51 42 41 45 48 49 57 59 59 62 60 60 62 63 66 68 70 70 71 72 73 73 74 74 74 74 75 75 74 75 75 74 75 75 75 76 74 74 74 73 73 73 72 73 73 74 74 73 73
48 42 41 45 46 52 53 58 59 59 58 61 62 66 68 69 69 68 68 67 69 71 73 74 74 74 75 75 75 75 74 75 75 75 74 75 75 74 73 71 73 72 73 73 74 74 74 73 73
50 43 46 46 46 53 53 57 57 57 58 60 62 65 68 68 68 68 68 68 68 70 71 74 74 74 74 74 74 74 74 74 74 74 74 74 74 73 73 73 72 72 72 72 73 73 73 72 72
45 48 46 48 50 51 54 55 57 59 57 61 63 66 67 67 67 67 68 69 70 71 72 73 74 74 74 74 74 74 74 74 73 73 73 73 72 72 71 70 72 71 72 72 71 70 71 71 71
39 43 46 52 50 52 53 52 56 58 59 62 63 65 66 66 67 67 68 68 69 70 71 72 73 73 73 73 74 74 74 74 73 73 73 72 72 72 72 71 72 72 72 71 72 72 72 71 71
43 45 50 50 50 50 51 53 55 57 62 63 63 64 65 66 67 67 68 68 69 69 70 71 72 73 73 73 73 73 73 73 73 73 72 72 72 72 72 71 71 70 73 72 72 72 72 72 71
47 48 50 49 48 49 52 51 52 59 62 63 64 64 65 66 66 67 68 68 69 69 70 70 71 72 72 72 72 72 73 73 73 73 73 73 72 72 73 71 71 71 72 71 71 71 70 70 70
46 47 44 50 47 50 50 48 54 61 62 63 64 64 65 66 66 67 68 68 69 69 69 70 70 71 72 72 72 72 73 73 71 72 72 72 73 73 72 72 71 71 71 71 71 71 70 70 69
39 43 44 48 49 49 51 49 55 61 61 62 63 64 64 65 66 66 67 68 68 69 69 70 71 71 71 72 72 72 73 72 72 72 72 72 72 73 72 72 71 72 71 71 71 71 70 69 68
40 44 44 47 48 50 50 50 54 57 60 60 61 63 63 63 64 65 65 67 67 68 69 70 71 72 71 72 72 73 73 73 73 73 73 72 73 73 72 72 71 72 70 69 68 68 68 68 68
39 44 43 45 48 49 50 50 53 54 55 56 57 58 61 60 61 63 63 65 66 67 69 70 70 71 71 71 71 71 71 72 72 72 72 72 73 72 71 72 70 70 68 67 67 67 66 66 67
40 41 43 44 46 48 50 50 52 54 54 54 55 55 57 57 58 60 63 63 65 67 69 70 70 71 71 71 71 71 71 71 71 71 72 73 72 72 70 70 70 68 66 66 66 66 65 65 67
31 37 37 41 47 49 50 49 50 53 54 55 55 55 56 56 57 59 62 63 63 66 68 69 70 70 71 71 71 71 71 71 70 69 71 72 72 72 71 70 68 68 66 66 66 66 65 64 65
24 28 37 41 43 41 47 39 48 50 52 53 53 54 55 56 57 58 60 62 63 64 67 68 70 70 71 71 70 70 69 69 69 67 67 68 69 69 70 68 68 67 66 66 66 66 65 64 63
26 28 33 40 42 43 46 40 42 51 50 51 52 53 54 55 56 58 59 61 62 64 65 67 68 70 71 71 71 70 69 68 65 64 64 65 65 66 66 67 66 66 66 65 66 65 65 65 64
26 21 26 32 38 36 42 41 39 48 50 50 52 53 54 55 56 58 60 61 62 64 65 66 68 69 70 71 71 70 69 65 64 63 61 61 62 65 66 67 66 65 65 65 64 64 64 64 64
20 21 19 28 32 33 37 42 40 42 49 50 50 52 55 56 56 58 60 61 63 64 65 66 68 68 70 70 70 70 69 65 64 63 61 61 62 64 66 66 64 64 65 65 64 64 63 64 64
21 20 21 16 23 30 36 40 41 44 43 48 50 51 53 55 57 59 60 61 62 64 65 66 68 68 70 70 70 69 67 64 63 62 60 62 63 64 65 64 64 63 64 64 65 64 63 64 64
17 18 21 19 22 20 26 28 31 35 36 43 46 50 51 53 57 59 60 61 62 63 65 66 67 68 70 70 69 66 64 61 61 61 62 62 63 63 64 64 64 64 64 64 65 64 64 64 63
17 20 17 19 16 21 22 25 27 34 36 37 43 48 50 52 56 58 61 61 62 63 64 67 68 68 69 69 67 64 62 60 61 61 62 62 62 63 64 64 64 64 64 64 64 63 63 63 62
17 17 19 20 20 16 16 22 29 30 32 36 39 46 48 50 54 58 61 62 63 63 64 66 68 68 69 68 66 64 61 60 61 62 63 63 62 63 64 64 64 63 63 64 64 63 63 63 63
17 16 17 17 16 22 20 19 30 32 34 43 46 47 48 50 53 57 60 62 63 63 63 65 67 68 69 68 66 64 62 61 62 63 63 63 63 63 64 63 64 64 64 64 63 63 63 62 62

GFSSGP_sfc_dewp_021.txt.gz
Dewpoint
73 72 70 68 53 48 47 49 52 52 55 59 59 56 59 61 55 53 67 68 67 69 72 72 75 75 75 74 74 74 74 74 76 76 76 75 75 75 76 76 75 75 75 74 74 73 73 73 73
71 68 69 66 48 44 48 51 51 53 58 60 60 60 59 59 63 65 66 69 69 68 71 71 75 75 75 74 74 74 74 74 76 77 76 75 75 75 75 75 74 74 74 74 74 73 73 73 73
68 68 65 52 48 45 47 52 53 57 60 58 59 60 60 61 64 65 68 70 71 72 73 73 75 75 75 75 74 75 76 75 76 76 76 75 75 75 75 74 74 74 74 74 73 73 73 73 73
67 65 59 46 46 51 51 53 57 58 60 60 58 58 62 64 64 67 70 70 70 72 72 75 75 75 75 75 75 76 76 76 76 76 75 75 74 74 74 74 74 74 73 73 73 73 73 73 72
64 57 45 47 50 53 53 54 56 57 59 58 59 58 60 67 67 68 70 70 69 70 73 74 75 76 76 76 76 76 75 75 75 75 74 75 74 74 74 74 73 73 73 73 72 73 73 73 72
57 51 44 42 49 53 53 56 58 59 60 60 58 58 63 68 67 68 69 70 69 70 72 73 75 76 76 75 75 76 75 75 75 75 74 74 74 74 74 73 73 72 72 72 73 73 73 73 73
52 47 44 48 50 51 54 56 57 59 59 58 60 57 64 65 66 68 69 70 70 71 72 73 74 75 75 76 75 75 75 75 75 75 75 75 74 74 73 73 73 73 73 73 74 73 73 72 72
51 45 47 48 46 47 55 57 60 59 58 62 60 58 61 65 67 68 69 69 69 70 72 74 74 74 73 74 75 75 75 75 75 75 75 74 74 73 73 74 73 73 73 73 73 73 73 72 72
50 42 44 47 48 48 56 56 60 61 60 59 61 61 62 67 66 67 68 69 71 71 72 72 73 73 74 73 73 74 75 74 75 75 75 74 72 73 72 73 73 71 72 73 74 73 73 72 72
49 41 42 47 50 50 56 56 58 59 57 59 62 64 66 66 66 64 65 66 68 69 71 71 72 72 73 71 74 74 73 71 73 73 75 73 73 74 73 73 73 74 74 73 74 73 72 71 70
48 41 43 45 50 52 55 57 58 56 55 58 62 64 65 65 65 64 64 65 67 69 70 71 74 74 73 73 74 73 72 72 73 75 75 75 73 73 72 72 71 72 71 71 71 71 70 70 70
42 47 44 45 51 53 55 56 55 55 55 58 63 64 65 65 65 64 64 65 67 69 70 71 73 75 75 73 72 72 71 72 71 72 75 74 72 72 72 72 72 73 72 73 72 70 72 71 71
36 41 46 47 50 52 55 54 53 54 59 61 63 65 65 65 66 67 66 66 68 68 69 71 73 74 75 75 72 71 72 71 72 72 72 72 71 72 73 73 74 74 73 72 75 73 72 71 71
39 44 50 49 51 53 51 54 54 56 61 62 63 64 64 65 66 67 66 67 68 69 70 71 73 74 75 74 76 74 73 72 73 72 72 74 72 72 74 73 73 76 72 72 74 74 74 71 71
46 47 50 49 51 51 52 53 53 57 60 61 62 63 64 65 66 66 66 67 68 69 69 70 72 73 74 74 74 73 73 73 72 72 74 74 74 74 75 75 74 72 73 74 73 74 71 72 70
45 44 42 49 49 52 49 45 53 59 59 59 60 62 63 64 66 67 67 68 68 69 69 70 68 71 73 74 73 73 73 73 73 77 74 75 75 76 75 73 76 72 73 71 73 72 70 69 68
44 38 41 47 49 51 50 47 51 58 58 59 60 61 62 64 66 67 68 69 69 70 71 71 71 71 73 74 74 74 75 74 73 73 78 75 75 75 74 77 76 74 72 76 71 71 70 67 66
38 40 42 45 48 50 49 49 53 58 58 59 60 60 62 64 65 67 67 68 69 70 71 72 71 73 74 74 75 74 74 74 74 74 73 75 76 74 76 75 74 73 72 70 69 69 68 67 66
38 39 40 46 48 48 48 49 52 57 58 58 60 61 61 63 64 66 67 68 69 70 71 71 72 75 74 73 72 72 71 72 73 73 75 75 75 74 75 72 73 72 70 69 70 68 67 65 68
40 39 39 45 49 47 47 47 51 55 58 58 59 60 61 63 64 65 67 67 68 69 71 72 73 75 74 73 73 72 73 72 73 73 74 75 74 75 74 74 71 72 68 70 69 69 64 65 68
39 39 41 40 46 49 47 45 49 53 55 57 58 58 59 61 62 63 64 66 66 68 70 72 74 75 74 75 73 74 73 73 72 72 72 73 74 74 74 73 71 72 69 65 69 68 67 62 66
27 39 42 42 43 40 47 38 47 50 53 55 55 56 56 58 60 60 61 64 65 67 69 72 73 75 74 75 73 74 71 69 70 71 71 73 74 74 73 73 72 72 67 68 68 67 67 67 62
26 35 38 41 42 42 45 42 41 51 51 52 54 55 55 56 57 58 59 62 64 66 67 70 73 74 75 75 75 72 72 71 71 70 71 72 73 73 73 72 71 70 66 69 68 68 68 66 65
29 31 36 40 39 38 39 41 35 45 50 50 52 54 55 55 56 57 59 61 63 65 66 68 73 74 75 74 74 74 74 73 70 69 68 68 67 67 70 69 70 70 68 68 67 67 67 67 67
27 28 28 30 35 29 35 42 40 41 46 47 49 52 54 55 55 57 59 60 64 65 67 68 72 73 74 73 74 74 74 74 73 71 67 67 65 64 67 69 70 68 69 68 67 68 67 67 65
26 23 24 28 26 26 36 38 39 44 44 47 50 51 53 54 56 58 61 63 64 65 68 69 71 72 73 72 74 75 74 72 71 71 67 65 64 63 68 69 69 69 67 67 67 65 65 67 65
26 25 23 23 25 26 29 37 37 41 41 43 45 48 52 54 56 57 58 61 63 66 68 69 71 72 73 71 74 74 74 73 71 72 69 65 67 64 67 68 68 67 66 67 68 64 66 67 67
22 23 20 23 27 23 23 28 24 36 39 42 43 45 49 53 55 57 59 62 64 65 67 69 71 71 72 72 72 72 73 73 72 69 66 67 66 67 68 68 67 67 67 67 68 65 66 66 65
19 20 23 22 24 24 22 22 35 37 40 38 38 43 45 50 54 57 60 62 64 65 65 67 69 71 71 72 73 73 71 71 66 67 65 65 66 67 67 67 67 67 67 67 67 67 66 66 66
12 18 22 22 29 24 23 21 30 35 36 38 40 41 46 51 53 57 59 61 63 65 64 65 67 68 70 71 72 72 70 65 67 65 65 66 66 66 66 67 67 66 66 67 67 66 64 65 65

GFSSGP_sfc_dewp_024.txt.gz
Dewpoint
73 72 69 68 59 49 48 49 51 52 54 56 56 55 56 59 56 56 65 68 69 70 71 71 74 74 74 74 74 74 74 74 74 75 75 74 75 76 76 75 75 75 75 74 74 74 74 73 73
70 68 66 61 48 41 44 49 49 53 56 57 57 56 56 58 60 62 64 67 68 68 69 71 75 74 74 74 74 74 74 74 75 75 75 75 75 76 75 74 75 75 74 74 74 73 73 73 73
67 65 61 47 42 39 42 48 52 56 56 55 57 58 57 59 61 62 65 66 67 69 70 73 75 75 75 75 75 75 75 75 75 75 75 75 75 75 74 74 74 74 74 73 73 73 73 73 73
63 63 58 39 39 45 45 49 54 55 57 56 56 58 60 62 62 65 67 68 68 69 69 74 75 75 75 75 75 75 76 75 75 75 75 75 75 74 74 74 74 74 73 73 72 72 72 72 72
63 56 37 36 42 45 48 52 54 54 56 55 55 56 60 64 65 67 68 67 67 67 70 73 76 76 75 75 75 75 75 75 75 75 75 74 74 74 74 74 73 73 72 72 72 73 73 73 72
55 50 30 31 41 46 49 52 54 55 57 56 55 58 62 65 66 67 67 66 65 67 69 71 74 75 75 75 75 75 75 75 75 75 74 74 74 74 74 73 72 72 72 72 73 73 72 72 72
51 43 34 32 40 44 48 52 52 55 55 54 55 57 62 63 66 66 66 65 65 68 69 71 72 74 75 75 75 74 74 75 75 74 74 74 74 74 73 72 72 72 73 73 73 72 71 70 71
52 43 38 35 36 42 49 51 54 54 55 57 55 56 60 62 65 65 65 65 65 67 70 72 73 72 71 72 75 75 75 75 75 75 75 74 74 73 73 73 73 72 72 73 73 73 71 71 71
50 40 37 38 36 44 50 51 55 56 57 56 57 54 59 62 63 63 64 65 66 68 69 70 70 71 71 71 73 75 75 75 75 75 75 73 68 70 69 73 72 71 73 73 73 72 71 71 71
46 39 36 40 40 43 49 49 54 54 55 56 58 57 61 62 63 62 63 64 65 67 69 67 67 69 70 68 73 72 71 70 71 71 72 70 70 71 71 72 73 73 73 73 72 71 72 72 66
45 41 39 41 43 44 49 50 52 51 51 54 58 59 61 61 62 62 63 64 65 67 66 66 68 70 70 70 69 69 69 68 70 73 73 71 70 71 70 70 70 71 72 67 70 69 69 68 68
42 41 37 40 46 44 48 49 49 50 48 53 58 60 60 60 59 60 61 63 65 67 67 68 70 72 71 69 69 68 67 68 68 68 73 71 70 70 71 69 70 72 70 71 70 68 71 69 70
41 37 39 39 45 46 48 49 47 50 56 53 58 60 60 60 60 60 60 62 65 66 67 69 71 74 73 73 69 68 68 67 67 68 69 69 69 70 70 72 69 70 69 69 70 69 69 70 69
38 37 40 40 44 48 48 50 48 51 58 55 58 59 59 59 60 61 61 62 64 65 66 68 70 72 73 73 74 71 69 68 68 67 68 72 70 70 76 70 69 69 69 70 71 71 70 70 69
35 37 43 43 47 48 48 49 51 53 57 56 58 59 58 59 61 63 64 64 65 66 66 68 70 71 73 74 73 72 69 68 68 69 72 73 73 72 76 69 69 68 71 74 74 71 70 68 67
33 33 36 45 48 49 48 44 50 54 56 56 57 58 58 60 60 63 63 65 66 66 68 69 67 69 73 73 73 71 69 69 69 71 70 73 73 76 76 78 68 68 71 70 70 71 64 62 61
33 31 33 45 47 49 47 43 50 54 55 56 56 56 57 60 61 63 63 65 66 67 69 69 69 69 71 74 73 73 74 76 71 77 72 72 73 72 72 70 69 73 70 70 68 65 66 61 59
32 32 30 38 45 48 46 45 49 54 54 54 56 56 57 58 61 63 64 65 66 68 69 70 69 72 73 72 74 76 78 78 72 71 76 74 72 72 72 69 71 72 71 70 67 69 64 61 60
30 32 31 35 44 46 44 45 47 53 53 53 54 56 56 58 60 63 64 65 66 68 70 71 72 74 73 72 71 70 70 77 72 72 74 73 74 73 73 69 70 72 70 69 71 65 61 58 62
28 31 31 37 45 45 43 45 47 49 54 53 53 55 57 57 59 62 64 65 66 68 70 72 73 74 75 72 72 70 70 69 69 71 73 74 74 74 72 73 71 72 67 72 70 66 58 60 64
30 31 32 35 44 45 42 42 44 45 50 55 54 54 56 58 57 60 63 64 65 67 70 72 74 74 75 75 73 73 73 73 71 70 71 72 74 74 74 72 71 72 70 63 66 65 65 57 61
29 31 32 35 40 38 43 33 39 43 47 51 54 53 53 57 59 59 60 63 65 66 69 72 74 76 75 76 75 75 70 67 66 68 67 68 72 72 73 74 73 74 66 66 64 64 64 65 58
26 28 32 34 38 37 40 39 38 42 44 47 51 52 51 52 54 55 57 60 63 65 67 70 74 76 77 77 77 73 73 68 68 69 72 73 73 73 71 74 73 72 63 67 68 67 67 62 61
24 27 31 32 33 33 35 37 35 38 46 44 47 51 51 50 51 53 55 58 60 63 65 67 73 77 77 76 76 76 75 73 68 71 69 66 65 69 73 72 72 70 65 68 66 67 66 66 65
21 26 30 30 30 30 34 34 37 35 35 40 40 47 51 51 50 52 54 54 59 61 64 66 74 77 76 75 75 76 75 75 74 73 70 67 63 63 70 72 70 68 70 69 67 67 66 66 64
18 24 26 30 26 28 34 32 33 39 38 37 37 41 47 51 52 53 56 57 59 61 65 68 73 76 75 74 76 77 76 72 72 73 69 65 61 63 69 69 69 69 69 68 68 64 64 65 64
19 23 25 25 27 25 26 33 34 34 36 36 37 38 44 49 52 53 55 58 60 63 68 71 74 76 76 73 77 76 76 75 73 74 74 68 69 63 67 69 69 69 69 68 68 64 65 65 65
17 22 23 25 29 27 25 29 29 35 34 33 32 35 40 45 50 52 54 57 60 62 65 68 73 75 74 73 73 73 74 75 75 75 74 71 70 68 68 68 68 68 68 67 69 65 65 66 62
14 20 24 24 25 25 24 24 30 32 33 30 28 31 33 38 47 51 54 56 60 62 63 67 69 71 72 73 74 75 73 73 74 73 73 72 70 70 70 69 68 68 67 67 68 67 64 65 66
13 21 25 25 31 27 26 24 27 31 30 30 30 30 30 36 42 49 53 56 58 62 62 64 66 68 70 72 75 74 74 74 74 73 72 70 69 69 69 69 69 68 67 68 67 65 63 64 64

GFSSGP_sfc_dewp_027.txt.gz
Dewpoint
73 72 71 70 64 52 46 48 50 53 53 55 54 55 56 58 56 55 69 68 69 69 70 71 74 74 74 74 74 74 74 73 74 75 75 75 75 76 75 75 75 74 74 74 74 73 73 73 73
68 68 67 63 55 48 46 49 50 53 53 56 55 56 55 56 62 65 66 68 67 66 67 68 75 74 74 74 75 75 74 74 74 74 75 75 75 75 74 75 75 74 74 73 73 73 73 73 73
68 67 61 58 51 40 43 49 51 52 53 53 53 55 56 57 61 64 66 66 67 68 68 71 74 75 75 74 75 74 74 74 74 74 75 75 75 75 74 74 74 74 73 73 73 73 73 72 72
65 63 60 44 37 42 46 48 51 51 52 53 55 55 57 59 62 63 66 67 68 68 69 72 74 75 75 75 75 75 75 75 74 74 75 75 74 74 74 74 73 73 73 73 72 72 72 72 71
62 58 44 33 38 43 47 48 50 51 51 52 55 56 57 61 62 64 65 66 67 68 69 71 75 75 75 76 76 76 75 75 74 74 74 74 74 73 74 73 72 72 72 73 73 73 72 72 72
55 49 30 29 34 41 47 48 49 49 51 52 55 57 60 62 62 64 65 64 66 65 68 71 76 76 75 76 75 75 74 74 74 74 74 74 74 73 72 72 71 72 72 73 73 72 71 71 71
53 44 30 31 35 37 43 46 46 49 50 52 56 56 60 61 62 63 64 65 64 64 67 70 72 75 75 75 74 74 74 74 74 74 74 74 73 73 71 71 72 72 73 72 72 72 70 70 71
50 44 33 33 32 35 42 44 46 47 49 52 56 56 58 61 62 61 63 64 64 66 67 70 71 71 74 72 74 74 74 74 74 74 74 74 74 73 73 72 73 71 71 72 72 72 71 70 71
48 44 38 31 35 38 42 42 47 50 51 51 52 56 59 61 60 62 62 63 68 67 68 67 69 69 70 70 71 75 75 74 74 75 74 73 70 71 73 73 71 70 73 73 73 73 72 72 72
46 45 37 36 37 40 40 41 46 47 50 51 51 56 60 61 60 59 59 63 63 66 67 67 68 67 68 66 73 72 71 70 70 70 73 69 69 70 69 71 72 73 74 73 73 73 73 74 70
42 47 40 36 38 41 41 40 45 46 46 50 52 56 59 60 60 59 59 60 62 67 66 65 67 68 67 71 68 68 68 67 68 72 72 70 69 71 68 71 73 74 75 72 72 72 71 72 68
41 42 35 38 37 40 40 39 40 44 44 49 53 57 58 58 58 58 59 61 63 65 64 64 67 70 70 68 66 65 65 65 65 68 73 72 69 69 71 73 72 73 73 70 74 72 72 71 72
40 38 35 36 38 39 42 40 39 42 45 48 53 57 57 57 57 58 59 61 63 64 64 65 68 71 71 72 67 66 65 65 65 66 69 68 67 74 74 75 69 71 68 73 72 72 73 69 70
38 37 35 36 38 40 40 42 42 46 48 49 54 55 55 55 56 57 58 60 63 65 65 66 68 71 72 73 74 70 68 67 66 65 66 72 70 75 71 70 68 73 68 71 72 71 71 70 71
35 35 37 36 37 39 42 42 41 48 49 50 53 54 54 55 56 57 58 60 62 64 65 66 69 69 73 73 72 71 68 66 65 65 70 70 73 73 74 72 69 70 75 73 72 73 75 72 69
32 34 33 36 36 42 42 41 46 51 49 48 51 53 54 55 55 58 59 61 62 63 66 67 66 68 71 74 72 70 68 67 69 69 73 75 73 74 73 70 69 71 73 74 73 71 73 62 61
30 30 31 35 37 43 42 52 45 50 49 48 50 52 53 55 56 58 59 61 62 65 66 67 68 67 71 74 72 72 74 69 70 73 68 73 73 74 73 71 74 75 71 69 73 71 68 62 57
31 30 30 38 35 42 41 44 46 49 49 47 49 50 53 53 55 58 60 60 62 64 67 69 68 72 74 72 74 71 73 73 71 68 70 75 73 72 76 73 71 71 68 72 72 69 65 60 60
31 31 31 34 33 40 41 41 44 49 49 48 47 50 50 52 56 58 60 59 62 64 67 69 72 76 73 70 69 69 68 73 71 71 74 74 73 74 75 73 73 70 70 73 69 65 65 58 62
28 30 30 29 36 38 40 40 41 47 50 49 48 49 49 50 53 58 60 60 62 65 68 72 74 77 75 71 73 70 70 66 69 69 71 74 72 75 72 74 72 74 71 70 67 67 60 55 62
26 29 30 27 39 39 38 39 40 42 47 50 49 49 50 50 51 56 59 61 62 65 68 73 76 77 76 76 74 73 72 70 67 65 65 67 71 70 74 73 72 73 68 65 67 64 64 57 58
24 28 28 27 38 35 37 33 40 40 42 46 49 50 47 50 51 53 57 60 61 64 67 73 76 78 77 78 74 76 70 66 64 65 64 66 68 68 72 71 70 72 67 69 64 62 64 64 57
25 26 29 29 33 37 33 32 35 38 39 40 46 50 49 49 50 51 53 59 61 62 65 70 76 78 78 78 77 72 73 66 65 64 74 72 74 70 67 70 73 71 65 69 66 66 66 62 60
23 26 29 29 28 31 35 36 33 39 40 40 43 47 50 48 50 52 53 56 59 61 63 67 75 78 79 78 78 79 77 73 67 68 68 66 64 67 70 69 72 74 68 66 66 67 65 66 65
20 23 24 25 25 26 36 35 43 35 38 39 38 41 47 50 48 52 53 53 59 62 64 66 74 78 79 78 78 78 78 78 77 73 68 70 61 62 73 73 74 71 72 67 68 68 66 65 64
19 21 23 28 23 23 29 32 32 36 36 38 37 36 42 49 50 50 53 53 57 61 66 68 72 77 78 78 78 79 79 73 72 74 68 65 61 62 73 72 72 70 71 70 69 64 64 66 64
17 20 20 22 24 23 25 30 32 36 34 36 37 35 35 44 48 50 50 52 53 60 66 68 72 76 78 77 79 79 79 78 72 75 76 69 72 63 70 71 70 70 69 68 69 65 65 66 66
11 16 19 22 28 28 24 28 30 36 35 35 35 33 32 36 44 48 50 53 56 56 62 68 71 76 77 77 78 77 77 78 78 77 77 75 73 70 71 70 70 70 70 70 71 68 68 67 63
8 11 18 19 23 24 24 26 31 36 36 34 33 33 31 31 38 45 50 53 57 57 60 65 69 73 76 76 76 77 76 76 77 75 76 76 76 73 72 72 71 71 69 70 71 70 67 66 67
12 13 15 25 30 25 25 23 27 29 32 32 32 31 30 32 33 39 46 51 54 60 58 61 65 68 72 74 76 76 77 76 76 76 76 76 75 74 72 72 71 69 69 69 69 68 64 65 65

GFSSGP_sfc_dewp_030.txt.gz
Dewpoint
73 71 71 70 62 60 51 50 54 53 52 54 61 61 60 63 54 57 66 67 69 70 71 72 75 75 74 74 74 75 75 76 77 77 77 77 76 76 76 76 75 75 74 74 74 73 73 73 73
69 70 71 66 58 52 48 53 54 53 52 56 57 57 56 56 61 63 65 67 68 67 69 70 75 75 74 75 75 75 75 75 76 76 77 76 76 75 75 75 74 74 74 73 73 73 73 73 73
67 67 65 61 52 51 48 51 53 52 54 56 57 57 56 58 61 63 66 66 66 67 68 73 75 75 75 76 76 76 75 75 76 76 75 75 75 74 74 74 74 73 73 73 73 73 72 72 72
67 68 65 58 44 48 51 53 50 51 53 53 54 57 59 61 62 65 66 66 67 67 69 74 75 75 75 76 76 76 76 75 75 75 75 75 74 74 74 73 73 72 73 73 73 73 72 72 71
67 64 56 40 43 47 47 51 51 49 54 54 55 58 59 61 64 65 65 65 66 67 69 72 76 76 76 76 76 76 76 74 75 75 74 74 74 74 73 72 72 72 73 73 73 72 71 71 71
61 59 52 30 34 45 47 49 48 49 52 54 55 58 60 63 63 65 66 66 67 67 68 71 75 76 76 76 76 76 75 74 75 74 74 74 73 73 72 71 71 72 72 72 73 72 71 70 70
57 53 47 29 33 38 40 48 48 46 51 53 57 57 58 63 63 64 65 67 64 67 70 72 73 75 76 76 75 75 74 75 74 74 74 74 73 73 72 71 71 71 71 72 72 71 70 71 71
54 54 45 35 31 34 39 44 47 46 50 54 55 55 57 60 63 64 65 63 63 66 69 73 74 73 74 73 75 74 74 74 74 73 74 74 74 73 72 74 73 71 71 71 72 73 73 73 74
54 51 41 37 34 35 41 39 48 49 47 56 54 55 59 58 62 60 61 62 65 65 67 68 71 73 73 72 72 74 74 74 74 74 75 75 72 72 72 75 73 72 73 73 73 74 75 75 75
58 54 46 45 38 36 38 40 43 45 46 50 53 55 56 58 58 60 63 64 63 65 66 66 67 68 71 67 74 74 72 72 73 74 75 73 72 73 72 74 75 74 73 74 74 76 74 73 74
53 51 47 48 39 38 37 40 42 44 45 47 53 55 56 56 58 62 62 65 65 68 67 67 70 70 69 72 73 72 72 72 72 76 76 76 74 72 71 73 73 75 75 74 72 73 72 72 72
52 55 50 39 39 37 36 37 42 43 45 49 54 56 57 55 54 54 60 61 67 66 66 67 71 72 73 71 70 71 70 71 70 72 76 77 75 74 75 75 72 75 74 73 72 73 74 72 73
50 51 49 36 35 37 39 36 36 41 45 49 54 57 57 56 55 55 56 58 66 65 66 68 72 75 77 76 72 72 73 68 70 72 74 73 75 72 73 74 74 75 73 73 73 72 74 71 72
29 41 39 34 35 38 39 37 35 40 44 49 53 55 55 55 55 57 58 60 63 65 64 68 70 74 76 77 79 78 76 69 71 69 73 76 76 73 73 76 75 73 73 73 75 75 74 75 73
26 34 35 35 34 36 37 39 37 42 43 48 51 54 54 55 55 58 59 62 64 65 66 68 69 72 75 76 76 77 74 69 72 71 74 76 77 77 78 75 75 73 73 76 73 74 72 73 72
22 29 34 34 33 36 36 45 39 44 40 47 50 51 53 54 54 57 59 62 64 65 69 70 65 71 74 76 76 73 71 74 72 73 74 72 76 77 78 76 74 76 77 74 74 74 72 70 67
23 27 31 34 34 36 38 51 50 49 40 45 48 49 51 53 55 57 57 61 63 66 70 69 71 69 73 75 75 75 75 75 77 72 75 76 74 77 76 75 74 75 73 74 73 73 71 68 65
22 27 29 36 36 35 48 52 50 47 44 42 45 49 51 51 53 57 58 60 62 65 70 71 71 75 75 74 76 75 74 74 75 76 75 76 77 75 75 76 75 74 74 74 72 70 70 67 67
22 27 28 36 45 34 44 49 54 49 45 43 43 47 48 50 54 56 58 60 62 65 69 71 73 76 75 74 72 72 73 74 74 73 77 76 76 75 76 76 74 72 74 73 72 71 68 66 70
24 26 30 36 45 42 37 49 53 50 45 45 45 45 47 49 53 57 60 60 61 66 69 73 74 77 76 74 74 72 72 71 73 73 75 75 76 76 76 76 74 73 72 73 72 70 68 66 70
23 26 29 32 38 36 35 35 39 44 46 45 45 47 47 48 49 56 59 60 61 66 70 72 74 76 75 76 74 75 77 78 72 72 72 75 75 75 76 74 75 74 73 72 72 70 68 66 69
22 24 26 31 34 33 35 31 41 40 46 45 44 44 46 48 50 51 56 61 61 65 70 73 74 76 76 76 76 75 72 72 72 74 72 74 75 74 75 76 75 74 74 73 71 70 69 68 65
22 24 25 26 31 36 39 36 38 43 42 44 43 45 45 48 48 49 54 60 61 64 68 72 75 76 76 76 77 76 74 69 72 72 76 75 76 73 74 74 75 76 73 72 70 71 69 69 67
20 22 24 25 26 30 38 35 38 40 43 45 43 42 49 46 49 50 53 59 61 63 66 70 74 76 76 77 76 77 75 73 72 74 73 73 72 73 75 73 76 75 73 72 69 70 69 69 69
15 20 23 24 25 24 32 38 41 40 42 44 43 44 48 50 49 52 53 55 62 63 65 69 75 76 76 76 76 76 77 76 74 77 74 71 68 69 73 75 75 74 74 73 72 70 70 69 68
13 16 23 27 24 25 28 29 39 43 43 46 47 45 45 48 50 53 55 56 61 63 66 68 74 75 76 76 77 77 76 76 75 75 73 70 71 68 73 73 74 74 72 72 71 69 68 69 68
11 16 16 21 23 23 25 29 32 38 40 45 44 40 42 45 49 51 55 56 58 63 66 68 74 75 76 77 77 77 78 76 74 76 75 74 73 74 72 72 74 73 72 71 72 69 68 69 70
9 14 14 17 26 27 24 30 31 42 42 41 41 39 42 42 48 49 50 56 58 61 65 68 71 75 76 77 77 76 77 77 76 75 76 73 76 74 73 73 72 72 72 72 72 69 71 70 69
10 9 12 15 21 23 25 27 33 38 44 42 40 40 39 35 43 48 51 53 58 59 63 66 69 74 75 77 77 77 77 77 76 75 74 75 75 74 73 72 71 71 71 71 71 70 70 69 69
12 15 14 16 29 23 24 25 26 42 40 41 39 40 39 39 37 41 50 53 56 58 60 63 66 67 73 76 76 77 77 77 76 75 76 76 75 75 72 72 72 71 71 71 70 69 67 68 68

GFSSGP_sfc_dewp_033.txt.gz
Dewpoint
74 72 72 70 61 60 52 50 57 54 56 60 59 58 59 61 56 55 66 69 70 70 72 73 75 74 74 75 76 76 77 76 77 78 78 77 76 76 76 76 75 74 74 74 73 73 73 73 72
71 71 69 66 58 53 51 54 54 55 58 59 57 58 58 59 62 64 67 69 70 71 72 72 75 75 74 74 76 76 75 75 77 77 77 77 75 76 75 75 74 74 74 73 73 73 72 72 72
70 69 62 61 57 52 52 53 53 56 57 57 56 57 58 60 63 65 67 69 69 70 71 73 75 76 75 74 75 76 76 75 76 76 76 76 74 75 74 74 74 73 73 73 72 72 72 71 72
67 71 68 60 52 53 51 54 54 55 57 58 58 57 60 63 63 66 67 67 67 70 72 75 75 76 76 75 75 75 75 75 76 77 76 75 74 74 74 74 73 73 73 73 73 72 72 72 71
69 68 60 57 50 51 53 52 53 54 58 57 59 58 60 63 65 65 65 66 68 69 73 74 76 76 76 76 75 75 75 74 76 76 75 75 74 74 73 73 72 72 73 73 73 72 71 72 72
66 66 58 50 45 49 49 53 53 54 58 58 59 60 61 65 65 66 66 66 68 69 71 73 76 76 76 76 76 76 75 74 76 76 75 76 75 75 74 72 72 72 72 72 72 73 74 74 74
64 61 54 49 42 45 48 52 52 55 56 57 60 59 62 63 65 65 66 67 67 69 70 73 74 75 76 77 76 76 75 75 75 75 75 75 74 74 73 74 73 72 72 72 72 74 75 74 74
65 61 54 42 36 46 48 49 50 54 55 59 62 60 60 63 65 66 66 67 67 70 71 72 74 74 74 74 76 75 75 75 74 74 74 74 74 74 73 75 75 72 71 72 73 75 76 75 75
60 57 53 45 37 38 46 47 51 55 56 58 57 61 62 64 64 64 66 67 69 70 71 72 72 73 72 72 73 76 75 75 74 74 75 75 73 72 72 74 75 73 72 72 74 75 76 74 72
58 55 50 45 45 39 48 49 50 54 55 57 57 60 62 63 63 63 64 65 67 68 70 71 71 71 71 71 72 73 73 73 73 73 73 74 72 71 71 73 74 73 74 71 76 76 74 72 72
56 53 48 45 46 44 40 43 46 51 53 54 57 58 61 61 61 61 63 63 64 66 68 70 71 71 69 68 72 73 72 72 72 72 73 72 73 72 72 73 72 72 71 73 73 72 72 73 72
50 53 48 47 47 46 39 40 44 46 51 56 57 59 60 58 60 62 63 64 64 66 65 66 67 69 69 70 71 71 71 71 71 72 73 72 72 70 71 72 71 72 74 71 71 72 71 71 71
48 46 42 44 45 45 38 42 43 45 54 56 55 55 57 57 62 63 64 65 65 66 67 67 68 70 71 70 70 70 70 71 70 72 71 70 71 71 72 71 72 70 72 72 70 71 71 71 70
49 47 41 42 47 41 36 37 44 48 54 55 55 55 56 55 62 61 63 64 65 65 65 68 68 71 69 71 72 74 70 67 71 71 71 71 71 71 71 72 72 71 70 72 72 71 70 71 70
32 45 43 40 39 39 38 35 40 48 53 55 56 56 56 56 56 57 64 64 63 63 65 68 69 71 71 71 72 71 72 68 68 69 72 71 72 72 71 70 71 72 72 72 71 71 71 70 69
24 22 22 37 34 39 40 45 40 43 52 54 55 56 56 57 56 58 60 63 63 63 67 68 68 69 70 72 73 71 70 69 69 70 71 73 74 73 72 71 71 73 72 70 71 70 68 66 62
20 19 21 36 36 37 45 47 45 48 48 52 53 54 54 55 55 57 60 62 63 63 67 66 68 69 70 72 74 72 71 72 71 71 71 70 73 74 73 72 72 72 71 72 71 69 67 60 59
18 20 21 34 37 43 45 47 43 48 46 49 51 52 52 53 55 57 59 61 64 64 67 67 68 70 71 73 73 73 72 72 73 72 70 74 73 74 72 73 72 71 72 70 68 67 66 63 62
19 21 21 32 41 46 47 46 43 43 45 45 49 50 51 52 53 56 57 61 63 66 67 67 69 72 71 72 72 72 71 71 71 72 73 73 73 72 73 72 72 72 71 68 69 64 60 61 64
18 19 21 41 41 40 46 45 46 46 45 47 46 49 49 51 52 56 57 59 62 65 67 67 69 73 71 72 71 71 71 71 71 72 73 72 73 72 72 72 71 70 69 69 65 62 63 61 64
17 18 22 40 41 43 40 45 47 41 45 47 47 48 49 50 51 54 56 58 61 64 68 68 70 73 72 73 72 72 73 72 71 72 72 72 73 73 73 73 71 71 70 69 65 64 62 60 62
16 20 24 38 38 39 40 42 47 46 46 47 47 44 46 49 51 53 56 58 60 64 68 69 71 73 72 73 71 70 68 70 70 70 70 72 73 73 73 72 70 70 70 67 64 64 63 61 57
15 22 24 23 38 38 37 39 45 49 48 47 45 44 44 47 49 53 56 57 60 64 67 70 70 73 71 71 72 69 70 69 69 68 71 71 72 72 72 72 72 70 70 67 64 62 63 63 63
12 18 20 22 26 36 34 41 38 39 46 46 45 44 45 45 47 50 55 58 59 63 67 70 70 71 72 70 72 73 71 68 67 70 70 70 68 70 72 71 71 70 67 64 65 65 63 63 63
8 8 15 19 21 24 37 36 38 38 42 46 45 44 45 47 46 48 54 57 59 61 67 70 70 70 73 72 72 72 74 71 70 71 70 69 68 68 71 70 71 69 69 67 66 64 63 63 63
6 5 12 19 21 22 27 36 37 40 42 44 45 45 45 47 47 48 50 55 59 60 65 69 71 71 72 73 72 72 72 74 72 72 72 68 68 67 69 72 71 70 69 67 67 66 66 65 64
12 7 10 14 20 24 24 26 38 39 43 46 42 42 45 45 49 49 50 54 59 60 65 67 71 71 72 73 73 72 72 72 74 73 70 71 69 68 69 72 71 70 69 69 68 66 65 65 65
6 13 8 10 11 18 20 25 32 39 43 44 43 45 46 48 46 50 51 52 59 60 62 67 72 72 73 73 73 74 74 73 73 74 72 71 71 70 69 72 71 70 69 69 68 66 67 66 66
13 8 11 13 14 15 20 22 30 39 43 45 45 44 44 45 45 49 52 52 58 61 62 65 71 72 73 73 73 74 74 74 74 73 73 72 70 71 70 71 71 70 70 69 68 66 66 67 65
13 9 10 13 18 21 15 17 28 36 43 43 44 43 44 45 45 45 51 53 56 60 62 64 71 72 73 74 74 74 74 75 75 73 72 72 71 71 70 70 71 70 70 68 68 67 66 65 65

GFSSGP_sfc_dewp_036.txt.gz
Dewpoint
73 73 72 69 60 59 54 53 56 56 57 60 59 60 60 61 56 54 66 69 69 71 72 73 75 75 76 76 77 76 76 76 77 77 76 76 75 75 75 75 74 74 74 73 73 73 73 73 73
72 71 68 66 58 52 51 54 54 57 58 58 58 59 58 58 62 65 67 69 69 71 72 72 75 76 75 76 77 77 75 76 77 77 76 75 75 75 75 74 74 73 73 73 73 73 73 72 72
71 67 61 61 57 51 51 54 56 57 57 56 57 59 59 60 64 66 68 69 70 71 72 72 75 75 75 75 76 76 76 75 75 75 75 75 75 75 74 74 73 73 73 73 73 72 72 72 71
69 70 67 59 55 54 53 55 57 57 57 57 58 59 62 64 65 67 69 70 70 71 72 74 75 74 74 74 75 75 75 75 75 75 75 74 75 74 74 73 73 73 73 73 73 72 72 71 71
70 66 59 57 53 52 54 56 56 56 57 58 58 59 60 64 66 68 68 69 69 71 73 73 76 76 75 75 74 74 75 75 75 75 75 74 74 74 73 73 73 73 73 73 72 71 71 72 72
65 64 56 53 51 53 55 56 57 57 59 60 60 60 62 65 66 67 67 68 70 72 73 74 76 77 76 75 75 75 74 75 75 75 75 74 74 73 73 72 72 72 72 72 73 72 72 71 72
62 58 55 55 54 52 54 57 57 57 58 58 59 59 63 64 65 66 67 68 70 72 73 73 74 75 75 76 75 75 74 75 75 75 75 74 74 73 72 71 72 72 72 72 72 72 74 74 74
62 59 55 53 48 49 53 56 58 57 57 60 61 60 61 64 65 66 67 68 69 71 72 73 74 74 75 75 76 75 75 75 75 75 74 75 74 73 72 75 74 72 71 71 72 73 75 75 72
61 56 52 49 46 48 53 55 57 58 58 57 60 61 63 64 65 65 66 67 69 70 72 73 73 74 74 74 74 75 75 75 75 74 74 75 73 73 73 73 74 73 72 73 73 73 75 72 68
58 53 51 51 49 46 50 55 56 57 58 59 60 63 64 64 64 65 66 67 69 69 71 72 73 73 72 73 72 73 73 74 73 73 73 74 73 72 73 73 75 73 73 70 74 75 73 73 69
57 50 50 48 46 47 52 55 56 57 56 59 60 62 63 64 64 64 66 68 68 69 71 72 72 72 71 71 72 73 73 73 72 72 72 72 73 72 73 71 72 71 73 72 73 72 71 72 71
54 54 48 49 48 45 49 54 55 56 55 59 61 62 62 63 63 64 66 67 67 69 69 71 71 71 70 69 72 72 72 72 71 71 72 72 72 70 71 71 71 70 73 71 70 72 70 71 71
51 50 49 48 46 45 44 49 54 54 57 59 62 62 62 62 62 64 65 66 66 68 68 70 71 70 70 70 70 71 72 71 71 71 71 72 70 71 71 71 72 71 72 71 69 70 70 71 70
49 48 46 48 46 43 42 44 51 54 57 59 61 61 61 60 61 62 63 63 64 66 66 68 68 70 69 69 70 71 71 71 71 71 72 71 70 71 71 72 72 70 71 71 71 71 71 71 70
46 40 46 44 43 45 41 48 52 56 56 58 60 60 59 59 61 61 64 64 64 65 66 66 67 69 69 69 70 71 71 69 70 70 71 71 70 70 70 70 70 70 71 71 71 70 69 67 63
20 37 41 42 43 41 37 45 53 55 54 55 58 58 57 58 61 62 64 65 64 66 66 67 67 69 69 70 71 70 70 69 69 69 71 71 72 71 71 69 70 72 71 70 70 69 66 63 59
21 17 22 23 34 42 43 44 53 54 54 54 54 54 56 58 61 61 63 64 64 65 65 67 67 69 70 70 72 70 69 69 70 71 71 72 73 73 71 71 71 72 71 70 70 68 64 59 59
17 18 20 25 41 42 41 45 50 53 54 55 55 55 55 56 56 59 64 64 64 64 66 67 67 68 69 71 72 71 70 71 72 71 70 71 74 74 71 72 72 71 72 70 68 66 64 61 62
18 19 20 24 36 40 41 43 47 51 53 54 55 55 55 55 56 57 63 64 62 66 67 67 68 68 68 71 71 70 69 70 71 71 70 72 72 73 72 70 72 71 69 69 67 63 59 59 63
15 15 17 39 43 44 44 42 41 46 51 53 53 54 54 55 55 56 60 62 62 64 66 66 68 69 69 69 70 70 71 71 70 71 72 72 72 72 72 71 71 70 70 68 64 60 61 61 62
16 14 16 22 41 43 44 44 43 44 46 46 52 53 53 53 53 55 57 60 62 62 66 66 68 70 69 71 71 71 71 70 71 71 72 72 72 72 72 71 71 70 68 67 64 62 59 57 59
16 18 18 23 34 34 39 35 44 43 44 45 46 50 51 52 52 54 56 59 61 63 66 66 68 71 70 71 70 69 69 68 68 69 71 72 72 72 73 72 70 70 69 66 64 64 63 58 57
17 18 19 23 37 38 39 38 40 47 45 43 46 47 50 51 51 52 55 57 60 62 65 66 67 71 71 71 69 69 68 68 70 69 70 71 72 72 72 71 69 69 68 66 64 61 63 62 60
18 14 17 21 32 32 35 39 41 44 46 44 46 47 47 49 51 52 55 56 58 62 65 66 68 70 71 71 70 69 68 68 68 68 69 70 71 71 72 72 70 69 67 66 63 61 62 64 62
15 10 12 13 15 19 36 39 38 41 47 47 46 48 47 48 49 51 53 55 58 60 64 66 68 69 70 71 70 69 69 68 67 67 69 69 68 69 71 71 70 68 65 64 64 64 62 62 61
11 7 8 9 16 19 27 35 38 41 41 48 48 47 47 45 47 50 53 56 57 60 65 67 67 68 69 69 70 71 71 70 68 69 69 69 68 68 71 70 70 67 66 64 64 63 63 63 63
13 7 7 10 29 20 23 33 35 39 40 44 47 47 46 44 45 48 51 54 57 60 64 67 68 67 69 69 69 69 70 72 72 71 70 68 67 66 70 69 70 68 67 66 65 64 64 65 63
13 10 11 9 5 6 16 23 28 35 39 42 46 47 45 46 46 46 48 53 57 59 64 66 68 67 69 70 70 69 69 70 72 72 70 69 67 68 68 69 69 68 67 66 66 64 64 64 64
15 8 19 6 8 7 10 13 25 28 40 42 45 46 45 45 48 47 48 50 55 59 62 67 68 67 68 69 70 70 69 69 70 73 73 70 69 68 67 70 69 69 68 68 66 65 65 64 64
17 14 7 8 9 17 9 13 25 27 38 44 42 44 45 46 49 49 48 49 52 59 59 65 68 68 69 70 70 71 71 71 70 70 71 72 70 70 68 68 70 69 68 68 67 65 65 65 64

GFSSGP_sfc_dewp_039.txt.gz
Dewpoint
73 72 71 69 60 59 54 52 56 56 56 60 60 58 60 60 57 54 67 69 69 70 72 73 75 75 76 76 76 76 76 75 76 75 75 75 75 74 75 74 74 74 73 73 73 73 73 73 73
72 71 67 65 57 52 51 55 55 57 58 58 59 59 58 59 63 65 67 68 70 70 72 73 75 76 75 76 76 76 75 76 76 75 76 75 75 74 74 74 73 73 73 72 72 72 72 72 72
71 68 60 60 57 52 52 55 56 57 58 56 58 60 60 62 64 66 67 69 70 71 72 73 75 76 75 75 76 76 76 75 75 74 75 75 74 74 74 73 73 73 73 72 72 72 72 72 72
70 69 66 57 54 54 54 56 57 56 56 58 60 59 63 65 65 67 68 69 70 71 72 73 74 74 74 75 75 75 75 75 75 74 74 75 74 74 73 73 73 73 73 73 72 72 72 72 72
69 66 57 55 53 54 55 58 57 56 57 58 60 59 61 65 68 68 69 70 70 71 72 72 75 75 74 74 75 74 74 75 75 74 74 74 74 73 73 73 72 72 73 73 72 71 71 72 72
62 63 54 52 53 54 56 57 57 58 59 59 59 60 62 67 67 68 69 70 71 72 73 73 74 75 75 74 74 74 74 75 75 75 74 74 74 73 73 72 72 72 72 72 72 71 71 71 72
59 57 53 54 53 53 55 58 57 58 57 58 60 60 63 65 67 68 69 70 71 73 73 74 73 73 74 75 74 74 74 75 75 75 74 74 74 73 72 71 72 72 72 72 72 72 72 72 72
61 59 55 55 51 52 55 57 58 58 58 60 61 60 61 65 67 67 68 69 71 72 73 73 74 74 73 73 75 74 74 75 74 74 74 74 73 73 72 74 73 73 71 71 72 72 72 73 73
62 56 52 51 51 52 57 56 58 59 58 58 60 61 63 65 66 66 67 68 70 71 72 73 73 73 74 74 74 75 74 75 75 74 74 75 73 72 73 73 74 73 72 72 72 73 72 71 72
59 53 49 50 49 52 56 56 56 57 57 59 60 61 64 65 65 65 66 66 68 69 71 73 73 73 73 74 73 73 73 74 73 73 72 73 73 72 73 73 74 72 73 72 71 74 72 72 71
57 51 50 50 50 52 55 55 57 56 56 59 59 61 63 64 64 65 66 67 67 69 71 72 73 72 73 72 72 73 73 72 72 72 72 72 73 72 72 72 71 70 73 71 72 72 71 71 72
53 54 52 48 48 51 55 56 56 55 56 59 60 62 63 63 64 65 66 67 68 69 70 72 73 72 71 71 72 72 72 71 71 71 71 71 71 71 71 71 70 70 72 70 69 71 70 70 71
54 52 51 50 47 48 55 55 55 56 58 60 61 63 63 63 64 65 66 67 68 69 70 71 72 72 71 70 71 71 71 71 71 70 70 72 71 71 71 70 71 70 71 71 70 69 70 70 70
51 52 49 49 48 48 54 54 55 56 60 60 61 62 63 63 64 64 66 67 67 68 69 70 70 71 70 69 70 70 71 71 71 70 71 72 71 70 70 71 71 70 72 71 70 70 70 70 69
46 47 49 47 46 46 45 49 54 56 60 60 60 61 62 63 64 64 65 66 67 68 69 69 70 70 70 69 69 69 70 71 71 70 71 71 71 70 71 71 71 70 71 70 70 70 68 63 60
28 35 33 30 44 43 43 42 52 57 58 60 60 60 61 62 63 64 65 65 66 67 67 69 69 69 70 69 70 69 70 70 70 70 71 71 71 71 70 69 69 71 70 70 69 69 66 62 59
19 22 25 26 43 40 41 45 54 56 57 59 60 59 60 60 61 62 64 64 65 66 66 67 68 68 69 69 70 70 70 69 69 69 71 71 71 71 71 70 70 71 70 69 69 68 63 58 59
20 18 20 21 40 39 40 44 54 56 56 58 59 59 60 59 60 61 63 65 64 65 66 66 67 67 69 70 70 70 69 69 71 70 70 71 72 73 71 71 70 71 71 70 69 65 64 60 61
20 19 20 22 23 41 38 47 53 54 54 57 58 58 58 57 59 61 62 64 65 65 65 66 67 67 69 69 70 69 68 69 71 70 70 71 73 73 72 70 71 70 70 69 67 63 59 58 62
18 17 16 23 39 40 40 45 52 53 53 53 54 56 56 56 57 60 61 63 64 64 65 66 67 67 68 68 69 69 69 69 69 71 70 71 72 72 72 70 70 70 69 68 66 60 60 61 62
18 16 17 17 38 44 43 42 48 53 53 54 54 54 55 55 55 56 60 62 63 63 65 66 67 67 67 68 69 70 70 70 70 70 70 72 72 72 72 71 70 70 69 67 63 60 59 58 59
19 20 19 19 28 31 42 38 43 47 49 51 54 55 55 55 55 55 59 62 63 63 65 66 67 67 67 68 68 67 67 67 69 70 70 71 72 72 72 71 70 70 68 67 63 63 61 57 58
21 21 19 20 22 28 33 35 39 42 44 45 48 53 54 55 55 55 56 60 62 63 64 66 67 68 68 69 68 68 67 68 68 69 69 70 71 72 72 71 71 69 69 66 64 62 62 57 58
21 20 19 21 23 25 24 36 36 45 42 42 44 48 52 53 54 54 55 58 61 62 63 65 66 68 68 69 69 69 68 68 68 68 69 70 70 71 72 71 70 69 69 66 64 61 62 63 62
18 15 14 11 16 15 18 34 32 39 45 44 43 45 48 52 52 53 53 55 58 61 62 64 66 67 69 69 69 69 68 67 67 67 68 69 69 70 71 71 69 68 67 66 63 61 61 63 60
17 15 15 10 15 12 23 26 24 36 40 46 46 45 46 49 51 52 53 54 56 60 62 64 65 66 69 70 70 69 69 68 67 67 67 69 69 69 71 71 70 69 66 65 64 63 62 61 61
16 14 15 8 26 15 21 29 36 38 40 41 46 46 45 47 49 50 52 52 55 58 61 64 65 66 68 69 70 69 69 68 68 67 68 69 69 69 70 70 70 68 66 64 63 63 62 62 61
17 12 9 9 8 7 10 20 25 36 37 40 45 47 46 48 47 48 50 52 54 56 60 63 65 66 67 68 69 69 69 69 69 68 69 68 68 67 70 70 70 69 66 64 64 63 63 63 63
15 15 15 10 9 7 7 9 24 30 37 39 42 46 47 47 48 47 49 50 53 56 59 62 65 65 66 67 68 68 69 70 70 70 70 69 67 67 68 69 69 69 67 66 65 64 63 63 63
17 14 13 10 7 12 7 10 23 22 25 38 41 43 47 48 48 47 47 49 52 55 58 62 64 66 66 67 68 68 68 69 70 71 71 70 68 67 67 68 68 68 67 67 65 64 64 63 62

GFSSGP_sfc_dewp_042.txt.gz
Dewpoint
72 72 71 69 59 58 54 53 56 56 57 60 59 57 59 60 57 56 68 68 70 70 72 72 75 75 75 75 76 75 75 75 75 75 75 75 75 74 74 74 73 73 73 73 73 73 72 72 72
72 71 68 65 56 52 52 56 55 57 59 59 59 59 59 59 63 65 67 68 70 71 72 72 75 76 75 75 76 76 75 75 75 75 75 75 75 74 74 73 73 73 73 72 72 72 73 72 72
71 69 60 59 57 52 52 55 57 58 58 57 59 61 60 62 64 66 68 69 70 71 72 73 75 76 75 75 75 76 76 75 75 75 75 75 74 74 73 73 73 73 73 73 72 71 71 72 71
70 68 65 57 53 55 55 56 57 57 57 60 60 60 63 64 64 67 68 70 70 71 72 74 75 75 75 75 75 75 75 74 74 75 75 74 74 73 73 73 73 73 73 73 72 72 72 71 71
68 64 56 53 53 55 56 57 57 56 58 59 60 60 62 66 67 67 69 69 70 71 72 73 76 75 75 75 75 75 75 75 74 74 74 74 73 73 73 72 73 73 73 72 72 72 72 72 71
59 63 53 51 52 55 57 58 58 58 59 59 59 60 63 66 66 68 69 69 71 71 72 73 75 75 75 74 74 74 75 75 75 74 74 74 73 73 72 71 72 73 72 72 72 71 71 71 72
57 56 52 53 53 54 56 58 58 58 58 58 60 60 64 65 67 68 69 70 71 72 72 73 72 73 74 74 74 74 74 74 75 74 74 74 73 72 72 71 72 72 72 71 72 72 71 71 72
61 58 54 54 52 52 56 57 59 57 57 60 61 59 61 65 67 68 69 70 71 72 73 73 73 73 73 73 74 74 74 74 74 74 74 73 73 72 72 74 73 73 71 71 71 71 71 72 73
62 53 51 51 52 52 57 57 58 60 58 59 60 61 63 67 67 68 68 69 71 72 72 73 73 73 73 73 73 74 74 74 74 74 74 74 73 73 73 73 74 73 72 73 71 72 72 71 73
57 52 50 52 52 55 56 57 57 57 56 59 60 64 65 66 66 66 66 66 69 70 72 72 73 73 73 74 74 73 73 73 74 74 73 74 74 73 73 74 74 75 73 73 72 72 72 71 71
57 51 50 49 50 56 56 56 57 57 55 59 60 63 65 65 66 66 66 67 67 69 71 72 73 73 73 74 73 73 73 73 73 73 73 73 73 73 72 73 72 72 72 72 72 72 72 72 72
54 55 53 50 49 56 56 56 56 55 54 60 62 63 64 65 65 65 66 66 66 68 71 72 73 73 72 72 72 72 72 72 72 72 72 72 72 72 72 72 72 71 73 73 71 72 71 72 72
55 55 53 52 48 55 56 55 56 54 59 59 62 63 64 64 64 65 66 67 66 68 69 71 73 73 72 71 71 71 71 72 72 71 71 71 72 71 71 72 72 72 73 73 72 71 71 72 71
52 53 51 50 48 50 54 55 56 56 59 60 62 62 63 63 64 65 66 67 67 68 69 70 72 72 72 71 70 71 71 71 71 71 71 71 73 72 71 72 72 72 72 73 72 73 72 71 70
46 43 44 49 49 47 54 53 54 57 60 60 61 62 63 63 64 65 66 67 68 68 69 70 71 72 71 70 69 70 70 71 71 71 71 71 72 72 72 72 71 71 72 72 72 71 71 66 62
38 43 41 40 42 46 51 50 54 58 59 59 60 62 62 63 64 65 66 67 68 68 69 70 70 70 70 70 69 70 70 70 71 71 72 72 72 72 72 71 71 72 72 72 71 71 68 63 62
22 24 27 26 34 40 47 45 48 58 59 59 59 61 62 62 64 65 65 67 67 68 68 69 70 69 70 70 70 70 70 71 71 71 72 72 72 72 72 71 71 72 72 71 71 70 67 62 63
25 20 20 22 31 42 41 43 51 57 58 58 58 59 61 62 62 64 65 66 67 67 68 68 69 69 70 70 70 71 70 70 70 70 71 72 72 73 72 72 71 72 72 71 70 68 65 63 63
25 20 21 22 25 40 39 43 54 56 57 57 58 58 59 60 61 63 64 65 65 66 67 67 68 69 69 69 69 70 69 69 70 71 71 72 72 74 73 73 72 72 72 71 70 66 64 62 63
19 20 18 19 22 34 37 40 54 55 56 58 58 58 58 59 60 61 62 64 64 65 66 67 68 68 68 69 69 70 70 69 70 72 71 72 73 73 72 72 72 72 70 70 69 66 63 63 63
20 19 18 20 30 43 42 42 52 55 55 56 58 59 59 59 59 59 61 63 65 65 66 67 68 68 69 69 69 70 70 71 70 70 71 71 72 73 74 73 71 72 71 69 68 65 63 62 62
20 20 20 18 21 19 42 38 45 52 53 53 54 57 58 58 59 58 60 61 63 65 66 66 68 68 69 69 69 69 68 68 69 69 71 72 72 72 73 73 72 71 70 69 67 64 63 62 62
22 21 19 19 22 23 28 37 38 50 52 52 53 54 55 56 57 56 58 61 62 64 65 66 67 68 69 69 69 68 68 68 69 70 70 71 72 73 72 72 72 71 70 70 67 66 64 61 62
23 19 17 22 22 20 19 28 30 44 50 52 53 54 55 55 55 56 57 59 61 63 64 65 67 68 68 69 69 69 68 68 68 69 69 70 71 72 73 72 72 72 70 69 67 66 65 63 64
20 18 16 14 16 16 18 31 22 41 45 49 51 52 54 55 56 56 56 56 60 63 64 65 67 67 68 68 68 69 69 69 69 68 69 69 70 71 71 72 71 71 70 69 67 65 65 65 64
18 17 17 12 13 14 23 21 24 32 44 45 47 49 50 52 55 56 57 57 58 62 64 64 66 67 68 69 69 69 69 69 68 69 69 69 69 71 72 72 72 71 70 69 67 64 63 65 64
18 16 16 12 23 13 18 23 28 35 34 44 44 45 45 47 51 54 55 56 57 60 63 64 66 66 67 68 69 69 70 69 69 69 69 69 70 71 71 72 72 71 70 68 67 65 64 64 64
16 17 15 13 14 12 13 20 22 33 34 37 41 46 46 46 47 52 54 55 56 57 61 64 65 66 67 69 69 69 69 70 69 69 69 69 69 71 71 71 72 71 69 68 67 65 65 65 63
17 13 14 15 13 11 10 14 25 31 32 28 30 42 46 47 47 49 52 54 55 56 59 62 64 65 66 68 69 69 69 70 70 69 69 69 69 70 70 71 71 71 69 68 66 66 65 65 65
19 18 12 15 12 12 12 12 21 22 29 37 38 39 46 49 48 49 50 52 54 55 57 60 62 64 66 67 69 69 70 70 69 69 69 70 69 69 69 70 70 70 69 68 67 65 65 64 64

GFSSGP_sfc_dewp_045.txt.gz
Dewpoint
72 72 71 70 60 59 52 52 56 54 56 59 58 57 57 60 57 57 67 69 70 70 72 72 75 76 76 76 77 76 75 75 76 75 75 75 74 74 74 74 74 74 73 73 73 73 73 72 72
71 71 69 65 57 52 52 55 55 57 59 59 59 59 58 59 63 66 67 68 69 69 70 72 76 76 75 76 76 76 74 75 75 75 75 74 74 74 74 73 73 73 72 72 73 73 72 72 72
71 69 62 60 57 52 51 55 56 58 58 57 58 60 60 61 64 66 67 68 68 69 69 74 76 76 75 75 75 76 75 75 75 75 75 74 74 74 73 73 73 73 73 73 72 72 72 72 71
70 69 66 57 50 54 53 56 56 56 57 59 59 59 63 64 65 66 68 68 68 68 69 74 76 75 75 75 75 75 75 75 75 75 74 74 74 73 73 73 73 73 73 73 72 72 71 71 71
68 64 56 53 50 54 55 57 56 56 57 58 59 59 62 66 67 67 68 67 66 67 70 72 76 76 75 75 75 74 74 74 74 74 74 74 73 73 73 73 73 74 73 72 72 72 72 71 71
60 62 53 48 50 52 56 57 57 57 59 59 59 59 63 67 66 67 67 67 67 67 70 71 75 76 75 75 75 74 74 74 74 74 74 73 73 73 72 72 73 73 73 72 71 71 71 71 71
58 56 52 51 50 52 56 58 57 56 57 58 59 58 64 65 65 67 67 68 68 69 70 71 71 73 74 74 74 74 74 74 74 74 74 73 73 72 72 72 72 72 71 71 72 71 71 71 72
60 58 50 51 50 51 56 57 58 56 57 60 60 59 61 64 66 67 67 67 68 69 71 72 72 71 72 72 74 74 74 74 74 74 73 73 73 72 72 73 73 72 71 71 71 71 71 71 72
60 56 49 49 50 51 57 56 57 59 58 58 60 60 61 65 66 66 66 67 68 69 69 70 70 72 73 72 72 74 74 74 74 73 73 73 73 73 72 73 73 72 72 72 72 71 72 71 72
60 55 48 50 52 53 56 56 57 57 55 58 61 61 64 65 66 65 65 65 66 68 69 69 69 70 72 70 73 73 72 71 72 73 74 73 73 73 72 73 74 74 73 73 72 73 72 71 69
58 51 50 48 50 53 56 56 57 56 54 57 60 62 63 64 65 65 65 65 66 67 67 68 70 71 71 71 72 72 71 71 72 75 74 73 72 73 71 72 72 72 72 71 71 71 71 71 70
52 54 52 51 50 52 55 56 56 55 52 55 61 63 63 63 63 63 63 64 66 67 68 69 72 73 73 71 71 72 70 71 70 71 74 72 70 72 73 72 73 73 73 74 72 71 73 72 72
53 53 54 53 51 49 55 56 55 55 58 59 61 63 63 63 63 63 63 64 66 66 67 69 72 73 74 74 72 72 72 69 69 71 71 70 70 74 73 74 73 73 73 73 74 72 72 73 71
52 54 52 49 48 52 54 55 56 56 60 60 61 61 62 62 62 63 64 64 65 66 67 69 71 73 74 73 74 73 72 71 71 69 70 72 71 74 72 73 72 72 73 73 73 76 73 72 70
43 42 40 44 47 48 54 54 55 57 60 60 60 61 62 62 63 63 64 64 65 65 67 68 70 72 74 74 73 72 71 69 69 68 71 71 72 74 75 73 72 71 74 74 74 75 74 66 62
36 40 36 41 46 47 51 44 54 58 58 58 59 60 61 62 63 64 64 65 66 65 67 69 68 70 72 73 73 71 69 69 68 68 69 72 73 75 75 72 72 73 73 76 76 72 70 64 63
29 28 33 35 42 44 49 43 49 57 57 58 59 60 60 61 63 64 65 66 66 68 68 69 70 69 72 73 72 72 71 69 68 69 71 74 74 74 74 72 72 74 72 73 73 71 69 64 64
27 27 27 31 31 38 46 43 46 57 57 58 58 59 60 60 61 63 65 66 67 68 70 71 70 71 72 72 72 70 69 69 70 70 71 74 74 75 75 73 73 73 72 72 71 72 68 65 64
25 27 30 30 29 35 36 37 42 55 56 57 58 59 59 59 61 63 65 65 66 68 70 71 71 73 71 70 69 68 66 68 70 71 74 74 74 75 76 74 73 73 76 73 74 71 69 65 66
24 23 28 27 23 26 28 34 42 52 56 57 57 58 58 58 60 63 65 65 66 68 69 71 72 73 72 70 70 68 69 69 70 72 74 74 74 75 74 75 73 74 72 74 73 71 66 63 65
22 21 24 26 23 35 35 33 46 52 56 57 58 58 58 59 59 61 63 65 66 67 70 71 73 74 73 73 71 71 71 71 70 70 72 72 74 74 75 74 73 74 74 71 73 71 69 61 65
20 20 19 25 26 25 38 28 45 49 54 56 57 58 57 58 60 59 61 63 65 67 68 71 72 74 73 74 72 73 68 68 69 70 71 72 74 74 74 75 75 75 72 73 72 70 68 66 62
21 20 22 21 26 24 25 28 31 48 50 53 55 57 57 57 58 59 60 62 64 66 66 69 72 73 74 74 74 71 71 69 69 70 74 75 75 74 74 75 75 75 73 74 73 71 69 65 63
25 23 22 23 22 22 25 25 27 40 49 51 53 55 57 57 58 60 60 61 63 64 66 67 71 73 74 74 74 74 73 72 69 71 70 70 70 71 75 74 75 75 74 74 73 72 70 68 65
23 20 18 18 19 19 24 23 27 31 41 46 51 54 55 57 58 59 60 60 64 65 67 68 71 72 73 73 73 73 73 74 74 73 70 71 69 69 73 75 75 74 75 74 74 72 70 69 65
24 17 12 16 12 13 24 23 25 29 29 43 44 49 53 56 57 59 61 62 63 65 67 68 70 71 72 72 73 74 74 71 71 72 69 69 69 69 74 74 74 75 75 74 74 71 69 69 67
22 20 15 12 18 14 16 23 26 31 30 33 45 47 50 54 56 57 58 60 61 64 66 68 70 71 72 72 73 73 74 73 72 74 74 70 73 70 72 73 74 74 74 74 74 70 70 68 68
20 21 16 17 16 13 13 20 19 32 31 35 39 45 48 51 53 55 58 60 61 62 65 68 70 71 71 72 72 72 72 73 73 74 74 74 74 74 72 74 74 75 75 74 74 72 71 69 67
17 19 17 16 15 10 7 9 27 33 36 34 35 42 44 46 48 51 56 60 61 62 62 66 68 70 70 71 72 72 72 72 73 73 73 74 74 75 74 74 74 74 74 74 74 72 71 69 69
18 20 20 17 24 16 13 10 23 29 33 36 36 38 41 45 47 49 50 55 59 62 61 63 66 67 69 70 72 72 73 73 72 73 73 74 74 75 75 74 74 74 74 74 73 72 70 69 69

GFSSGP_sfc_dewp_048.txt.gz
Dewpoint
71 70 70 70 61 58 53 52 54 54 55 57 57 56 58 61 58 59 68 70 70 69 72 72 75 75 76 76 77 76 76 75 75 75 75 75 74 75 74 74 74 74 73 73 73 73 73 73 73
71 71 69 63 58 53 52 53 52 54 57 58 58 57 57 58 63 66 68 69 68 68 70 73 75 76 76 76 76 76 75 75 75 76 75 75 74 74 73 73 73 73 73 73 73 73 72 72 72
70 69 62 59 56 51 50 53 55 57 57 56 57 58 59 61 64 65 67 68 67 68 70 72 76 77 76 75 75 75 75 75 75 75 75 74 74 73 73 74 73 73 73 72 72 72 72 72 72
68 68 64 59 48 51 52 54 55 55 56 57 57 58 61 63 64 66 67 66 66 66 68 74 76 75 75 75 75 75 75 75 75 75 74 74 74 73 74 73 73 73 73 73 73 72 72 71 71
69 63 56 54 48 51 54 55 55 54 56 57 57 58 62 65 65 66 66 65 65 65 67 71 76 76 76 76 75 75 75 75 75 74 74 74 73 73 74 73 73 73 73 72 72 72 72 71 71
61 60 50 46 48 51 55 56 55 54 56 57 57 60 64 66 66 66 66 65 64 64 64 69 75 76 75 76 75 75 74 74 74 74 74 73 73 73 73 73 73 73 72 72 71 71 71 71 71
60 55 48 48 48 50 54 56 54 53 55 56 58 58 64 64 65 65 65 64 64 64 64 68 70 73 75 75 75 75 74 74 74 74 74 73 73 72 72 72 73 72 71 71 72 71 71 71 72
60 55 47 44 43 46 55 55 56 53 54 58 59 58 61 64 65 64 64 64 64 64 65 68 70 70 71 72 74 74 74 74 74 74 73 73 73 72 73 73 73 72 71 71 71 71 71 70 72
61 53 45 44 46 49 55 54 55 55 56 57 58 59 62 64 64 64 64 64 65 64 64 64 66 69 70 69 71 74 74 74 74 74 73 73 70 71 71 72 73 72 72 72 72 72 72 71 73
58 51 45 48 49 50 54 53 55 53 54 55 58 60 63 64 64 63 63 64 66 65 64 64 64 66 69 65 71 70 69 68 69 71 72 71 72 72 71 72 73 72 72 72 72 72 72 73 68
56 49 47 47 49 51 53 53 55 53 51 55 57 60 62 63 64 63 63 64 65 65 63 63 66 67 67 67 68 67 66 67 69 73 73 72 72 72 71 70 69 70 72 70 70 69 67 67 67
52 53 49 48 49 49 51 53 54 54 49 54 58 61 61 62 62 61 62 63 64 65 64 64 67 70 69 67 66 66 64 66 66 68 72 73 70 72 73 69 70 72 70 70 70 71 70 69 68
52 51 51 50 49 48 50 52 53 54 53 55 59 61 61 61 61 62 62 62 64 65 65 66 69 71 71 71 67 67 66 64 64 67 70 69 70 73 72 75 71 71 70 70 70 70 70 69 68
47 49 50 48 46 47 51 52 54 55 56 56 58 59 60 60 61 61 61 62 64 65 65 67 68 71 71 71 73 70 69 65 66 65 67 71 70 72 71 71 70 70 71 70 71 70 70 70 69
47 46 46 43 43 46 51 51 52 56 57 57 58 59 59 60 61 61 61 62 63 63 65 66 68 69 72 72 72 71 67 65 64 64 69 70 72 73 76 72 70 70 72 72 72 71 70 66 64
35 35 35 40 42 45 48 43 51 56 57 57 58 58 59 60 60 62 61 62 63 63 65 67 66 68 72 72 72 69 66 65 64 64 66 71 72 74 74 71 71 71 73 72 69 70 71 65 63
29 32 34 39 42 43 46 43 47 55 56 57 57 57 57 59 60 61 61 62 62 64 66 67 68 67 70 73 71 70 70 67 64 65 67 71 73 74 74 70 71 75 71 70 71 71 68 66 64
28 28 32 37 39 40 43 42 42 51 53 55 57 57 57 57 58 61 61 62 63 64 66 68 68 70 72 70 72 68 66 66 64 66 67 72 74 75 75 72 74 74 71 70 72 70 70 67 65
28 29 30 34 37 36 38 38 39 42 51 52 56 57 57 56 58 59 61 62 62 64 66 68 70 73 71 70 68 66 64 66 65 68 72 74 75 75 76 72 74 73 71 70 71 70 71 67 67
26 26 28 32 32 32 35 35 36 37 49 52 54 57 57 57 56 59 61 61 62 65 67 70 71 73 73 70 69 66 66 64 66 68 72 74 74 75 75 77 72 74 70 72 71 71 68 66 64
27 26 26 29 31 29 30 32 34 39 45 50 52 55 57 57 56 58 60 61 62 64 66 69 73 74 74 73 70 69 67 67 66 68 70 73 74 74 75 75 75 74 72 69 72 72 71 64 65
23 25 24 24 27 27 31 29 36 36 43 48 50 53 55 57 57 56 58 61 61 63 65 69 73 74 74 74 71 74 65 64 64 68 68 69 73 73 73 75 75 77 70 72 71 71 70 70 62
21 21 22 23 23 25 27 27 30 36 38 45 49 52 53 55 56 55 56 59 61 63 64 68 72 75 75 75 75 70 71 63 65 67 74 76 75 74 72 74 74 75 73 73 74 73 73 68 64
19 19 20 22 20 20 25 25 27 30 39 40 46 50 53 53 55 57 56 57 60 62 64 67 72 76 76 75 74 76 75 71 67 70 69 69 70 70 75 73 75 76 75 74 74 75 74 72 68
19 18 15 15 15 18 23 24 28 29 31 38 40 45 51 54 54 56 59 57 59 61 64 66 73 76 76 75 74 75 75 75 75 73 70 72 66 67 72 75 75 74 76 75 75 75 73 73 70
20 17 11 19 13 14 22 22 24 29 30 31 39 40 50 53 55 56 59 60 60 61 66 68 72 75 74 74 76 77 77 71 70 73 69 68 67 66 72 73 74 75 74 75 76 73 72 72 71
22 20 12 9 13 13 13 21 24 26 28 30 32 36 39 47 54 56 57 59 61 63 66 70 73 75 75 73 77 77 76 76 72 75 76 70 74 68 71 72 74 74 75 75 76 73 73 72 72
20 21 13 11 17 16 11 17 17 26 28 30 30 31 37 40 48 54 56 58 60 62 65 68 72 75 75 74 75 74 75 76 76 76 76 76 75 75 72 73 73 74 75 75 76 74 74 73 70
18 17 18 11 12 13 13 11 19 24 28 29 29 31 35 38 45 52 55 57 60 61 62 65 69 72 72 73 74 75 74 74 75 74 76 76 77 77 75 75 73 73 74 76 76 76 74 73 73
18 19 20 17 23 16 13 10 14 20 20 27 28 31 34 38 41 48 51 55 57 59 60 62 65 67 69 72 74 75 75 75 74 75 75 76 77 78 77 76 75 74 73 76 75 75 72 73 72

GFSSGP_sfc_dewp_051.txt.gz
Dewpoint
71 68 69 70 64 58 55 50 57 51 53 55 55 56 58 60 59 59 68 69 67 66 68 72 76 76 76 77 77 77 76 75 75 75 75 74 75 75 74 74 75 74 74 73 73 73 73 73 72
69 69 70 66 60 55 51 51 53 53 54 56 56 56 56 59 62 65 68 69 68 66 69 72 76 76 76 76 76 76 75 75 75 75 75 74 74 74 73 73 73 73 74 74 73 73 72 72 72
69 68 65 62 56 54 52 50 51 53 55 55 55 58 59 60 63 65 67 68 67 69 71 74 76 77 76 75 76 76 76 76 75 75 74 74 74 74 74 73 74 73 72 72 72 73 72 72 71
66 69 63 58 54 49 49 50 52 52 54 55 56 58 61 63 65 66 67 66 67 68 69 74 76 75 76 75 75 75 75 75 75 74 74 74 74 74 73 74 74 73 73 73 72 72 71 71 71
68 67 60 56 54 50 49 50 52 51 53 54 58 59 62 64 65 66 65 68 65 67 68 72 76 76 76 75 76 76 75 75 75 74 74 74 74 74 74 74 74 73 73 72 72 72 72 72 71
64 59 54 54 50 49 48 50 50 50 53 55 58 60 63 65 63 64 66 65 65 64 65 69 76 76 76 75 75 75 75 75 74 74 74 74 73 73 73 73 73 73 72 72 72 72 72 71 72
59 56 50 50 42 49 48 49 49 50 52 55 58 59 63 65 64 65 65 64 64 60 64 69 70 74 76 75 74 74 74 74 74 74 74 73 73 73 72 73 72 72 72 72 71 71 71 71 72
58 55 48 42 43 49 48 50 48 49 53 56 60 59 61 64 65 64 64 63 61 59 64 67 69 70 72 72 74 74 74 74 74 74 73 73 73 73 73 73 73 72 71 71 71 70 71 72 73
58 54 47 41 46 43 47 46 50 52 54 55 56 60 63 65 64 63 63 63 64 60 62 63 65 68 69 69 72 74 74 74 74 73 73 73 74 73 72 74 73 72 72 72 72 72 72 72 74
55 51 50 45 52 45 46 43 46 49 51 54 56 60 63 64 63 63 62 62 63 60 60 61 62 65 66 63 71 69 68 68 72 72 73 74 73 72 70 72 74 73 73 72 73 74 74 73 71
51 56 58 42 44 51 43 45 46 47 49 52 56 60 62 63 63 63 62 64 64 61 59 59 63 66 65 67 66 65 65 66 69 72 72 72 71 73 73 72 70 72 72 73 73 72 72 72 71
46 50 46 44 47 46 48 46 45 46 45 51 56 60 61 62 63 62 62 63 63 62 61 61 64 69 68 65 65 63 63 65 65 69 73 72 70 69 70 72 72 73 74 71 72 73 69 70 69
45 47 47 47 47 46 46 47 47 46 46 51 56 60 60 61 62 61 61 62 63 62 61 62 65 70 69 70 65 63 63 63 63 67 70 68 68 72 72 72 73 72 71 71 70 71 69 71 71
43 45 47 47 46 45 44 46 51 50 51 52 56 58 59 60 60 60 60 61 62 63 62 63 65 69 70 70 72 68 66 63 63 63 67 71 69 72 74 70 74 73 73 72 71 71 72 70 69
44 43 47 47 45 43 45 44 46 52 52 54 54 57 58 59 60 60 60 61 62 62 63 64 66 68 71 71 71 70 66 63 63 63 69 70 71 72 74 73 73 74 75 72 72 70 73 69 63
42 43 42 44 43 42 43 44 46 54 53 54 54 54 57 58 58 60 60 61 62 63 65 65 64 66 70 72 71 68 65 63 62 62 65 70 72 74 75 73 74 76 72 69 68 67 69 64 61
33 34 34 40 40 40 43 50 56 53 53 54 55 53 54 57 58 60 60 60 61 63 65 66 66 65 69 73 71 70 72 66 63 62 64 72 72 72 74 74 74 74 74 75 71 69 70 65 60
27 27 31 35 38 39 40 45 53 50 51 53 55 55 54 55 56 59 60 60 60 63 65 68 66 71 74 71 73 68 65 65 63 63 65 72 72 73 74 72 72 73 70 72 71 72 68 65 61
29 26 29 34 38 38 40 42 45 47 48 50 54 56 54 54 56 57 59 59 60 62 65 69 71 75 71 68 68 67 64 65 63 63 70 71 73 74 74 71 74 71 72 71 71 69 70 69 64
33 28 27 32 39 38 38 38 41 40 45 47 51 54 56 55 55 56 58 58 59 62 67 71 72 76 74 69 71 67 67 63 63 64 72 72 73 74 75 76 72 73 73 73 71 71 71 62 61
34 28 28 29 33 36 34 35 37 37 38 46 48 53 55 56 55 55 57 58 59 62 67 70 74 75 75 74 71 71 69 68 63 65 67 70 73 73 75 75 72 74 73 73 72 71 71 68 61
21 24 25 25 29 30 33 29 35 36 36 42 47 50 52 55 56 54 55 57 58 61 64 70 74 76 75 77 72 73 66 63 62 65 65 69 73 73 73 75 74 74 71 75 72 70 71 70 62
20 21 25 26 25 28 30 29 30 36 36 38 43 46 49 53 55 55 54 56 58 59 61 67 74 76 76 77 76 70 71 63 63 63 73 74 77 75 71 74 75 75 71 74 73 73 74 69 65
20 19 21 25 24 22 27 28 28 30 37 37 41 43 47 51 53 55 55 55 57 58 60 64 73 77 78 78 77 77 74 71 63 66 66 67 68 70 76 73 76 77 75 75 74 75 74 73 69
18 15 15 18 19 20 23 25 30 29 30 34 39 42 46 49 52 54 55 54 56 58 60 63 72 76 78 77 77 76 76 76 74 74 67 70 65 65 73 77 78 74 78 76 77 78 76 74 71
18 14 13 20 15 16 22 22 24 27 28 31 36 39 43 49 51 54 57 56 57 60 64 66 72 76 77 77 78 78 78 71 70 72 68 67 66 65 75 77 75 76 76 76 78 73 73 75 72
19 17 12 11 12 11 14 22 23 25 26 30 32 37 40 45 49 52 55 56 56 60 65 68 72 75 77 76 78 78 78 77 72 74 75 69 74 66 71 73 75 76 76 77 78 72 76 74 74
20 19 12 12 21 17 13 19 20 27 28 29 30 32 38 44 48 50 52 57 59 58 63 68 71 75 76 76 77 77 77 78 76 76 76 75 74 76 74 74 74 76 77 77 79 75 76 76 72
19 19 17 11 13 13 14 14 19 25 28 27 29 31 35 39 47 49 50 55 59 60 60 65 69 72 75 76 76 77 77 77 78 75 76 76 78 78 76 77 76 76 76 77 78 78 76 76 76
20 20 21 20 25 13 12 12 15 18 18 25 29 31 32 37 39 44 49 53 55 60 59 62 64 67 72 74 76 76 77 77 76 77 76 77 77 79 79 77 77 76 76 77 78 76 73 75 75

GFSSGP_sfc_dewp_054.txt.gz
Dewpoint
71 69 69 69 62 60 55 55 56 56 53 56 56 58 59 59 58 57 66 66 65 65 69 73 76 77 77 77 76 76 76 76 75 76 75 75 75 76 75 75 74 74 74 74 74 73 73 73 73
68 67 71 67 59 53 54 54 55 57 56 56 57 57 58 58 62 65 67 66 66 64 67 72 76 77 76 77 77 77 75 75 76 76 76 75 75 75 73 73 74 74 74 74 73 73 73 73 72
67 67 66 63 59 54 54 52 53 52 55 56 58 60 59 60 63 65 66 64 66 65 71 75 76 76 77 77 77 76 76 75 76 76 75 74 74 74 74 74 73 73 73 73 73 73 72 72 72
65 69 65 59 55 56 54 51 51 52 55 58 58 59 61 63 63 64 66 67 64 68 70 74 76 76 76 76 76 76 75 76 76 75 74 74 74 74 74 74 74 73 73 73 72 72 72 72 72
67 68 60 57 57 57 54 50 52 51 55 57 59 59 62 64 64 65 66 64 65 67 71 73 76 76 76 76 76 76 76 76 76 75 74 74 74 74 74 74 74 73 73 73 73 72 72 72 72
65 65 55 54 54 53 48 50 49 52 56 58 59 60 63 66 64 65 64 65 67 67 69 72 75 77 76 76 76 76 76 75 75 74 74 74 74 74 74 74 74 73 72 72 72 72 72 73 73
59 58 55 55 53 50 46 49 47 49 52 58 60 60 63 64 63 65 66 67 65 64 68 71 71 74 76 76 75 75 75 74 74 74 74 74 74 73 74 73 73 73 72 72 72 72 72 72 73
55 54 52 54 51 49 50 46 46 51 54 58 61 60 61 62 64 65 65 65 63 63 67 71 72 74 73 73 75 74 74 74 74 74 74 73 73 73 73 75 74 72 72 72 72 72 72 71 73
54 52 50 48 45 48 52 46 49 52 56 58 59 61 62 62 64 63 64 65 65 63 65 66 68 72 72 72 73 74 74 74 74 74 74 74 74 73 73 75 75 73 72 72 72 73 71 72 73
52 51 58 55 48 46 49 45 47 48 51 55 59 62 63 63 64 63 62 61 61 62 63 64 65 67 70 65 73 74 72 72 73 73 74 75 75 75 71 73 76 75 74 73 73 74 72 73 72
51 56 57 53 50 49 50 43 45 47 48 57 60 62 62 63 63 62 62 62 62 61 61 62 66 69 67 70 71 70 70 71 74 75 74 75 74 73 73 72 72 74 74 74 73 73 71 73 72
47 56 55 52 53 48 49 52 42 46 49 56 60 61 62 62 62 62 62 62 63 61 61 62 68 71 71 70 68 68 67 70 71 74 77 77 75 75 72 72 74 74 75 73 73 73 74 73 72
44 54 54 55 53 53 53 49 44 44 49 55 59 60 61 62 62 62 62 63 64 63 62 64 70 73 76 74 70 68 71 68 70 73 75 75 73 73 74 74 73 74 73 73 73 74 73 71 70
43 43 47 46 44 50 53 47 45 43 47 54 58 59 60 61 62 63 63 64 64 64 62 65 69 72 74 76 78 74 74 70 72 72 73 76 75 75 71 76 73 74 74 73 74 75 74 74 73
40 41 42 46 45 45 43 49 50 55 48 51 56 58 59 61 61 63 63 64 64 64 63 65 67 71 74 75 75 75 74 67 70 72 75 74 76 77 76 74 73 75 76 76 74 75 72 68 69
37 40 42 41 46 46 43 50 56 51 51 51 54 56 58 59 59 62 62 63 64 62 65 67 62 68 72 74 75 73 71 70 71 70 71 74 76 78 78 74 75 75 75 71 74 72 73 71 67
38 39 40 42 43 43 40 51 57 57 60 52 53 54 55 58 59 60 58 61 62 64 67 67 67 68 71 74 74 73 74 74 73 71 72 75 76 76 77 74 73 73 74 74 73 70 74 71 68
36 34 38 38 42 43 39 47 51 58 61 58 52 53 55 55 56 59 59 60 61 64 68 69 68 73 73 73 75 73 72 73 72 73 72 76 76 76 77 75 73 76 75 73 73 73 73 71 69
35 29 32 33 34 41 37 50 51 56 56 59 52 53 52 54 57 58 59 60 62 64 68 69 72 74 73 72 71 71 69 71 72 73 74 76 77 77 78 76 76 75 75 75 75 74 73 67 69
34 32 26 28 36 41 40 48 53 53 57 58 53 54 53 53 55 58 60 60 61 64 67 70 71 74 74 72 72 71 72 70 69 71 74 76 76 78 77 77 76 77 73 74 75 74 71 72 69
34 34 30 25 39 40 39 40 50 55 57 54 52 56 54 55 54 57 59 60 60 64 67 70 72 75 74 74 74 75 74 74 70 70 71 73 75 77 78 77 76 77 77 75 76 74 73 68 68
26 33 33 28 37 36 38 38 44 39 40 44 48 52 52 55 55 55 57 59 60 63 66 70 72 74 74 75 72 73 68 67 67 70 70 73 75 75 77 77 77 77 77 74 75 75 75 74 69
26 27 32 30 26 29 35 33 30 37 37 37 43 49 50 54 55 54 55 58 59 62 65 68 72 73 74 73 75 71 71 68 70 70 72 75 76 76 75 77 77 78 76 76 74 76 75 76 71
23 21 24 26 23 25 27 32 34 32 39 37 39 44 50 50 54 56 56 58 58 60 64 67 72 73 74 75 74 75 72 71 67 70 70 72 73 74 76 76 77 77 76 77 76 76 76 76 75
19 16 17 17 22 23 25 24 32 33 36 37 40 43 46 51 53 56 56 56 59 60 62 65 72 74 75 75 74 74 76 73 73 73 69 71 70 71 74 76 78 76 77 78 77 77 77 76 75
19 16 17 22 19 20 24 25 28 33 33 36 39 42 43 47 54 56 58 57 59 60 63 65 71 73 74 74 76 75 75 74 70 72 70 68 71 70 76 75 75 76 77 76 78 77 76 76 76
17 17 15 13 16 16 19 24 25 29 30 31 29 39 43 45 50 54 57 57 58 60 63 65 70 73 74 75 76 76 75 74 74 72 74 73 73 70 79 76 76 76 77 77 76 76 76 76 76
19 18 14 14 19 20 15 24 24 30 32 31 29 30 38 44 48 53 55 58 58 59 62 64 69 72 74 74 75 75 76 75 73 75 73 72 75 78 78 76 76 76 76 77 77 76 76 76 75
17 18 17 13 15 15 15 16 24 34 33 32 29 34 35 42 46 50 54 58 59 59 60 63 65 71 73 74 75 76 76 76 75 73 74 73 75 75 76 78 76 76 76 76 77 76 76 76 76
19 19 20 22 25 18 18 15 24 25 30 30 33 35 35 40 45 50 53 56 58 60 60 62 64 66 72 74 75 75 76 76 76 75 74 75 75 77 76 77 77 76 75 76 76 75 74 75 75

GFSSGP_sfc_dewp_057.txt.gz
Dewpoint
71 70 70 70 61 60 56 55 59 59 59 58 57 58 60 59 59 56 67 66 67 69 72 74 76 76 75 76 76 76 75 75 76 75 75 75 75 75 75 75 75 74 74 74 73 73 73 73 73
69 68 71 67 59 52 53 57 56 60 58 58 58 59 59 59 63 65 64 65 67 70 72 75 77 77 76 76 77 76 75 75 76 76 75 74 74 74 74 75 74 74 74 73 73 73 73 73 72
67 68 66 62 59 53 55 57 57 58 58 59 59 60 60 62 64 63 64 64 66 68 73 75 77 77 76 76 76 77 76 75 75 75 74 75 74 74 73 73 73 74 74 73 73 73 73 72 72
66 69 66 59 56 58 58 57 56 56 58 59 59 59 62 63 63 65 64 65 67 72 73 75 76 77 76 76 76 75 75 75 75 75 75 74 74 74 74 75 73 73 73 73 73 73 72 72 72
69 66 59 56 55 59 58 56 56 56 58 59 60 60 61 63 64 64 63 65 69 71 73 74 77 77 77 77 75 76 75 75 75 75 75 74 74 75 74 74 74 74 73 73 73 72 72 72 73
65 64 56 53 55 57 57 57 55 56 59 60 61 61 63 62 62 65 65 66 69 71 73 73 76 77 77 76 75 76 75 74 75 75 74 74 74 75 76 74 73 73 73 73 73 73 73 74 73
62 60 55 55 55 55 55 58 55 57 59 59 62 61 62 62 64 65 65 66 69 71 72 73 73 73 76 76 76 75 75 75 75 75 74 74 74 74 74 74 74 73 73 72 72 73 74 74 73
62 59 53 59 55 54 52 50 56 58 58 61 62 61 61 63 64 64 65 66 67 70 71 71 72 73 74 74 75 75 75 75 74 74 74 73 73 73 73 76 76 72 72 72 72 73 74 75 74
61 56 50 54 55 52 53 54 56 58 59 60 60 63 62 63 64 64 65 67 66 68 69 70 73 72 71 72 73 75 75 75 75 74 74 75 73 73 72 74 75 73 73 72 72 74 74 74 73
58 50 55 55 55 54 52 53 54 56 59 60 61 63 63 63 64 64 64 64 63 66 68 68 71 71 70 70 72 73 73 73 73 73 73 73 73 73 73 74 76 75 74 73 73 73 73 71 71
53 52 57 53 54 54 48 49 49 55 58 60 60 61 62 63 62 63 63 63 62 64 66 66 68 69 69 70 72 72 72 72 73 68 70 73 74 74 72 73 73 73 73 68 72 72 71 72 71
49 55 53 51 52 50 49 51 47 53 60 61 61 61 62 62 62 62 61 61 61 63 63 64 66 68 67 69 70 70 70 71 72 72 71 72 73 73 72 73 74 72 73 72 73 71 72 72 72
45 54 51 51 51 52 53 49 48 59 62 62 62 62 62 62 62 62 62 61 60 61 61 63 66 69 68 67 68 68 68 68 71 72 72 74 73 71 72 72 71 71 72 72 72 72 72 71 68
42 52 50 50 52 53 52 51 50 59 61 61 61 62 62 62 62 62 62 61 61 60 61 65 65 70 69 69 71 70 68 68 71 71 71 71 73 72 72 73 72 73 72 71 71 72 71 70 69
38 40 51 50 52 53 53 53 54 58 59 60 61 61 62 62 62 62 62 62 64 62 64 65 66 70 68 69 70 70 69 66 66 71 71 70 71 73 73 70 72 73 73 71 72 72 70 68 67
37 39 41 43 49 51 53 54 57 55 59 58 60 61 61 62 62 62 62 62 63 63 65 66 65 69 70 70 70 71 70 68 65 70 71 69 70 73 72 72 72 72 74 72 71 70 68 67 67
37 37 38 40 44 45 48 54 55 56 59 57 58 59 60 61 62 62 62 63 62 63 64 66 67 67 70 70 72 70 70 71 68 68 70 70 71 73 73 71 71 71 72 70 70 69 69 69 68
36 36 37 40 41 43 50 51 54 55 58 58 57 59 59 60 60 62 63 63 62 63 64 63 67 68 69 71 72 70 70 71 67 68 70 72 72 73 74 73 71 71 73 71 71 68 69 68 62
37 36 35 36 41 42 44 50 53 56 55 56 56 58 58 58 60 60 62 62 62 64 64 64 67 69 69 70 69 71 68 69 66 67 72 73 73 73 74 73 72 72 72 71 70 68 68 65 61
33 34 35 33 34 40 48 50 53 53 56 55 55 59 59 56 56 58 58 59 61 64 63 67 66 70 69 70 69 70 70 69 68 68 68 73 73 74 74 73 72 72 71 72 70 69 68 68 63
32 32 33 33 31 39 47 48 50 52 56 57 58 59 58 55 55 57 57 59 60 64 65 64 68 71 70 71 70 70 70 69 68 67 66 72 72 74 74 73 73 72 72 71 70 70 68 66 63
30 32 34 34 33 37 37 40 50 52 53 53 56 57 55 53 54 57 57 58 60 63 66 65 69 71 70 71 70 68 66 65 68 66 68 71 72 74 74 73 73 72 73 71 71 71 70 67 65
26 29 29 32 33 34 37 36 48 50 48 51 54 56 54 55 53 56 57 58 59 62 65 67 67 71 70 71 68 69 68 68 66 68 66 69 72 73 75 74 73 73 72 72 72 71 71 71 66
28 28 27 27 30 29 28 35 36 43 47 49 54 56 57 55 53 54 57 58 58 62 65 68 68 69 70 70 71 68 68 66 66 66 67 70 73 73 73 75 74 74 73 72 72 72 71 70 71
28 26 22 21 25 28 26 29 35 36 40 48 52 55 56 53 54 54 56 57 58 61 64 67 68 68 71 70 68 71 70 68 66 65 66 70 71 71 73 74 74 73 73 73 73 73 72 71 70
26 24 21 18 18 22 22 21 27 32 36 37 47 53 53 53 54 54 55 57 57 59 63 66 69 68 70 72 70 68 70 71 67 70 68 66 70 71 71 73 74 73 73 73 74 73 74 73 71
21 21 19 15 21 20 21 23 26 27 28 31 37 47 50 52 54 54 54 56 57 59 62 65 68 69 70 70 71 71 68 71 70 66 70 71 68 70 72 72 72 75 73 73 73 75 73 74 73
19 20 17 14 15 16 18 22 24 25 25 28 27 39 44 50 53 54 55 55 57 57 61 63 68 69 70 70 71 72 72 70 72 70 69 68 70 71 71 72 72 74 75 74 73 74 74 73 73
22 19 16 16 18 16 19 19 23 27 26 26 29 34 42 46 53 55 55 55 57 57 59 62 65 69 70 71 71 72 73 73 70 72 71 69 70 70 75 75 74 73 73 74 74 72 73 74 73
24 18 19 15 16 18 17 16 30 26 28 26 31 30 38 44 53 55 55 55 56 57 57 61 64 68 70 71 72 71 72 74 73 70 71 71 70 72 71 75 75 74 73 73 74 74 73 73 73

GFSSGP_sfc_dewp_060.txt.gz
Dewpoint
71 71 70 70 59 59 55 55 61 59 56 57 56 57 59 61 58 53 66 67 69 70 73 74 76 76 75 75 75 75 75 75 75 75 75 75 75 75 75 75 74 74 73 73 73 73 73 73 70
70 69 70 67 59 50 53 60 59 59 60 59 60 59 59 60 63 64 64 67 69 72 74 74 76 76 75 75 75 75 75 75 75 75 75 74 75 75 75 75 74 74 74 73 73 73 73 73 71
69 68 65 62 58 53 54 57 58 59 58 59 59 61 61 61 64 63 65 68 70 73 74 74 76 76 74 74 75 75 75 75 74 74 74 73 73 73 73 74 74 74 73 73 73 73 72 73 72
66 69 67 60 55 57 57 59 59 58 59 60 61 60 62 64 62 64 66 68 71 73 74 76 76 74 75 75 75 75 75 74 74 75 75 74 74 74 74 73 73 73 73 73 72 72 72 72 72
68 67 59 55 55 59 60 61 61 59 59 60 60 60 61 63 65 64 65 70 72 73 74 75 76 76 76 75 75 75 75 75 74 75 75 75 75 74 74 74 73 73 73 72 72 71 71 71 72
65 64 56 53 55 56 56 59 61 60 60 60 60 60 61 64 63 63 66 71 72 73 74 74 76 77 76 75 75 75 75 74 75 75 75 75 75 75 74 74 73 73 73 73 73 72 71 71 71
63 61 55 55 55 57 56 60 58 59 59 59 61 60 60 61 62 63 67 71 72 73 73 73 73 73 75 75 75 75 74 74 75 74 74 74 74 74 74 74 73 73 72 72 72 72 72 72 72
64 61 54 56 52 55 55 58 60 59 59 62 62 58 57 59 64 65 70 70 71 72 72 73 72 73 74 74 75 75 74 74 74 74 74 73 73 73 73 75 75 73 73 73 72 72 72 72 72
63 60 54 54 55 55 57 56 61 61 60 61 61 60 58 64 64 65 68 70 70 71 71 72 72 73 73 73 73 75 75 74 74 74 74 75 72 72 72 74 74 73 72 72 72 72 73 72 72
61 58 57 55 56 55 55 57 59 59 60 61 61 59 61 64 63 64 66 68 68 69 70 72 72 71 71 72 72 73 73 73 73 73 73 73 72 72 72 73 74 73 73 73 74 73 73 72 72
57 57 56 55 54 56 54 54 59 60 60 61 60 61 62 62 63 64 64 67 67 68 69 71 72 71 71 71 72 72 73 73 73 72 71 72 73 73 73 72 74 73 71 65 69 70 71 70 71
50 53 54 53 52 53 51 52 59 59 60 62 61 62 62 63 63 64 64 65 66 67 68 70 71 70 70 71 72 72 71 72 72 71 69 72 72 73 73 72 72 72 72 69 71 71 70 71 71
47 50 53 53 52 51 52 52 58 59 61 62 62 62 62 62 63 64 64 63 65 66 66 67 69 69 68 69 69 70 70 70 71 72 71 73 71 70 71 71 71 71 71 71 71 71 71 71 70
42 44 51 50 47 52 53 56 60 60 61 61 61 62 62 62 62 63 62 62 63 64 65 65 67 68 68 68 67 68 68 69 71 72 72 73 70 71 71 71 71 71 71 71 71 71 71 70 69
33 33 42 50 47 53 53 53 59 62 60 60 60 61 62 62 63 62 61 61 62 63 63 64 66 68 67 67 68 69 69 67 69 71 71 71 71 72 71 71 71 72 72 70 70 71 71 69 66
34 33 32 45 50 53 55 51 59 62 60 59 60 61 62 62 62 62 62 61 61 61 62 64 65 68 68 69 69 70 69 67 68 71 71 71 71 73 72 72 72 72 73 72 71 70 68 66 66
32 32 35 36 48 53 54 53 55 61 61 60 60 61 61 61 62 62 62 63 63 63 63 64 64 68 66 68 68 69 70 70 67 70 69 70 72 73 71 71 71 71 71 70 70 68 67 68 68
30 36 37 37 46 52 52 51 53 56 60 60 61 61 61 61 62 62 62 62 62 64 65 64 64 67 68 69 69 69 69 69 69 67 69 70 71 73 72 71 70 70 71 70 70 67 69 68 62
34 36 36 38 47 52 52 51 53 54 57 59 60 60 61 60 61 62 62 62 62 64 65 64 65 66 68 69 70 68 67 68 68 67 69 71 72 73 72 71 71 69 71 69 70 68 66 64 61
32 33 34 37 37 42 50 51 53 53 54 57 59 60 60 61 61 61 62 62 61 63 64 65 66 66 67 67 67 69 68 68 68 66 70 71 72 73 73 72 71 70 71 70 70 69 67 67 62
31 31 32 34 35 46 49 51 51 52 55 57 56 58 59 59 60 61 61 62 62 62 64 64 67 67 67 68 68 69 70 67 67 66 66 71 72 73 73 73 72 72 71 70 70 68 66 65 62
30 32 33 32 34 36 46 46 50 52 53 54 55 54 56 57 59 60 61 61 62 62 64 64 68 68 68 70 68 67 67 68 67 65 66 69 72 73 73 72 72 71 72 70 70 70 68 64 61
31 34 32 32 32 33 37 43 47 51 50 51 51 54 56 58 56 58 59 61 62 62 62 65 68 68 68 70 68 67 66 67 67 66 65 66 71 72 73 73 72 71 71 71 70 70 70 68 65
32 29 28 29 27 26 29 34 39 48 48 48 49 52 55 57 56 56 58 60 61 62 63 63 67 69 69 70 69 68 67 67 66 65 66 66 70 71 73 73 72 72 72 71 71 71 70 70 68
31 26 24 24 24 24 27 30 33 48 49 48 49 50 53 57 55 55 57 57 59 62 64 63 66 68 69 69 69 69 68 67 66 66 64 66 70 71 71 74 72 72 72 72 71 71 70 69 69
29 26 25 22 22 23 27 27 29 41 49 49 50 50 52 55 55 54 56 57 58 61 64 64 64 66 68 69 69 68 68 68 67 65 66 64 70 71 71 72 73 73 73 72 72 71 71 71 70
30 26 26 21 24 19 23 24 26 27 35 38 48 50 51 55 55 55 55 57 58 61 63 65 65 64 68 68 69 69 70 68 67 67 66 66 68 71 71 72 73 73 73 72 73 72 71 72 71
31 27 22 20 21 18 18 21 22 24 25 27 45 48 52 55 56 55 54 57 58 60 62 65 66 65 66 68 68 67 67 70 72 67 67 70 69 69 71 71 72 73 73 72 72 73 73 72 72
31 28 21 21 18 17 16 17 22 25 27 27 37 50 52 55 56 55 54 56 57 59 62 64 66 65 66 67 69 69 69 67 69 71 68 67 68 70 70 71 71 71 73 73 72 71 73 72 72
29 28 21 19 17 18 18 17 22 25 28 28 28 46 53 55 55 55 54 55 57 57 60 62 65 66 66 68 68 69 70 70 68 68 72 69 68 68 68 74 72 72 72 74 73 71 72 73 72

GFSSGP_sfc_dewp_063.txt.gz
Dewpoint
71 71 70 70 59 58 55 56 61 58 58 57 57 56 57 61 57 52 66 67 70 71 73 75 75 75 75 75 75 75 75 75 75 75 75 75 75 75 75 75 74 72 72 73 73 73 71 70 71
70 70 70 66 58 50 53 59 58 59 61 57 59 60 60 60 63 64 64 68 70 72 73 74 75 75 75 75 75 75 75 75 75 75 75 75 75 75 74 74 75 74 73 73 73 73 72 71 71
70 68 66 62 57 53 53 57 59 59 60 59 61 62 61 60 63 63 66 70 72 73 74 74 76 75 74 75 75 75 75 74 74 73 73 73 74 75 74 74 74 74 73 73 73 73 73 72 71
67 68 67 59 55 57 57 59 60 58 61 62 61 60 62 64 62 64 69 71 73 73 74 75 75 74 74 75 75 75 74 74 75 75 74 74 73 73 73 73 74 73 73 73 73 73 72 72 71
68 66 59 54 55 58 59 61 61 59 61 61 60 59 61 63 64 67 69 72 72 73 73 73 76 75 74 75 75 74 74 74 75 74 75 74 75 75 73 73 73 73 73 72 72 72 72 72 72
65 64 55 53 54 56 58 61 61 60 61 59 59 59 61 64 65 65 70 72 73 73 74 73 75 75 75 75 75 75 74 74 75 74 74 75 74 74 74 74 74 73 73 73 73 73 73 72 72
64 59 55 55 54 56 57 60 60 61 59 59 60 59 61 62 64 68 71 72 73 73 73 73 73 74 75 75 75 75 74 75 74 74 74 74 75 74 74 73 73 73 73 72 73 73 73 72 72
65 60 55 55 52 54 57 59 59 60 59 61 60 58 59 62 64 68 71 72 73 73 73 73 72 73 73 73 75 74 74 74 74 74 74 74 74 74 73 75 75 73 72 72 73 73 73 73 72
64 59 53 53 56 54 57 58 61 62 60 61 61 59 60 62 64 70 70 71 71 72 71 71 72 73 73 73 73 74 74 74 74 73 73 73 72 72 72 73 73 72 72 72 72 72 72 73 72
61 57 57 56 55 55 56 58 60 59 60 60 57 59 61 62 66 68 68 67 69 70 71 71 72 72 73 73 73 73 73 73 73 73 73 72 72 71 72 73 73 72 72 73 73 73 73 72 71
60 58 58 56 55 55 55 56 59 60 60 60 56 58 62 63 66 67 68 67 68 70 71 71 71 71 71 71 72 72 72 73 73 72 71 71 72 72 73 72 73 72 72 65 68 69 70 71 71
52 56 59 56 54 55 54 56 59 60 60 61 57 62 63 63 64 66 67 68 68 69 70 71 71 70 70 71 71 71 72 72 72 72 69 70 71 71 72 72 71 72 71 69 70 70 70 69 70
45 48 51 54 53 52 53 52 58 59 62 59 58 62 62 63 64 65 67 67 68 68 68 71 71 70 70 70 71 71 71 71 71 72 67 71 71 71 71 70 71 70 71 70 70 70 71 70 70
39 41 44 48 49 51 53 58 59 61 62 59 59 61 62 63 64 64 65 65 66 67 67 70 70 70 69 69 69 70 70 70 70 72 71 71 71 70 71 71 70 70 70 70 70 69 71 69 69
31 30 33 37 49 55 55 54 59 61 61 60 60 60 62 63 64 64 64 64 65 66 66 67 69 69 68 68 67 68 69 69 69 71 72 71 69 70 71 70 70 71 71 70 69 70 70 69 66
32 31 30 33 49 52 53 50 60 61 61 60 61 61 61 62 63 64 63 63 64 65 65 65 67 68 68 67 67 67 69 69 68 71 72 71 70 71 70 71 71 72 71 70 69 69 68 65 65
26 29 32 34 50 53 53 53 61 61 60 60 60 61 61 61 62 63 63 62 63 64 64 64 65 67 67 67 68 68 69 67 68 71 71 71 71 72 71 71 71 71 71 69 70 68 67 66 67
21 32 34 33 42 52 51 53 60 60 60 60 60 60 61 61 62 62 62 62 62 62 62 63 64 67 67 68 68 69 69 69 68 69 69 70 73 72 70 70 70 70 71 69 70 67 69 67 59
31 34 33 36 40 50 50 51 56 61 60 59 59 60 60 61 61 62 62 63 61 62 62 63 64 66 67 68 67 67 66 68 68 67 69 69 72 72 71 70 70 68 70 69 69 68 66 64 60
22 24 28 35 48 49 50 49 53 59 60 60 60 60 60 61 61 62 62 62 62 63 62 63 63 66 67 66 67 67 67 67 68 67 68 70 71 73 72 71 70 69 70 70 69 68 66 66 60
24 25 28 33 46 49 50 52 50 55 57 60 60 61 61 60 60 61 61 61 62 63 65 64 63 65 66 66 67 69 68 67 67 66 66 70 71 72 72 72 71 70 70 70 69 68 66 64 62
28 31 31 32 33 36 49 42 50 51 53 53 56 60 61 61 60 60 61 61 61 62 65 65 64 64 66 67 66 66 64 64 65 66 66 69 71 72 73 72 71 71 71 70 69 69 67 63 59
30 33 32 33 32 33 42 43 47 50 51 52 54 57 60 61 61 61 61 61 61 61 64 65 65 65 65 68 66 66 64 65 67 66 65 65 71 71 73 72 71 71 71 71 70 70 68 67 63
36 32 32 31 30 28 30 40 35 48 50 50 53 55 56 59 60 61 61 61 61 62 62 64 65 66 66 68 67 66 65 66 66 66 65 65 67 71 72 73 72 71 71 70 70 70 69 69 66
34 28 28 25 25 26 27 30 30 46 48 50 50 53 55 56 57 59 60 61 62 62 62 64 64 66 67 68 68 67 66 66 66 66 66 65 66 69 71 73 72 71 71 71 71 70 70 69 69
31 31 27 23 23 25 26 26 28 39 49 50 51 52 52 54 56 57 58 60 61 62 62 63 65 65 67 68 68 68 67 67 66 66 65 65 66 68 70 71 73 71 72 71 71 70 70 70 69
29 30 30 25 28 19 24 27 29 32 38 48 50 49 49 53 54 56 57 58 59 62 62 63 64 65 67 67 68 68 68 67 67 66 66 65 66 69 70 71 72 72 72 72 71 71 70 70 70
28 29 27 25 25 22 22 21 25 28 28 47 49 49 49 50 53 56 55 57 59 61 62 63 63 65 66 67 68 68 68 68 67 67 66 65 66 68 70 71 71 73 72 72 72 71 71 71 71
28 28 26 27 25 24 22 24 23 26 29 30 42 48 49 50 51 55 55 56 58 59 62 63 63 63 64 67 67 67 68 68 68 67 67 67 67 66 67 71 71 71 73 72 71 71 72 71 71
34 28 30 26 24 20 21 24 23 23 26 28 28 35 43 50 51 54 55 55 57 58 60 62 63 63 63 66 67 67 67 68 69 70 67 67 67 68 69 69 71 71 71 73 72 71 71 71 71

GFSSGP_sfc_dewp_066.txt.gz
Dewpoint
71 71 70 69 59 58 55 57 61 59 57 57 57 56 57 60 57 53 65 67 70 71 73 73 75 74 74 75 75 75 75 75 75 75 75 75 74 75 74 74 73 72 74 73 73 71 70 71 71
71 70 69 66 57 48 53 58 59 60 60 57 60 59 60 59 62 64 65 68 70 72 74 73 76 75 75 75 75 75 75 75 75 75 75 74 75 74 74 74 73 73 73 73 72 72 71 71 71
70 69 66 62 56 51 53 57 59 60 58 58 61 62 61 60 63 64 66 70 72 73 73 73 75 75 75 75 75 75 75 75 74 74 74 75 74 74 74 74 74 74 73 73 73 72 72 71 72
68 68 66 58 55 56 57 59 60 60 61 61 60 59 62 64 63 65 69 71 72 73 74 74 74 74 74 74 75 74 73 74 73 73 73 73 74 74 74 74 74 73 73 73 73 72 71 71 71
67 66 58 54 55 58 59 60 61 59 61 60 60 59 60 63 66 69 71 72 72 73 74 73 75 74 75 74 74 74 74 75 75 74 74 74 74 73 73 73 73 73 73 73 73 72 72 71 71
65 64 54 52 55 56 60 62 61 60 61 59 59 59 61 65 67 69 72 72 73 73 73 73 74 74 75 75 74 74 74 74 75 75 74 74 74 74 74 74 73 73 73 73 73 73 72 72 71
64 59 54 55 54 56 58 61 60 60 60 58 59 58 62 65 66 70 72 73 73 73 73 72 72 73 75 74 75 74 74 75 75 75 75 74 74 74 74 74 73 73 73 73 73 72 73 72 72
65 60 55 56 52 53 57 59 61 60 59 60 60 58 59 64 68 71 72 72 73 73 73 72 73 73 74 73 75 74 74 74 74 74 74 74 74 74 74 74 74 72 73 73 73 73 72 73 73
64 58 53 53 55 54 59 59 60 62 60 60 59 60 61 64 70 70 69 71 72 72 72 72 72 73 73 73 73 74 75 74 74 73 73 74 73 73 73 72 72 72 73 72 73 73 73 73 72
61 57 55 55 56 54 57 59 60 60 60 58 59 61 63 66 68 66 66 66 68 70 71 71 72 73 73 73 73 73 73 73 73 73 74 73 73 73 72 73 73 72 73 73 73 73 73 71 72
60 58 59 57 57 56 57 59 60 59 59 58 59 61 63 65 66 64 65 65 66 69 71 71 71 72 72 73 73 72 73 73 73 73 73 73 73 73 73 73 74 73 70 68 70 69 71 71 72
54 56 59 59 57 55 54 59 59 60 60 60 60 61 63 65 64 64 65 66 67 68 70 71 71 71 71 71 72 72 72 72 72 73 71 71 72 72 72 73 72 73 73 71 72 72 71 70 71
51 50 52 57 56 55 54 57 59 59 60 59 60 61 62 65 65 66 67 67 69 69 70 71 71 71 71 70 71 71 71 72 72 72 69 72 72 72 73 72 72 72 72 72 71 71 72 71 71
40 45 45 46 47 51 52 57 58 61 58 58 60 61 63 64 66 66 67 67 68 68 69 71 71 70 70 69 70 70 71 71 71 72 72 70 72 71 72 72 72 71 71 71 71 71 72 71 71
34 32 31 33 43 53 57 56 58 60 57 59 60 62 63 64 65 65 67 67 67 68 68 69 70 70 69 69 69 69 70 70 70 71 72 72 71 71 72 72 71 72 72 72 71 72 72 71 67
29 30 30 33 34 53 52 48 60 60 57 58 61 61 62 63 64 65 66 66 67 67 67 68 69 69 69 68 68 68 69 70 70 70 72 73 72 71 72 72 71 72 73 72 71 72 70 68 68
23 29 30 32 40 53 52 51 60 61 59 57 59 60 61 62 64 64 65 66 66 66 66 66 68 68 68 68 68 68 69 70 69 70 72 72 72 72 72 72 72 73 72 72 72 70 69 68 69
22 26 32 34 38 52 52 52 59 60 60 59 59 59 60 61 63 64 64 65 65 66 66 66 66 68 68 68 69 69 70 70 68 70 71 72 72 73 72 72 71 72 72 71 71 71 70 68 63
25 33 34 35 35 50 50 51 59 60 60 60 60 60 60 60 62 63 64 64 64 65 65 65 65 67 68 68 68 68 68 69 69 69 71 71 72 73 72 72 71 71 72 71 71 69 69 66 63
23 24 23 30 36 46 46 49 57 59 59 60 60 60 60 60 61 63 63 62 62 63 64 65 65 67 68 68 68 68 68 69 70 69 70 71 72 74 72 72 71 70 71 71 71 70 69 68 63
19 21 23 32 38 49 50 50 53 59 60 60 60 60 60 60 61 62 62 62 62 62 63 64 65 66 68 68 69 69 68 68 68 68 68 70 71 73 73 72 72 71 71 71 71 71 69 67 65
18 22 22 29 32 38 49 42 50 53 59 60 60 59 60 60 61 61 62 62 62 63 63 64 65 66 68 68 68 68 67 66 67 68 68 69 71 72 73 73 72 72 72 72 71 71 70 68 65
19 26 26 30 32 32 39 39 40 50 53 57 59 60 60 60 61 61 61 62 63 63 64 64 65 65 67 68 68 67 67 66 67 67 68 68 71 72 73 73 73 72 72 72 72 71 70 68 65
34 32 32 32 32 30 31 42 41 48 50 52 55 59 60 61 61 61 62 62 62 63 64 65 66 65 66 67 68 67 67 67 67 67 66 67 68 71 72 73 73 73 72 72 72 72 71 71 69
34 31 29 27 27 28 31 31 35 42 50 50 52 54 57 60 61 61 61 61 62 62 63 64 66 66 66 67 67 67 67 67 67 67 66 66 66 68 71 73 73 73 73 72 73 72 72 71 71
32 31 30 26 24 26 29 29 31 34 37 50 51 52 54 58 61 61 62 61 62 62 63 64 65 66 67 67 67 68 68 67 67 68 67 67 66 68 70 71 73 73 73 73 73 72 71 72 71
29 30 32 27 28 22 26 27 30 33 34 47 50 52 54 56 58 60 61 62 62 62 63 64 65 65 67 67 68 68 68 68 67 68 68 68 68 68 69 71 72 73 73 73 73 72 72 72 71
29 30 28 27 28 25 24 23 28 31 30 34 49 50 52 54 56 57 59 61 62 62 63 64 65 65 66 67 67 68 68 68 68 68 68 68 68 68 70 71 71 73 73 73 73 73 72 72 72
30 25 27 29 28 27 25 27 27 32 33 31 41 49 51 52 53 55 57 59 60 62 63 63 64 65 65 67 67 68 68 68 68 68 68 68 68 68 69 71 71 72 73 73 73 73 73 72 72
34 32 29 26 26 23 27 27 30 28 28 32 34 52 51 51 51 53 55 58 58 60 62 63 63 64 65 67 67 68 68 69 68 68 68 68 68 68 68 69 71 72 72 73 73 72 72 72 72

GFSSGP_sfc_dewp_069.txt.gz
Dewpoint
69 70 70 69 61 58 55 57 60 58 56 56 56 56 56 59 56 54 65 67 69 68 71 72 75 75 75 75 75 76 75 75 75 75 75 74 75 74 75 74 72 74 73 73 71 71 71 72 71
69 70 69 66 57 53 54 58 58 59 57 57 59 59 58 59 62 64 66 68 68 68 70 71 75 76 75 75 75 75 75 75 75 75 74 74 74 74 74 73 73 73 73 72 71 70 71 71 73
69 69 66 62 58 53 52 56 59 59 57 57 61 61 60 61 63 64 66 68 68 70 71 73 76 76 75 75 75 75 75 75 74 74 74 75 74 74 74 73 74 74 73 73 73 72 71 72 72
68 68 66 59 54 56 56 58 60 59 58 60 60 59 61 63 63 64 67 68 68 69 70 74 75 75 75 75 75 74 74 73 73 73 74 74 74 74 74 74 74 73 73 73 72 72 72 71 71
67 66 59 55 55 57 58 60 60 58 60 60 59 59 60 64 65 67 67 68 68 67 69 71 76 75 74 75 74 74 75 74 74 74 73 74 74 74 74 74 74 73 72 73 72 72 71 71 72
65 64 56 53 54 56 59 61 60 60 61 60 59 59 60 65 66 67 67 67 68 68 68 70 74 76 76 74 74 74 75 74 74 75 74 74 74 74 74 74 73 73 73 73 73 72 72 71 71
64 60 55 54 53 55 57 61 60 60 60 59 60 58 62 64 66 68 67 68 68 69 69 70 70 73 75 74 74 74 74 75 74 75 74 75 74 74 74 74 74 73 73 73 72 72 72 72 72
65 62 54 55 52 52 58 59 60 60 59 60 59 58 59 65 67 68 68 68 68 70 70 71 72 71 74 73 74 74 75 75 74 74 74 74 74 74 74 73 74 73 73 73 72 72 72 72 73
65 59 53 51 53 54 58 58 60 61 59 59 59 59 60 65 68 67 68 69 70 70 69 68 70 72 73 73 72 74 74 74 74 74 75 73 72 73 71 73 73 73 73 72 73 72 71 72 73
61 58 55 54 55 54 57 58 60 60 59 59 59 60 63 65 66 65 66 67 67 68 68 67 69 70 72 70 73 73 72 71 73 73 74 72 73 73 71 72 72 73 73 73 73 72 72 71 68
58 57 58 56 56 55 57 59 60 59 59 59 59 61 63 64 65 65 65 65 65 66 66 67 72 72 72 71 72 72 72 72 73 75 75 74 73 74 71 72 73 74 70 68 69 69 69 69 70
56 58 59 57 57 56 56 58 58 59 58 60 60 61 62 63 63 63 64 65 66 68 67 70 72 73 73 72 71 71 71 71 71 72 74 74 73 74 74 76 72 75 73 72 72 70 72 71 72
52 53 52 56 54 52 54 56 56 59 61 60 61 61 62 62 63 64 64 65 67 67 68 70 72 73 74 74 72 71 71 70 70 72 73 73 73 74 74 76 71 73 73 72 73 72 70 71 71
41 46 48 48 44 49 49 53 58 60 60 60 61 61 61 62 62 64 64 64 66 68 68 70 71 72 73 73 74 71 71 71 71 72 71 72 74 74 73 75 71 71 72 72 73 74 73 72 71
40 38 37 37 39 42 52 54 55 60 60 60 60 61 61 62 63 64 64 64 67 68 68 69 70 71 73 73 71 71 70 69 70 71 73 73 74 74 75 76 77 72 73 74 73 74 73 69 68
25 30 36 39 40 41 53 49 61 59 59 59 60 60 61 62 63 65 65 65 67 67 69 69 66 68 72 71 71 69 69 69 70 71 72 74 74 75 74 73 75 73 74 72 72 74 70 68 67
28 14 30 37 37 45 53 50 60 59 59 59 60 60 60 62 63 64 65 66 66 67 68 69 68 67 69 71 70 70 71 69 70 70 70 73 74 74 74 73 74 76 74 73 72 71 70 69 69
19 19 30 36 39 45 51 51 59 59 59 60 60 60 61 61 62 64 65 66 66 67 68 69 68 69 71 69 71 69 69 69 70 71 71 73 73 74 74 73 75 76 77 72 71 72 71 68 65
26 27 24 35 40 41 44 50 57 60 58 59 59 60 60 60 62 64 65 65 66 67 67 68 69 71 71 68 67 68 68 69 71 71 73 74 74 75 75 73 74 73 73 72 73 71 71 65 66
23 26 29 32 34 41 41 43 53 60 60 59 58 60 60 60 62 64 65 65 65 67 67 68 69 70 71 68 69 69 70 69 71 71 73 74 74 75 75 74 73 74 74 75 74 72 69 68 65
20 21 27 27 32 37 44 44 51 58 60 60 60 60 60 60 61 63 64 65 65 66 67 68 69 70 71 71 70 71 71 71 70 70 70 72 74 74 75 75 75 74 73 76 75 74 71 66 65
19 21 24 26 27 33 45 38 50 54 58 59 60 60 60 60 61 61 62 64 64 65 67 69 70 71 70 72 71 72 68 67 67 70 70 71 73 73 74 75 75 75 72 76 75 73 71 71 66
17 18 18 21 25 28 31 42 41 52 54 57 58 59 60 60 61 61 62 63 64 65 65 67 69 71 72 72 72 70 71 69 69 69 72 73 74 73 72 74 75 76 75 75 74 75 75 71 69
20 26 21 19 18 23 29 32 38 43 49 53 57 59 59 60 61 62 62 63 64 64 65 65 69 71 72 72 72 73 73 71 68 69 68 68 69 71 74 74 75 75 77 75 75 76 75 74 71
26 23 25 22 19 20 29 30 35 39 47 46 53 58 60 60 60 61 62 62 64 65 65 66 69 70 71 71 71 72 73 73 72 71 68 69 67 68 72 75 75 74 76 76 75 75 75 74 72
29 28 20 22 17 15 29 31 34 37 39 47 50 53 57 60 61 62 63 64 64 65 67 68 69 70 70 71 72 73 73 69 69 71 68 67 66 66 72 73 74 75 75 75 76 74 73 74 73
29 29 27 25 27 21 22 31 34 35 36 37 40 49 53 56 60 62 62 63 64 66 67 68 69 71 71 70 72 72 73 72 70 73 72 68 71 67 70 72 73 73 74 75 76 73 74 74 74
30 30 29 29 23 24 24 27 28 36 35 36 40 44 48 53 56 60 62 63 64 65 66 67 69 70 71 70 71 71 72 73 72 72 72 73 71 71 70 71 72 72 73 74 76 74 75 75 73
29 27 28 29 28 23 24 24 31 34 38 37 36 44 48 52 55 57 62 64 65 64 65 66 67 69 70 70 71 71 71 71 72 71 71 72 72 72 72 72 73 73 73 74 75 75 74 74 75
30 29 29 26 31 30 26 25 31 34 33 34 37 38 45 51 54 57 60 63 63 65 64 65 66 66 68 69 71 71 72 72 70 71 71 71 72 72 72 72 72 72 72 73 74 73 72 74 74

GFSSGP_sfc_dewp_072.txt.gz
Dewpoint
70 68 68 70 62 57 55 56 59 57 54 55 55 54 55 57 56 58 65 66 66 67 69 72 76 75 75 75 75 75 75 75 75 74 74 75 75 74 74 73 73 73 73 71 71 72 72 72 72
68 68 69 66 59 54 52 59 57 58 55 56 56 57 56 57 60 63 64 66 67 67 68 69 76 76 75 76 75 75 75 75 75 75 74 75 75 74 73 73 74 74 72 71 71 71 72 73 72
68 67 66 63 59 54 52 57 58 58 56 58 59 60 59 60 62 63 65 66 67 67 67 72 76 76 75 75 75 75 75 75 75 74 74 74 73 73 73 73 73 73 73 73 72 71 72 73 73
66 69 66 60 54 55 54 58 58 56 57 57 58 58 61 63 62 63 66 66 66 66 66 73 75 75 75 75 75 75 75 75 75 74 75 74 74 74 74 74 73 73 73 72 72 72 72 71 71
66 67 60 56 54 55 56 58 59 56 57 58 58 59 61 62 64 65 66 65 64 63 67 70 76 76 75 75 74 74 73 74 73 74 75 74 74 74 74 74 73 72 73 72 71 71 72 71 71
64 63 56 53 54 55 57 60 59 58 59 58 58 59 61 64 64 64 65 64 61 62 64 69 75 76 75 74 75 75 75 75 75 75 74 74 74 74 74 74 73 72 72 72 72 71 71 71 72
63 61 55 54 54 54 56 60 58 59 59 58 59 59 62 63 64 64 64 62 60 61 64 68 70 73 74 74 74 74 75 75 75 74 75 74 74 74 74 74 73 73 73 72 72 71 71 71 71
63 61 52 53 52 53 57 57 59 59 58 60 60 58 60 63 64 62 62 61 60 62 65 67 70 71 71 71 74 75 75 75 75 75 74 75 74 74 74 74 74 73 72 72 72 72 72 72 73
62 59 52 50 52 53 58 58 59 60 59 59 59 59 61 65 65 62 61 61 62 62 64 64 66 70 70 69 73 74 75 75 75 74 74 75 69 70 71 73 73 73 72 72 72 71 71 73 73
56 55 53 52 53 53 56 57 59 58 58 58 58 59 63 66 64 62 60 59 61 62 63 62 64 68 68 66 71 71 70 69 70 71 73 69 71 71 69 72 72 73 73 73 72 72 71 73 66
52 53 55 54 55 55 55 57 58 57 57 58 58 60 63 64 64 62 61 61 62 63 61 61 66 69 67 69 68 68 68 69 71 73 72 71 70 70 68 69 68 69 71 67 69 69 67 68 68
47 51 56 54 55 54 55 56 56 57 57 59 60 61 62 62 62 61 61 62 62 63 62 64 68 70 69 68 67 67 66 67 67 70 73 72 69 71 70 68 69 72 70 70 70 68 70 70 69
44 47 51 54 55 53 54 55 55 56 59 59 60 60 61 61 61 61 61 61 62 62 62 65 69 71 71 71 68 66 67 67 67 70 71 71 71 72 71 72 70 71 70 69 70 69 69 70 68
32 38 44 49 50 51 52 52 55 57 60 60 60 60 60 60 61 61 61 62 62 63 63 66 68 71 71 71 72 70 69 70 69 69 70 73 72 76 70 70 70 70 69 68 69 70 69 69 68
28 31 33 37 47 46 50 49 53 60 60 60 60 60 59 60 61 61 61 62 63 63 64 66 67 69 71 71 71 69 69 68 68 69 74 73 73 75 73 70 70 69 71 73 71 70 70 65 65
19 24 26 32 44 46 50 47 56 59 59 59 60 59 60 60 60 62 61 62 62 63 65 66 64 65 70 71 70 68 68 67 68 69 70 73 74 75 74 70 71 75 72 69 68 67 66 63 66
16 11 19 38 44 46 50 49 59 59 58 59 60 59 59 60 61 62 62 62 62 64 66 66 66 64 69 71 69 69 70 69 68 69 70 73 74 74 73 72 70 72 70 66 65 65 67 65 62
11 10 12 34 43 47 49 50 57 58 58 59 59 60 60 60 60 62 62 62 62 64 66 67 66 67 70 68 69 67 67 68 68 69 69 73 73 74 74 73 71 71 67 66 66 68 67 65 62
17 13 14 26 41 45 46 49 55 58 57 58 58 59 59 59 61 62 63 62 61 64 66 67 67 69 68 66 65 66 66 68 68 70 72 74 74 74 75 71 71 71 71 70 71 70 69 63 66
17 20 19 25 37 43 44 45 49 57 57 58 58 60 58 59 60 62 63 63 62 64 66 67 68 70 70 65 66 66 67 67 68 69 72 73 73 75 73 74 73 74 70 71 71 72 65 63 64
19 17 18 21 32 40 43 44 44 50 56 56 58 59 59 59 59 61 63 63 63 63 66 67 69 70 70 70 67 69 70 70 69 69 69 71 73 73 74 73 73 74 77 68 71 70 70 62 64
16 16 16 21 28 32 40 36 44 45 53 55 57 58 58 58 59 60 61 62 63 63 65 68 69 70 70 71 71 74 67 66 64 67 67 68 72 72 73 73 72 74 73 72 70 69 70 70 61
18 16 17 16 22 28 37 38 38 45 49 53 55 57 57 58 58 59 61 63 63 64 64 66 69 71 71 73 73 70 71 64 64 65 71 74 73 73 71 73 75 75 71 72 73 71 73 69 66
20 17 18 17 13 19 29 33 35 44 48 52 54 56 57 57 59 60 60 62 63 64 64 65 69 72 72 71 71 73 73 71 66 68 66 67 67 69 73 72 74 74 72 73 72 75 73 73 70
22 16 18 13 9 7 18 26 34 37 46 48 51 55 57 58 59 60 61 61 63 64 64 65 71 73 72 71 70 72 73 73 72 71 68 69 64 64 70 74 74 72 75 74 74 74 74 72 71
24 23 15 20 9 5 12 19 27 36 39 44 45 48 54 56 59 60 62 62 63 64 65 66 71 73 72 71 73 75 75 68 69 71 67 66 64 64 69 72 73 73 73 74 75 74 71 74 71
27 24 23 16 20 18 9 16 27 32 35 41 41 45 48 54 56 58 60 62 63 64 67 68 71 74 73 70 74 75 75 74 70 75 72 68 71 66 69 70 72 72 73 74 75 71 73 74 75
29 28 24 24 24 23 19 19 17 30 37 38 39 39 43 47 53 56 59 61 63 64 65 67 70 73 72 71 71 71 72 73 73 72 73 73 71 71 70 70 70 71 72 73 75 72 73 75 72
27 28 28 25 25 23 20 18 24 29 34 36 36 38 39 40 45 53 58 60 63 64 64 66 67 69 70 71 72 73 71 71 72 70 71 73 73 73 73 72 71 70 71 73 75 74 72 73 75
28 29 26 26 30 28 25 19 27 28 29 35 36 37 37 41 45 50 56 61 62 63 64 65 66 67 68 71 73 72 73 73 70 71 71 72 73 74 74 73 73 71 71 73 74 73 70 73 73

GFSSGP_sfc_dewp_075.txt.gz
Dewpoint
70 67 68 70 62 61 56 56 58 53 53 53 53 52 56 57 58 59 65 65 66 66 68 70 76 75 75 75 75 75 74 74 74 74 74 74 74 75 74 73 74 73 71 71 72 72 72 72 73
66 66 69 66 60 55 54 58 56 55 54 55 54 54 55 57 60 63 64 65 66 66 67 69 76 76 75 76 75 75 75 75 75 74 74 74 75 74 72 74 74 73 72 71 71 72 73 72 73
68 66 66 64 59 54 53 55 56 55 54 56 57 56 59 59 61 63 64 65 66 67 68 73 76 76 75 75 76 76 75 75 74 74 74 74 74 72 73 73 74 73 73 72 71 72 73 73 73
66 68 65 60 53 53 55 57 55 54 56 57 57 57 61 62 61 63 64 65 64 65 66 75 76 75 75 75 75 75 75 74 74 74 74 74 73 73 74 73 73 73 73 73 72 72 72 71 71
65 67 60 57 55 54 56 57 56 55 55 55 57 59 60 61 62 63 65 65 63 61 66 71 76 76 75 75 75 74 74 74 74 74 74 74 74 74 74 73 72 73 73 72 72 72 72 72 72
64 64 58 55 54 55 57 57 55 55 57 56 58 60 61 63 62 62 64 65 59 61 63 70 74 76 75 74 74 74 74 74 75 75 74 74 74 73 74 73 72 72 72 72 72 72 72 72 72
63 62 56 52 53 54 55 59 55 57 56 55 58 60 61 61 62 62 62 60 59 59 64 69 70 74 74 75 75 75 75 75 75 75 74 74 74 74 74 73 73 72 72 72 72 71 71 72 73
60 61 57 53 51 55 54 57 57 55 57 58 60 59 60 61 63 62 60 57 57 60 64 68 69 69 70 73 74 75 75 75 75 75 75 74 74 74 74 75 73 72 72 72 72 71 72 72 73
55 55 54 52 50 56 56 57 59 65 57 58 58 59 61 61 62 61 58 57 58 60 63 64 66 67 70 70 73 75 75 75 75 74 75 74 68 71 72 74 73 72 72 72 71 72 72 73 73
52 48 55 56 57 61 54 55 58 55 55 57 57 59 61 61 61 59 56 55 56 60 61 61 64 65 70 66 73 72 71 70 71 71 74 74 74 73 68 72 73 72 72 72 72 72 72 72 67
49 48 62 59 53 56 55 57 57 53 53 56 57 61 61 60 60 57 56 57 57 60 59 60 64 65 67 68 68 66 70 68 70 72 73 69 68 70 70 69 69 70 73 68 69 69 72 72 70
45 47 48 57 53 54 57 57 52 58 64 57 59 62 61 60 59 57 56 57 58 60 60 61 65 68 69 65 64 64 64 67 66 69 74 70 74 74 72 71 68 71 73 70 72 70 68 69 70
39 43 45 54 54 54 55 55 56 55 56 57 60 61 61 60 59 58 57 57 59 60 61 63 66 69 70 70 66 64 65 63 66 68 70 68 73 70 73 73 73 73 72 68 71 69 71 68 65
34 38 42 48 50 52 52 53 52 55 57 58 59 60 60 59 59 59 59 59 60 60 61 63 66 69 70 70 71 68 65 71 64 67 70 73 76 71 73 71 73 71 73 71 73 70 71 68 68
29 29 32 39 45 47 51 51 51 57 57 58 58 59 59 59 59 59 59 60 60 59 61 64 66 68 70 71 70 68 71 64 69 74 73 73 75 73 73 73 73 73 71 72 71 70 69 69 68
23 24 26 30 35 42 47 47 51 57 57 57 58 58 59 59 59 60 59 60 60 59 62 65 62 66 69 71 70 67 66 70 72 73 71 73 73 73 73 70 70 70 73 72 72 67 69 67 67
14 14 21 26 30 39 45 48 61 56 56 57 58 57 58 59 60 60 60 61 60 60 63 64 64 64 68 71 70 69 71 71 71 72 72 72 75 73 72 70 71 73 70 72 66 69 69 66 67
9 9 14 24 32 40 43 49 62 60 55 57 58 58 58 58 59 60 60 60 59 60 63 65 64 69 72 70 71 68 68 67 70 69 72 72 72 73 73 70 72 71 72 71 72 72 68 67 65
11 9 10 18 34 40 42 46 59 55 54 56 57 58 57 58 59 61 60 60 59 60 64 66 68 73 69 67 66 66 64 67 66 66 71 73 72 72 73 72 72 70 68 71 70 69 68 60 62
14 14 12 12 19 38 41 43 51 53 54 55 56 58 57 58 59 61 61 61 60 61 64 68 70 73 71 67 68 67 68 65 65 66 71 72 72 73 72 75 72 71 69 72 70 72 71 64 64
17 16 16 16 19 29 39 41 49 60 57 55 55 58 57 57 58 60 61 61 61 61 64 68 72 73 72 71 69 69 69 69 65 69 68 70 71 72 72 73 74 73 72 70 72 71 72 68 60
17 16 15 14 16 27 36 34 41 56 61 53 54 56 56 55 59 59 61 61 61 61 63 69 71 73 72 74 69 73 67 64 64 66 66 69 71 71 72 72 73 74 69 73 71 70 73 71 62
20 17 15 14 16 21 28 31 32 43 48 50 52 54 56 55 56 58 60 62 62 61 62 65 71 73 73 73 73 69 71 65 64 63 74 77 76 72 69 73 73 74 71 73 72 73 74 67 67
23 19 18 16 12 12 23 27 31 36 43 49 51 52 55 55 56 58 60 61 62 62 61 63 71 74 74 74 73 75 73 71 63 66 67 67 68 70 72 71 73 75 73 73 73 74 74 75 72
25 21 17 14 12 10 11 19 34 34 43 45 49 52 54 55 56 57 59 60 62 63 64 64 71 74 74 73 72 73 75 75 74 73 65 68 63 63 74 75 75 73 75 74 75 76 74 73 71
25 20 18 20 11 6 10 14 24 33 41 48 49 51 53 55 56 57 59 60 62 64 67 67 71 73 74 73 73 74 75 67 66 72 66 63 62 63 76 74 73 73 74 73 75 72 71 75 72
23 22 20 16 15 11 7 12 15 24 31 45 49 49 52 54 55 57 58 59 61 64 68 69 71 74 74 72 74 74 74 73 68 74 75 68 72 64 68 69 73 73 73 74 78 71 73 74 74
25 25 21 21 22 19 16 16 10 21 28 34 39 44 47 52 53 55 58 60 61 62 64 68 71 73 74 72 73 73 73 74 74 75 76 74 74 73 70 71 70 72 73 74 78 73 75 75 72
25 25 27 23 22 20 18 19 23 22 29 32 34 41 43 45 50 52 55 58 61 62 63 65 68 72 73 72 73 73 73 73 74 72 74 75 75 76 75 73 72 72 72 74 77 77 75 76 76
20 24 24 26 29 24 22 20 23 22 22 30 36 38 40 41 45 48 52 56 59 62 62 64 65 66 70 72 73 73 74 74 73 73 73 75 76 77 77 76 75 73 72 75 75 73 72 72 73

GFSSGP_sfc_dewp_078.txt.gz
Dewpoint
70 67 68 70 62 61 56 56 57 54 52 53 54 56 59 61 57 57 64 65 66 66 70 71 75 75 75 75 75 76 75 75 75 74 74 74 75 74 73 74 74 72 72 73 73 73 73 73 74
66 65 69 67 59 55 55 56 54 53 53 54 55 56 57 58 61 62 64 66 65 66 68 70 76 76 75 75 76 76 75 74 74 75 75 75 74 73 74 74 73 72 72 72 73 73 73 74 74
70 67 66 63 59 55 55 54 53 54 54 53 58 59 58 59 62 63 64 65 65 67 69 73 77 77 76 75 76 76 75 75 75 74 74 75 73 74 73 74 73 74 72 72 73 73 73 73 73
67 68 67 60 55 58 55 56 54 54 57 57 57 57 60 62 62 63 64 64 64 66 70 75 77 76 76 75 76 75 75 75 75 74 74 74 73 74 74 74 73 73 73 73 73 72 72 72 72
64 67 60 58 56 57 56 55 53 53 56 57 59 58 59 62 63 64 65 64 64 65 69 72 77 77 76 76 75 75 75 75 75 75 75 74 74 74 73 73 73 73 73 73 72 72 72 72 72
63 65 58 55 55 52 54 56 55 54 56 58 58 58 59 63 64 63 63 63 63 64 66 71 75 76 76 74 74 74 74 75 75 75 75 75 74 74 73 72 72 73 72 72 72 72 72 72 72
58 62 57 56 54 54 55 56 54 56 56 57 59 59 60 61 64 63 61 61 60 62 68 72 72 74 75 75 75 75 74 75 75 74 74 74 74 74 74 73 73 72 72 72 72 72 72 72 72
55 58 58 56 54 58 57 56 59 61 57 59 60 58 58 61 64 63 62 59 58 63 67 71 73 71 73 73 75 75 75 75 75 74 75 75 74 74 74 75 74 73 72 72 72 72 73 73 73
54 51 53 56 57 60 58 57 62 61 60 61 60 60 60 61 61 62 62 57 62 61 65 65 67 70 73 73 73 75 75 75 75 74 75 75 73 73 72 75 74 73 72 72 72 72 72 72 73
51 49 55 60 61 60 60 56 53 60 60 57 58 60 61 61 60 60 55 56 58 62 63 63 64 66 71 68 74 74 73 72 74 74 75 74 74 76 69 73 74 73 73 72 72 72 70 72 73
49 47 55 60 62 60 58 54 59 60 57 56 59 60 60 60 60 59 54 56 60 61 61 63 68 70 68 72 73 73 71 73 74 75 75 75 74 72 72 73 71 72 73 70 71 71 71 71 73
44 46 53 57 61 62 59 59 60 57 60 61 59 60 60 59 59 55 54 55 60 61 61 64 68 72 73 71 71 69 71 72 69 73 77 73 74 72 72 74 74 74 72 72 73 72 72 73 72
40 42 43 54 56 57 56 59 61 55 59 61 60 59 59 59 58 56 55 55 60 61 62 66 69 71 71 76 71 68 69 68 70 72 73 73 73 74 74 75 72 73 73 73 71 72 71 71 69
35 36 37 48 56 53 56 59 61 63 59 60 60 59 58 57 57 57 56 57 60 61 63 66 68 72 74 74 76 73 73 71 71 71 73 74 75 75 75 74 73 73 73 73 73 71 72 71 72
27 30 30 38 43 48 51 50 55 62 57 58 59 59 59 58 57 57 58 59 61 61 64 66 67 70 74 74 75 76 68 71 72 74 75 74 73 77 75 75 75 72 73 75 74 72 72 71 66
21 23 27 29 34 43 47 47 54 56 60 57 59 59 59 59 58 59 59 60 61 61 65 67 63 68 72 76 75 74 69 75 72 72 74 72 74 78 75 75 75 76 72 74 73 71 70 71 66
19 16 21 25 31 35 41 47 62 64 59 56 57 58 58 59 60 60 59 60 61 63 66 66 68 68 71 75 73 74 73 74 75 71 73 77 76 76 78 73 76 78 75 75 73 68 68 71 69
16 12 13 20 27 30 32 51 58 60 58 60 56 57 59 59 59 60 59 60 59 62 66 69 68 72 73 73 75 73 73 72 73 73 73 76 77 76 77 76 76 77 74 73 70 71 72 67 68
18 13 8 12 20 26 31 50 53 55 54 59 59 56 57 58 59 60 60 61 60 61 66 70 70 73 72 71 70 71 71 73 72 72 76 76 76 76 77 77 76 76 69 72 75 75 73 71 66
21 16 12 10 10 22 36 50 53 54 52 58 59 56 56 58 59 61 61 61 61 62 66 69 71 73 72 72 72 73 73 72 74 74 76 75 76 77 76 74 76 76 74 76 73 72 71 72 70
19 16 14 13 13 14 29 50 51 53 54 58 59 56 56 58 59 60 61 61 61 63 67 68 72 73 72 73 72 74 74 74 73 74 73 75 75 76 74 77 77 77 77 74 76 75 73 72 69
17 16 14 14 14 13 18 21 54 57 60 57 58 58 54 55 60 59 59 61 61 63 66 69 72 73 72 75 72 74 70 70 72 71 73 74 76 76 76 77 77 78 76 75 75 74 71 72 70
19 18 16 14 14 14 15 24 30 55 52 51 57 59 54 52 58 59 60 61 61 63 65 68 71 73 71 72 74 72 72 69 73 72 74 75 78 77 74 76 77 78 76 76 76 76 74 71 72
21 19 20 17 12 12 16 16 26 51 48 46 50 57 56 52 55 58 61 61 62 62 64 67 70 72 72 72 73 74 72 74 72 73 71 72 73 75 77 76 78 78 75 77 76 77 76 77 76
24 19 18 17 13 10 11 13 26 37 53 51 50 55 55 54 55 57 59 61 63 63 63 66 70 71 72 72 71 74 72 73 76 73 71 70 70 71 75 78 78 77 77 77 78 78 78 77 76
23 22 20 21 13 10 14 14 15 24 29 52 55 51 55 56 55 57 60 61 63 64 64 65 70 71 71 72 70 72 75 70 71 74 69 72 68 69 74 75 76 77 77 77 78 77 76 77 76
23 23 22 19 18 14 12 16 15 18 26 43 52 56 55 58 56 57 59 61 63 64 66 66 70 71 72 71 72 71 74 74 70 75 77 70 74 73 74 75 76 76 77 77 78 75 76 77 77
23 24 21 22 23 22 16 21 16 23 24 39 47 54 59 61 59 56 58 61 63 64 66 67 69 72 72 71 71 70 70 73 73 71 76 75 77 76 75 75 75 76 77 77 78 75 77 77 75
25 23 23 22 21 20 18 17 23 27 26 27 48 55 60 62 63 58 58 60 62 64 65 67 68 71 72 72 71 71 71 71 71 72 73 74 75 77 77 77 76 76 75 77 77 76 76 75 76
23 26 24 26 29 24 23 20 30 29 19 23 30 49 52 57 65 63 59 60 61 63 64 66 67 69 71 72 72 71 72 71 70 69 74 74 76 78 79 77 77 75 75 76 76 75 72 75 75

GFSSGP_sfc_dewp_081.txt.gz
Dewpoint
71 70 68 69 62 60 57 55 59 54 53 53 56 59 60 62 58 56 66 67 68 70 73 73 76 75 75 76 76 76 75 75 74 74 75 75 74 75 74 73 72 73 73 73 74 73 74 74 75
67 66 69 66 59 54 54 58 56 54 54 57 59 59 59 59 62 63 64 66 69 70 71 72 76 76 75 76 76 76 75 75 75 75 75 75 73 74 74 73 72 72 73 74 73 74 74 74 74
67 67 65 62 59 54 55 55 53 54 56 57 58 59 60 60 63 64 65 66 68 68 71 73 76 77 76 76 76 76 75 75 75 75 75 73 74 74 74 74 73 72 73 73 73 73 73 73 73
67 68 66 59 57 56 59 54 56 56 58 59 59 59 61 63 63 64 65 66 67 71 72 76 77 76 76 76 76 76 75 75 75 74 75 73 74 74 74 73 73 73 73 73 73 72 72 72 72
68 66 60 58 57 57 60 55 56 56 58 59 60 59 60 63 64 64 64 66 69 70 73 75 77 77 76 75 75 75 75 75 75 75 74 74 74 74 74 73 73 73 73 72 73 72 72 72 72
63 64 57 55 57 57 57 58 55 57 59 59 60 60 61 63 63 63 64 67 69 69 73 73 76 77 77 75 75 75 75 75 75 75 75 75 75 74 73 73 73 73 73 73 73 72 72 72 72
60 60 57 56 56 57 55 59 54 57 57 57 59 59 62 62 63 63 63 66 67 69 71 73 74 74 74 75 74 75 75 75 75 75 75 74 74 74 73 73 73 73 73 72 72 72 72 72 72
59 59 56 54 58 57 62 62 61 60 59 60 60 59 60 62 63 63 63 64 66 70 70 72 72 73 73 74 75 75 75 75 75 74 75 75 74 74 74 75 74 73 72 72 72 72 73 72 73
56 52 53 57 56 55 59 63 63 65 63 60 60 61 63 63 62 61 60 63 67 69 70 71 70 72 72 73 74 75 75 75 75 75 75 75 73 72 72 74 75 73 72 72 72 73 73 72 72
53 50 53 60 61 60 63 64 61 61 63 61 60 62 63 63 62 58 59 63 64 66 68 70 68 70 72 71 73 73 73 73 74 74 72 67 71 73 72 73 75 73 73 72 73 72 72 63 68
50 49 58 58 60 59 59 60 62 59 61 61 59 61 61 62 62 60 60 60 62 65 65 66 66 70 69 70 73 73 73 73 74 72 71 71 73 70 72 72 72 72 73 70 71 70 70 69 69
46 48 53 58 59 61 61 62 62 63 62 61 60 60 60 60 61 59 58 59 62 63 63 65 66 68 69 71 72 72 71 72 72 72 72 73 72 66 70 71 72 73 72 70 67 70 71 71 72
44 43 47 57 59 61 63 62 61 60 63 62 60 61 60 59 59 56 58 58 59 63 64 68 70 69 70 71 72 70 70 72 69 72 70 72 72 70 71 72 72 71 72 72 70 71 72 72 70
39 41 39 57 58 59 60 61 60 61 63 61 60 60 59 58 59 54 58 58 58 63 66 67 66 67 67 71 70 68 69 69 69 71 71 72 71 72 73 73 71 71 68 71 71 70 70 70 70
28 28 28 40 49 58 63 57 56 60 63 60 60 60 58 58 59 54 57 58 58 64 66 67 69 70 70 70 69 68 69 72 72 72 72 72 70 72 73 72 71 71 70 71 72 69 70 68 68
29 21 24 28 34 46 59 55 61 63 63 62 58 58 58 58 57 56 58 58 58 64 64 65 67 70 68 70 70 69 69 71 72 73 72 70 67 73 73 73 72 72 72 71 71 69 68 68 65
31 18 19 23 26 34 46 58 63 65 64 61 58 58 58 57 56 57 58 59 60 64 64 63 66 69 68 70 70 70 71 70 72 73 73 71 73 73 74 73 72 73 70 71 70 66 67 67 66
28 18 15 16 23 29 35 58 62 63 63 64 60 58 58 57 57 57 58 58 60 65 64 66 67 68 69 70 69 71 69 71 72 71 70 74 73 72 73 73 72 72 70 70 70 66 68 65 66
27 24 19 16 15 26 33 58 60 61 58 62 63 62 57 57 59 58 58 59 61 64 64 66 67 68 71 70 70 69 68 69 69 72 71 74 74 72 73 73 72 72 66 68 71 71 69 68 65
24 22 22 19 16 20 51 55 56 57 55 59 57 56 61 57 58 62 58 58 61 62 66 66 68 69 70 69 70 69 68 70 70 71 74 73 73 73 72 70 72 70 70 70 68 69 68 68 66
21 21 19 19 16 16 48 51 51 53 55 55 60 60 60 60 57 59 58 57 60 61 65 68 69 69 70 68 70 70 71 69 71 70 72 71 74 73 72 72 72 72 72 70 71 69 68 66 67
18 21 19 16 15 15 18 38 50 51 55 58 59 62 62 63 59 58 59 58 58 63 64 69 70 69 69 69 67 68 68 67 70 72 71 72 72 73 73 72 73 73 72 70 70 71 69 68 66
20 22 20 19 15 14 13 14 48 51 52 55 59 57 61 62 60 58 58 59 59 63 63 68 70 69 68 70 67 68 68 68 69 68 70 72 72 73 73 73 73 73 72 72 72 71 70 69 68
23 20 20 20 18 13 13 15 41 51 50 49 58 59 62 60 58 59 58 59 60 63 64 65 70 68 68 69 71 68 67 68 69 69 70 71 72 73 72 72 74 74 73 72 72 71 71 72 72
23 28 21 18 18 16 14 12 13 53 53 51 55 57 55 58 58 59 58 58 59 61 64 64 68 69 67 67 68 72 68 68 70 70 70 69 70 71 72 73 73 73 72 72 73 73 73 73 72
21 21 22 18 19 17 16 13 15 28 54 52 53 53 52 57 58 59 59 59 60 61 64 66 66 69 68 67 67 69 70 68 70 71 70 69 68 68 70 74 73 73 73 73 74 72 73 73 72
21 21 22 20 20 20 19 19 17 18 29 50 47 52 54 57 54 58 59 59 60 61 62 66 66 67 68 68 66 68 72 67 69 69 70 69 68 70 70 73 74 74 73 73 74 73 73 73 73
23 24 22 21 22 21 21 21 23 18 15 48 52 54 60 62 61 63 63 60 60 61 62 64 67 67 68 68 67 66 68 72 70 68 72 70 67 69 71 71 74 73 73 72 74 72 73 72 71
18 22 22 23 23 19 20 21 23 35 26 42 50 54 59 63 63 63 66 66 63 61 62 63 68 67 68 67 68 66 66 71 71 70 67 72 70 73 73 73 73 73 73 74 73 72 72 73 73
16 12 27 26 25 27 28 24 39 44 47 39 49 52 56 60 63 63 64 64 64 63 63 62 67 68 68 68 68 68 66 68 70 69 69 72 70 72 73 73 73 73 72 72 73 73 72 71 72

GFSSGP_sfc_dewp_084.txt.gz
Dewpoint
72 70 69 69 62 59 55 57 59 55 54 55 54 56 57 61 58 54 65 68 69 68 73 74 76 75 75 76 76 75 76 75 74 75 75 74 75 74 72 72 73 72 73 74 73 74 74 75 75
70 68 68 66 58 53 54 58 56 56 55 57 60 60 59 60 63 64 66 69 69 71 72 74 76 76 76 76 76 75 75 75 74 75 75 74 74 74 72 72 72 73 73 73 73 74 74 74 74
67 66 65 62 57 53 54 57 54 57 59 59 59 61 61 60 63 63 67 70 70 71 72 73 76 76 74 75 75 75 75 74 75 75 73 74 74 74 73 72 72 74 73 74 74 74 73 73 74
66 68 66 59 53 56 58 56 56 58 60 61 61 59 62 63 63 65 69 69 69 71 72 75 75 75 76 76 75 75 75 75 75 75 73 74 74 74 74 73 72 73 73 73 72 73 73 72 72
68 66 59 57 58 58 59 61 58 59 60 60 60 59 61 64 65 67 67 69 71 72 73 75 77 77 76 76 76 75 75 75 75 74 74 74 74 74 74 73 73 72 72 72 72 72 72 72 72
64 64 57 54 56 61 62 63 58 59 60 60 60 60 62 64 65 65 69 70 71 73 74 74 77 77 76 75 75 75 75 75 75 75 75 74 74 73 74 73 73 73 72 72 72 72 72 72 72
61 60 56 54 56 57 60 64 60 59 59 59 61 59 62 63 64 68 69 69 70 74 73 74 74 75 75 75 75 75 75 75 75 75 75 75 74 73 73 73 73 73 72 72 72 72 72 73 73
61 59 56 57 56 55 59 62 62 60 59 61 61 59 59 62 64 68 68 67 71 72 73 74 73 72 72 73 75 75 75 75 75 75 74 75 74 74 74 75 74 72 72 72 72 72 73 73 74
60 55 52 54 55 57 61 62 66 65 61 59 63 62 62 63 65 65 66 68 69 71 72 72 72 72 73 73 73 75 75 75 75 74 74 74 73 72 72 74 73 72 72 72 72 72 73 73 73
57 51 53 59 60 59 60 60 62 62 62 62 63 62 63 62 63 63 65 67 68 70 71 70 71 72 73 73 73 73 74 74 74 74 72 69 71 72 72 73 73 72 72 72 71 71 70 67 70
50 52 60 59 60 60 59 62 61 61 60 62 61 61 62 62 61 62 65 66 67 69 70 69 70 71 71 72 73 73 73 73 73 72 66 70 71 70 72 73 73 72 72 71 70 70 69 69 69
46 49 57 59 59 58 59 63 60 62 63 64 63 62 62 61 59 62 63 65 67 68 69 68 69 71 69 72 72 72 72 72 72 72 71 72 70 67 70 72 72 72 71 68 68 69 70 69 70
45 46 49 57 57 59 61 62 63 62 64 65 63 63 62 61 59 62 62 63 65 65 66 66 68 70 70 72 72 71 71 72 71 72 72 71 71 70 70 71 71 71 71 70 70 69 70 71 70
43 42 43 57 58 60 60 61 60 59 66 63 62 61 61 61 59 60 59 62 64 63 65 66 68 70 70 71 71 71 70 72 71 70 70 72 71 70 67 70 71 70 69 69 70 69 69 70 69
42 31 27 56 59 60 61 59 58 63 65 61 61 60 59 60 60 58 59 59 63 63 66 67 67 68 68 70 70 69 70 70 70 70 70 72 72 70 70 70 70 70 68 69 70 69 69 68 67
34 26 21 42 56 59 57 55 61 64 64 61 61 59 59 59 57 58 58 61 64 66 66 66 66 68 68 69 68 67 70 72 72 72 72 70 71 72 71 70 70 70 69 69 70 68 68 66 65
32 30 25 20 53 59 58 57 61 64 62 60 61 60 58 58 57 57 58 61 65 65 66 66 68 67 69 68 70 69 71 71 73 72 71 67 72 73 73 72 70 71 70 70 70 68 67 66 64
30 28 19 18 18 57 55 58 59 62 63 61 60 60 59 57 59 57 57 62 64 65 66 66 68 67 70 68 69 70 69 71 72 71 71 72 73 73 73 71 72 72 70 70 69 65 66 65 65
29 27 26 26 24 19 50 59 59 59 62 60 61 60 60 58 59 57 57 61 64 64 64 66 67 67 70 68 67 69 67 70 70 70 71 73 72 72 73 72 72 70 69 69 69 68 66 67 65
30 27 24 23 24 20 56 59 60 60 62 58 58 61 60 58 59 57 57 61 63 63 64 66 66 67 69 68 68 68 68 69 69 71 71 73 73 72 72 72 70 68 67 69 67 67 67 68 65
27 24 23 21 21 50 54 55 59 61 61 62 61 61 60 58 58 57 57 59 63 63 65 66 67 67 69 68 69 69 69 69 69 70 72 72 73 72 70 72 72 71 70 69 69 69 67 64 66
26 25 22 20 18 14 39 32 51 55 55 57 61 60 61 60 60 59 57 58 62 63 65 67 67 68 68 68 68 68 68 66 69 70 71 71 73 72 71 71 72 71 71 70 70 70 68 66 65
27 26 22 24 20 15 16 21 43 51 52 54 56 59 60 60 61 60 57 57 60 63 64 68 67 68 68 67 66 67 67 67 69 70 70 71 72 72 72 71 72 72 70 70 71 71 70 68 67
24 23 23 21 19 16 15 13 33 49 50 51 52 58 59 60 60 61 59 57 60 61 65 67 67 67 69 68 66 67 66 67 68 68 69 70 71 72 72 72 72 72 72 71 70 71 70 71 71
23 22 21 19 16 16 21 15 16 49 50 51 52 55 57 58 59 61 60 57 59 61 63 67 67 66 68 69 67 66 67 66 68 67 68 70 71 72 71 72 73 73 72 72 72 72 72 71 70
21 21 21 18 18 17 19 16 17 28 50 51 54 56 52 57 58 60 60 59 58 61 61 66 67 66 66 67 68 69 67 66 69 70 69 69 69 70 71 71 72 72 70 71 72 72 72 72 72
21 20 21 20 27 20 21 23 26 44 43 50 50 56 55 59 60 59 60 59 59 61 62 63 68 66 66 66 66 67 70 67 67 70 70 69 68 69 70 72 72 72 72 71 72 71 71 72 72
17 17 22 21 20 20 22 22 24 43 47 51 51 54 58 57 60 60 61 61 62 60 63 63 65 67 66 65 65 65 67 70 67 68 69 69 69 68 69 72 73 72 72 72 72 71 71 72 71
18 20 20 24 23 20 19 22 43 45 50 51 52 51 56 57 61 61 62 63 63 63 64 64 63 65 67 66 65 64 65 69 70 67 67 71 68 69 70 70 73 72 72 72 72 72 71 71 71
19 21 22 23 25 26 23 26 42 48 51 52 55 52 54 58 62 64 66 66 65 64 63 66 66 65 66 67 66 64 64 66 70 70 67 68 70 72 72 71 72 72 72 72 72 71 71 71 72

GFSSGP_sfc_dewp_087.txt.gz
Dewpoint
72 71 69 68 61 59 54 55 58 56 54 54 53 55 57 61 58 52 63 66 67 67 72 74 76 75 75 75 75 75 74 74 74 74 74 74 74 72 72 72 73 74 74 74 74 74 75 75 74
71 69 68 66 58 52 53 57 57 58 55 54 54 59 60 59 63 63 66 67 66 69 73 74 76 76 76 76 75 75 74 74 74 74 74 74 74 72 72 72 72 72 74 72 73 74 75 74 73
69 67 65 62 56 52 53 57 57 56 55 55 60 61 61 61 63 62 68 67 69 72 73 73 75 76 76 75 75 75 74 74 74 74 74 74 73 72 71 72 74 73 72 73 73 74 73 73 73
65 68 66 59 54 54 58 58 57 58 60 62 62 60 63 64 60 67 69 69 71 71 72 74 75 74 75 75 76 75 74 74 74 73 74 73 74 73 71 72 73 73 73 73 73 73 73 73 72
68 65 58 56 57 57 60 59 58 58 60 60 60 60 60 64 68 69 69 69 70 71 73 73 76 75 75 75 75 75 75 75 74 74 74 74 73 73 73 72 73 73 72 72 71 72 72 72 73
64 64 56 54 57 58 62 65 63 60 61 60 60 60 62 67 67 67 69 70 70 73 74 75 76 75 76 76 75 75 75 75 74 75 74 74 74 73 73 73 73 73 73 72 72 72 71 72 73
61 59 56 54 55 57 59 64 62 60 59 59 60 60 63 65 66 69 70 71 72 73 74 74 74 74 75 75 75 75 75 75 75 74 74 74 73 73 73 73 73 73 72 72 71 72 72 72 73
62 60 55 56 56 56 59 63 64 61 59 61 61 60 61 64 68 69 69 70 73 72 73 73 73 73 73 74 75 75 75 75 75 75 74 74 73 73 73 74 74 73 72 72 72 72 72 73 74
60 56 52 54 56 58 62 61 63 64 60 61 63 61 63 66 68 67 68 70 71 72 72 72 72 71 72 72 74 75 75 75 75 74 74 74 73 72 72 73 73 73 73 73 72 72 73 74 73
57 55 54 58 59 60 62 61 62 62 60 61 61 62 63 67 66 66 67 67 69 71 71 71 71 72 73 73 73 73 74 73 73 73 72 71 72 73 72 73 73 72 73 73 72 72 68 70 69
52 53 57 60 60 60 60 60 64 64 60 60 60 61 64 65 65 65 66 67 68 70 71 70 71 72 72 73 73 73 73 73 73 72 68 70 71 72 72 73 73 71 73 69 66 68 69 68 70
46 49 57 60 60 58 58 60 60 62 63 64 62 62 63 64 64 65 65 66 68 69 70 69 71 71 71 72 72 72 73 73 72 70 68 71 68 69 70 71 71 71 70 67 67 68 69 69 69
45 46 54 59 59 58 61 60 60 63 65 65 63 62 61 62 62 65 65 66 68 68 69 68 69 71 70 71 72 72 71 72 72 71 70 71 68 68 70 70 70 70 70 69 68 69 69 69 70
44 45 44 58 57 59 59 60 61 62 66 65 62 61 61 61 61 64 64 65 67 67 68 67 69 70 70 71 71 71 71 72 71 71 71 71 70 70 69 70 69 69 69 68 69 69 69 69 69
44 42 42 56 59 58 62 58 57 64 64 65 63 62 61 61 60 62 63 64 66 65 66 66 68 69 70 70 71 71 70 71 71 70 69 71 70 70 67 69 69 69 67 68 69 68 69 68 67
34 29 22 52 60 60 59 54 60 63 64 63 62 62 62 61 60 62 61 64 65 64 65 66 68 69 69 69 70 70 70 70 70 70 70 71 72 70 69 69 69 69 67 68 69 67 67 65 65
32 33 28 44 58 58 58 56 59 63 62 61 61 61 60 61 59 60 60 62 64 64 65 66 67 67 68 69 69 69 70 71 71 72 71 70 70 72 71 70 69 69 69 68 69 68 67 65 64
32 29 26 24 54 57 56 57 59 62 63 61 61 59 59 60 58 58 59 62 63 65 66 66 67 67 69 68 69 70 70 71 72 71 70 67 71 73 72 71 69 70 69 68 69 66 65 66 64
30 29 29 28 26 40 56 55 58 60 62 60 61 59 59 59 57 58 58 63 64 65 65 66 67 67 69 67 68 68 68 70 70 70 71 72 72 72 72 71 70 71 69 69 68 66 64 66 64
32 31 28 27 26 22 47 56 57 60 60 61 61 60 59 58 58 57 58 63 64 64 65 67 67 66 69 67 67 69 68 69 69 70 70 72 72 72 72 71 70 68 68 69 68 67 66 67 65
30 30 28 26 30 56 54 55 57 58 61 63 60 60 60 60 56 56 57 62 64 64 64 66 66 66 68 67 68 69 68 69 68 70 70 72 73 72 71 71 69 68 69 67 67 68 66 63 65
30 29 27 24 20 16 42 42 53 57 58 60 61 59 61 60 58 56 56 62 63 63 64 65 66 66 67 68 67 67 68 66 68 69 70 71 73 71 70 71 71 70 70 69 69 69 66 65 63
30 31 26 23 19 17 17 22 40 56 56 57 59 60 61 61 59 56 56 60 62 63 64 65 66 66 67 67 67 66 67 66 68 69 69 71 72 72 71 71 71 71 71 69 70 70 69 68 66
28 24 23 21 19 15 16 14 23 53 54 54 56 57 60 60 60 58 57 58 62 63 64 65 66 66 67 67 66 66 66 67 67 68 68 70 71 71 71 71 71 71 70 70 70 70 69 70 70
23 22 20 17 15 15 17 16 19 39 52 55 54 55 58 60 59 60 58 57 60 62 63 65 66 66 67 67 66 66 66 66 67 68 68 69 70 71 71 71 71 71 71 71 71 70 70 70 69
20 21 21 16 17 17 20 16 30 46 48 51 51 53 56 58 59 59 60 57 58 61 63 65 66 66 67 67 66 66 66 66 67 68 68 69 70 70 71 71 72 72 71 71 71 71 71 71 70
18 19 26 20 23 20 21 23 34 49 51 52 52 53 52 55 58 59 60 58 58 60 62 65 66 66 67 67 67 66 66 66 66 69 69 69 69 70 71 71 71 72 71 70 71 71 70 71 71
19 20 20 21 18 17 21 26 40 49 51 54 57 57 55 55 57 58 61 61 58 60 61 65 66 65 66 67 67 67 67 67 66 67 70 69 69 69 69 71 71 71 71 70 71 70 70 70 70
21 20 22 24 22 19 19 37 46 50 51 53 55 58 56 56 57 59 60 61 62 60 61 62 66 65 65 65 66 66 67 69 67 67 67 69 69 69 68 69 72 72 71 71 71 71 70 70 70
23 21 22 21 20 24 23 37 47 50 50 52 53 54 57 59 62 64 66 66 66 64 62 63 64 66 66 65 65 64 64 66 69 68 67 67 69 69 69 69 70 72 72 71 71 71 71 70 70

GFSSGP_sfc_dewp_090.txt.gz
Dewpoint
72 70 69 68 60 59 53 54 58 56 53 54 54 54 56 60 57 50 63 65 67 67 72 74 75 74 75 74 75 74 73 74 75 73 73 73 72 72 72 74 74 74 74 74 74 74 74 74 74
71 69 68 66 57 52 53 57 57 58 54 54 54 59 60 60 63 62 65 66 67 70 73 74 76 75 75 75 75 74 73 74 74 73 74 74 72 72 73 72 73 74 73 74 74 74 73 73 73
70 68 65 60 56 53 53 58 58 56 53 53 60 62 61 61 62 62 66 66 69 72 74 74 75 76 76 75 75 74 73 74 74 73 73 73 72 71 71 72 72 73 73 74 74 74 73 73 73
65 67 66 59 54 56 57 59 59 57 58 62 62 61 61 64 60 67 66 69 71 72 73 74 75 75 75 75 75 74 74 74 74 74 73 73 73 71 72 72 73 73 73 73 73 73 72 72 72
68 65 58 56 55 56 60 61 59 57 60 61 61 59 59 65 67 67 68 70 71 71 73 73 75 75 75 75 75 74 74 74 73 74 73 73 73 73 72 72 73 72 72 73 72 72 72 72 72
63 64 56 54 55 58 60 63 63 61 62 61 59 60 62 67 67 67 69 70 71 72 73 73 75 75 75 74 74 74 74 74 73 74 73 73 73 73 72 72 72 72 72 72 72 72 72 73 74
62 59 56 55 55 57 58 63 63 62 60 60 61 60 65 66 67 69 69 71 72 73 74 74 74 74 75 75 75 74 74 74 74 74 74 73 73 73 73 73 72 72 72 71 71 72 73 74 74
62 60 56 55 55 56 60 62 65 63 61 61 62 59 61 65 69 70 70 72 72 73 73 73 74 74 73 74 74 75 74 75 74 74 74 73 73 73 73 74 74 72 72 71 72 72 72 73 74
60 56 52 54 56 58 62 61 63 65 61 62 63 61 63 68 69 68 70 71 72 72 72 72 72 72 73 73 74 75 75 75 75 74 74 74 73 72 72 73 73 72 72 71 71 71 73 73 73
57 54 54 58 59 59 62 61 63 62 60 61 62 64 67 68 67 67 67 67 67 70 71 71 71 71 72 73 74 74 74 74 74 74 72 73 73 73 72 73 72 72 73 72 72 71 72 71 71
55 54 55 60 60 61 61 60 64 63 60 61 62 64 66 66 66 66 66 65 67 69 71 71 71 72 72 73 73 73 73 73 73 72 71 72 72 73 73 73 73 73 71 68 69 68 70 71 71
47 52 56 60 62 60 59 62 59 62 63 62 63 65 66 65 65 66 66 67 69 69 71 71 71 72 72 72 72 73 73 73 73 71 69 71 71 71 72 72 72 72 71 67 69 70 70 70 71
46 46 52 59 59 59 60 61 61 62 64 64 63 65 65 65 65 65 66 67 69 69 70 70 71 71 71 72 72 72 72 72 72 71 71 71 70 70 71 71 71 71 71 70 70 71 70 71 71
45 45 46 58 58 59 59 59 60 63 65 63 62 63 64 64 64 65 65 66 68 68 69 69 70 71 70 71 72 72 72 72 72 72 72 71 70 70 71 71 70 71 71 70 71 71 70 71 70
44 41 46 56 58 58 60 59 59 64 65 62 62 62 63 63 63 64 65 65 67 67 68 67 69 70 70 70 71 71 71 72 72 72 71 71 71 71 70 71 71 70 69 69 71 70 70 70 68
33 29 24 54 58 59 60 53 59 64 64 62 62 61 61 61 62 64 64 65 67 66 67 67 68 70 70 70 71 71 71 72 72 71 71 71 71 71 69 71 71 71 69 70 70 69 68 67 67
33 31 24 52 59 59 60 55 61 64 63 63 61 61 61 61 61 63 63 65 66 65 66 67 68 69 69 69 71 71 71 72 72 71 71 71 71 72 70 69 71 71 68 69 71 69 68 67 66
32 28 29 27 53 57 58 56 61 63 63 63 62 61 61 60 60 62 62 64 65 65 66 67 68 69 69 70 70 70 71 71 72 72 72 71 71 73 72 71 71 71 69 68 70 69 68 68 67
30 29 29 29 48 55 55 55 58 62 62 62 62 61 61 61 60 61 61 63 64 65 66 67 67 68 69 69 69 69 69 71 72 72 72 69 72 72 72 72 71 72 70 70 70 69 67 68 67
32 30 29 28 32 33 37 49 58 60 62 62 61 60 60 60 60 60 60 61 63 65 66 66 67 68 69 68 69 70 69 71 71 71 71 73 73 72 72 72 71 72 70 71 70 70 68 68 67
32 31 28 27 32 54 53 49 55 59 60 62 62 61 60 60 60 58 59 60 63 64 65 66 67 67 69 68 69 69 70 70 70 71 71 72 73 73 73 72 71 70 71 69 70 70 69 66 67
33 31 30 28 21 17 40 23 49 56 57 59 62 60 61 60 60 57 58 60 63 64 65 66 67 67 69 68 68 69 68 68 69 70 72 72 74 72 72 72 71 70 71 70 70 70 69 68 66
32 30 28 26 20 19 23 17 25 54 55 56 58 61 60 61 60 57 57 60 64 64 65 66 67 67 68 68 68 68 68 68 70 70 71 72 73 73 71 72 72 71 71 72 72 71 71 70 69
29 24 22 21 18 15 18 15 18 49 50 55 56 59 61 60 61 58 58 59 63 64 64 65 67 67 67 68 67 67 68 68 68 70 69 70 72 73 72 72 72 72 72 71 71 72 71 71 72
23 21 19 17 16 15 17 17 38 43 49 51 52 54 59 62 62 60 57 58 62 63 64 65 66 66 67 68 67 67 67 68 68 69 69 69 71 72 72 72 72 72 72 72 72 73 72 72 72
24 23 20 14 16 16 22 17 36 51 53 55 57 57 55 59 61 61 58 58 60 63 64 65 66 66 67 67 67 67 67 67 68 69 69 70 70 71 73 72 72 73 73 72 72 72 72 73 72
20 16 20 20 22 20 22 33 39 50 51 53 54 56 58 56 60 60 61 58 59 62 63 65 66 66 67 67 67 67 67 67 67 69 69 70 71 71 72 72 72 73 73 72 73 72 72 73 73
20 22 19 20 17 17 22 38 43 47 49 52 53 55 58 58 58 60 60 61 59 61 63 65 66 66 67 67 67 67 66 67 67 69 69 70 71 71 72 72 72 72 73 72 72 72 72 72 72
21 20 22 24 21 19 25 38 47 49 50 50 52 55 58 61 62 59 61 64 64 63 62 64 65 66 66 67 67 68 67 67 67 67 69 71 71 71 71 72 72 72 72 73 72 72 72 72 72
23 23 22 24 20 23 30 36 50 51 52 52 51 54 57 58 60 62 64 65 65 64 65 63 65 65 66 67 67 67 68 68 67 67 67 69 70 71 71 71 72 73 72 73 72 72 72 72 72

GFSSGP_sfc_dewp_093.txt.gz
Dewpoint
71 69 68 68 60 59 53 54 57 55 54 54 54 53 53 54 54 53 62 63 64 66 70 70 75 74 75 75 74 74 73 74 74 73 73 73 72 73 74 74 74 75 74 75 75 74 74 74 75
69 68 69 66 57 53 53 57 58 56 55 54 55 55 59 58 61 60 61 64 65 67 69 70 76 75 75 75 74 73 74 75 74 74 74 72 72 73 72 73 73 73 74 74 74 74 73 74 74
68 68 66 62 57 53 54 57 59 55 54 54 59 61 61 61 61 60 63 64 66 69 71 72 75 75 75 75 75 73 74 74 74 74 73 72 72 72 72 72 73 73 73 74 74 74 73 73 73
65 67 66 59 55 56 57 59 55 52 56 62 61 59 60 62 59 64 64 66 67 69 70 74 75 75 75 75 75 74 75 74 73 73 73 73 71 73 72 72 73 73 73 73 73 73 73 73 73
68 67 59 56 55 57 60 62 55 52 55 60 60 58 57 64 66 63 65 66 66 68 70 72 76 76 75 75 75 74 74 74 73 73 73 73 72 73 72 73 73 73 73 73 73 73 73 73 73
65 65 56 55 55 58 61 63 61 60 61 60 58 57 60 66 63 64 66 66 66 68 69 70 75 75 75 75 74 74 74 73 74 74 73 73 73 73 73 72 72 72 72 72 72 73 73 73 73
61 61 56 54 55 57 59 64 62 62 60 60 60 58 63 63 63 66 66 68 67 69 70 71 72 74 74 74 74 74 74 74 74 74 74 73 73 73 73 73 73 72 72 71 73 73 73 74 74
63 60 55 55 55 57 59 63 64 63 61 62 61 59 59 63 65 66 67 68 68 69 70 73 74 73 73 74 74 74 74 74 74 74 73 73 73 73 73 73 73 72 71 72 72 73 73 73 74
60 56 53 53 55 59 61 61 64 66 62 62 61 59 60 64 65 66 67 68 69 69 70 71 72 73 73 72 74 75 75 74 74 73 73 73 73 72 71 73 73 72 71 71 71 72 73 74 74
58 55 54 57 58 59 61 61 64 62 61 62 62 63 64 64 64 64 65 66 67 69 70 71 71 72 73 72 74 75 74 73 74 75 75 74 75 72 71 72 73 73 71 71 72 73 71 70 70
57 55 55 59 60 61 60 61 64 63 60 61 62 62 62 62 63 64 64 65 67 70 70 71 72 72 72 73 73 73 72 73 75 75 74 74 73 73 71 73 71 71 70 69 67 67 68 70 70
49 50 55 59 60 60 58 61 60 61 62 62 63 61 61 61 62 63 64 65 66 69 70 70 72 72 73 74 72 72 71 72 71 72 73 74 72 73 73 72 73 73 69 69 70 67 71 70 71
50 48 48 57 60 59 61 61 58 61 63 63 63 62 61 61 63 64 64 64 66 67 69 70 71 73 73 74 73 72 71 71 72 71 72 73 72 72 72 73 71 72 71 69 71 71 70 71 70
46 47 46 57 59 58 58 60 60 61 64 63 62 61 61 63 63 64 64 64 66 67 68 70 69 73 73 73 74 73 72 72 71 70 73 73 72 72 70 71 71 72 72 71 72 72 71 71 70
44 41 46 50 56 58 59 57 58 62 64 62 62 62 62 63 64 64 65 65 65 66 68 69 69 71 73 73 73 72 71 71 71 73 74 73 73 72 73 70 70 71 72 71 73 73 72 70 68
34 32 31 55 55 56 59 52 59 64 63 62 62 62 62 63 64 64 65 64 65 65 68 69 66 70 72 72 72 71 71 72 74 74 73 73 74 73 72 71 71 71 70 71 71 71 69 68 67
34 35 26 52 56 57 58 53 61 63 62 62 62 62 62 63 64 65 65 65 64 65 68 68 69 70 71 73 71 72 73 73 74 74 73 72 74 73 71 70 72 71 70 70 70 70 69 68 67
35 27 28 40 55 58 55 55 60 63 62 62 62 61 61 61 62 64 65 65 65 65 68 69 68 71 73 72 72 71 73 72 73 74 73 73 74 73 73 71 72 71 68 69 71 71 70 69 68
32 30 29 29 49 55 49 51 56 62 62 62 61 62 60 61 62 63 64 65 65 65 67 69 70 72 72 71 70 70 70 72 75 73 74 73 73 74 75 71 72 71 70 70 72 70 70 68 70
33 32 30 29 39 49 37 40 55 59 61 63 62 61 61 61 61 62 64 64 65 65 66 69 70 72 72 71 72 72 72 72 73 73 73 72 73 75 75 74 72 73 70 73 72 72 69 69 69
34 33 30 26 28 50 51 48 55 59 61 62 63 62 62 62 61 62 63 63 64 65 67 68 70 71 72 72 72 72 73 73 71 72 71 75 72 73 75 74 73 74 72 70 73 72 71 67 69
35 33 30 29 26 20 46 24 51 55 58 61 62 62 61 62 62 61 61 62 63 65 66 68 70 71 71 73 72 73 69 73 69 71 72 72 75 74 73 74 74 74 72 73 72 71 71 70 66
33 33 32 29 26 22 37 22 38 56 54 53 59 62 62 61 61 61 60 62 63 64 65 67 70 71 71 73 73 71 71 70 70 71 74 74 75 75 73 75 74 73 71 73 73 74 73 71 68
31 27 24 24 22 19 20 17 40 45 50 52 54 55 61 62 61 61 61 62 62 63 65 66 69 71 72 72 72 73 73 72 70 71 70 71 75 73 75 74 75 75 73 74 73 75 74 74 74
29 25 21 20 18 17 21 30 47 51 53 54 55 57 58 59 62 62 61 61 62 64 65 65 69 71 71 71 71 71 72 73 73 73 71 71 70 71 75 75 75 75 76 75 74 75 75 74 73
26 23 21 21 18 17 23 35 47 51 53 55 57 58 59 59 58 62 62 61 62 64 65 67 69 71 70 70 72 73 73 69 70 72 70 69 69 70 75 75 75 75 75 74 75 73 73 74 73
23 23 21 21 22 17 21 38 46 49 51 53 55 57 58 61 59 60 62 61 61 64 66 67 69 71 70 70 72 72 72 71 70 73 73 70 73 71 74 75 75 74 75 75 75 72 75 75 75
23 23 21 23 23 19 33 39 42 48 50 52 53 56 58 60 60 58 62 62 62 64 65 66 68 70 71 70 70 70 70 71 71 72 73 73 73 74 73 74 74 75 75 75 76 74 74 75 73
23 22 26 25 24 20 25 38 48 51 52 50 51 53 57 60 60 63 65 63 62 64 65 66 66 68 68 69 70 71 70 70 70 70 71 73 73 74 74 74 74 74 74 75 76 75 74 74 74
23 24 23 24 28 27 30 38 52 52 52 53 50 51 54 58 59 61 62 63 66 64 65 66 65 66 67 69 71 70 70 70 69 70 70 71 73 74 74 74 74 74 74 75 75 74 72 73 73

GFSSGP_sfc_dewp_096.txt.gz
Dewpoint
70 66 67 68 61 59 53 55 57 55 54 54 53 51 52 52 53 54 58 60 63 64 67 70 75 75 74 74 74 73 74 74 73 73 73 73 73 74 74 74 74 75 75 75 74 74 75 75 75
64 64 68 66 58 53 55 57 55 55 54 54 52 52 53 57 58 58 58 62 64 64 66 68 76 75 75 74 73 73 74 74 74 74 73 73 72 73 74 73 74 74 75 75 74 74 74 75 75
65 66 66 63 56 55 55 57 55 54 53 54 53 58 58 60 58 57 60 62 63 66 67 72 75 75 75 75 74 73 74 74 74 74 73 73 73 72 73 74 73 74 74 74 74 74 73 73 75
65 67 66 60 53 56 57 57 53 52 53 59 57 58 60 62 57 59 61 62 64 65 67 73 75 75 75 75 74 74 74 74 73 73 73 71 73 73 74 73 73 74 73 73 74 73 73 74 73
66 66 60 55 55 57 60 55 52 52 56 58 58 57 58 59 61 60 61 62 63 64 68 71 76 75 75 75 74 74 74 73 73 73 73 72 73 73 73 73 73 73 73 73 73 73 73 73 74
64 63 56 54 55 58 61 61 53 53 59 59 57 56 60 62 60 61 61 62 62 63 66 70 75 75 75 75 74 74 74 74 74 73 73 73 73 73 73 72 73 73 73 73 73 73 74 74 74
60 59 54 53 55 58 59 63 60 59 58 58 57 55 60 58 59 61 61 62 62 64 67 70 70 74 75 74 74 74 74 74 74 74 74 73 73 73 73 72 72 73 72 73 73 73 74 74 75
61 58 53 53 54 56 60 63 63 60 60 60 59 56 57 58 60 60 61 62 62 65 68 69 70 70 72 72 74 74 74 74 74 74 73 73 74 73 73 73 73 72 73 73 73 73 74 75 74
60 55 50 52 53 57 60 60 63 65 60 61 59 57 57 59 60 61 61 62 64 65 66 66 69 70 71 71 73 74 74 74 74 73 73 73 72 68 70 73 72 72 72 72 73 73 74 74 74
56 52 52 55 56 58 59 60 62 62 61 61 60 57 58 59 60 60 60 62 63 65 64 66 66 68 70 68 73 73 71 71 72 73 72 70 72 71 68 72 73 72 72 73 73 71 71 72 66
55 53 54 57 58 58 58 61 62 61 59 61 60 59 58 58 59 59 61 63 63 64 63 65 69 70 69 74 71 69 68 69 71 73 70 70 69 69 68 69 66 68 71 66 68 68 66 68 66
52 53 53 57 60 59 57 60 59 61 62 61 62 59 58 57 57 59 61 62 64 65 65 67 69 71 71 70 67 67 67 68 67 70 72 70 68 69 68 66 67 67 67 69 70 66 70 69 70
50 48 48 54 58 57 59 58 59 61 62 62 60 58 57 56 58 60 61 62 64 66 65 67 69 70 73 72 68 67 68 67 69 69 71 69 67 69 68 69 66 67 66 67 69 69 69 69 67
51 49 45 51 54 56 58 58 57 62 63 61 58 57 56 56 58 61 61 61 61 63 65 66 67 70 71 71 72 70 69 70 69 69 71 72 68 69 68 69 67 68 67 68 70 71 69 68 66
46 43 41 46 52 53 57 57 57 63 63 60 57 55 55 57 60 61 61 61 61 62 65 66 66 69 71 72 71 70 70 68 68 74 73 72 71 72 71 68 68 68 69 71 71 72 71 66 64
43 39 38 46 49 54 56 53 58 64 63 60 56 55 57 59 60 61 60 60 60 62 66 66 63 68 71 71 71 69 69 71 71 73 71 73 74 73 73 70 68 70 69 69 69 68 67 64 62
41 37 35 45 48 53 56 55 59 63 62 61 59 56 57 60 60 60 59 60 60 62 66 66 67 67 70 73 71 71 73 71 70 75 70 73 74 73 70 69 72 72 68 68 68 68 68 65 63
38 36 31 41 50 54 53 55 59 60 60 60 61 60 59 59 59 59 62 61 59 62 65 67 67 70 71 71 72 70 71 76 71 71 71 73 73 74 71 70 72 70 68 68 68 70 67 65 64
37 34 33 39 51 51 49 47 56 60 59 60 60 61 59 59 58 60 63 63 61 61 65 67 69 72 71 69 68 68 68 75 71 71 73 73 73 74 74 69 72 70 68 70 71 68 69 64 67
36 32 31 31 45 47 34 35 46 57 58 60 60 60 60 60 57 60 63 64 63 62 65 68 70 73 72 70 71 70 70 70 69 71 73 71 72 73 73 73 70 71 68 73 72 71 63 64 66
37 34 31 30 32 36 42 46 52 55 57 60 62 61 61 60 58 57 61 63 63 63 65 68 70 73 73 72 73 75 74 76 72 74 70 71 72 71 72 72 72 73 72 67 71 71 71 62 66
31 36 32 27 26 32 41 35 47 53 57 60 61 61 62 61 60 59 60 62 63 64 64 67 71 72 73 74 72 73 67 65 66 69 70 70 71 71 71 71 72 73 69 71 71 70 70 70 63
33 35 34 28 26 25 33 30 46 51 51 53 60 61 62 62 61 60 59 61 62 64 64 66 70 72 72 74 74 73 71 65 66 68 77 74 73 72 71 72 73 75 70 73 72 73 73 67 65
34 33 32 29 24 22 30 28 42 46 52 53 55 57 61 62 62 62 60 61 62 62 64 64 69 72 73 73 74 74 72 70 69 69 78 73 69 70 72 73 74 75 73 73 72 74 74 73 71
31 26 24 25 21 18 23 23 48 50 53 54 56 57 57 58 62 62 62 60 62 63 64 65 69 72 73 72 72 73 74 74 72 73 66 71 67 67 75 76 76 72 74 75 74 75 73 73 71
29 24 20 24 18 16 23 31 47 50 52 56 57 58 60 60 59 62 63 62 62 63 65 67 69 71 72 72 73 74 74 71 70 70 65 67 66 67 74 72 74 73 72 74 75 72 70 72 71
28 26 22 19 20 16 25 45 47 48 50 54 55 58 59 62 58 59 62 62 62 63 65 67 69 72 72 71 73 73 74 73 70 71 71 68 71 67 73 73 71 71 72 74 75 71 73 73 73
26 26 21 21 23 21 22 38 43 48 50 52 54 56 59 61 63 59 62 63 63 63 64 67 70 72 72 71 71 71 73 73 73 71 72 71 71 72 72 74 73 72 72 73 74 72 73 74 71
23 23 25 21 22 19 23 35 49 50 52 51 52 54 57 59 60 62 62 67 65 64 64 65 67 69 70 70 71 72 72 71 72 70 71 72 73 74 73 74 74 73 73 74 75 73 71 73 73
24 26 28 23 27 23 24 43 52 51 52 52 52 52 53 56 58 59 61 63 66 67 65 65 66 66 67 69 70 71 72 73 70 71 70 71 73 74 74 73 75 74 73 74 74 71 70 72 72

GFSSGP_sfc_dewp_099.txt.gz
Dewpoint
70 65 64 67 62 59 55 55 54 50 50 49 49 47 52 55 56 53 58 61 63 63 67 71 76 74 74 74 74 74 74 73 73 73 73 74 74 74 74 74 75 75 75 74 75 75 75 75 75
65 63 66 67 59 53 54 56 52 52 52 51 50 51 52 55 55 55 57 62 62 62 64 69 76 75 75 74 73 74 74 74 74 73 73 72 74 74 74 74 75 75 75 74 75 75 75 75 75
70 63 66 64 59 55 55 54 52 52 50 50 51 54 58 54 54 57 60 61 61 63 65 73 76 76 75 74 74 74 74 74 74 73 73 74 72 73 74 74 74 74 74 75 74 74 74 75 74
63 67 66 61 54 56 56 54 51 50 52 52 55 56 59 56 55 58 60 61 62 63 66 74 75 75 75 74 74 74 74 74 74 73 72 73 73 74 74 74 74 74 74 74 74 74 74 74 74
65 68 61 57 55 57 56 52 50 51 54 53 54 56 54 56 57 59 60 60 60 63 67 70 76 75 74 74 74 74 74 73 74 73 72 73 73 73 73 74 74 74 74 74 73 73 74 74 74
65 64 58 54 55 59 57 53 53 55 58 56 56 56 57 59 57 59 59 59 61 62 66 70 75 75 75 74 74 74 74 74 74 73 73 74 73 73 73 73 73 74 74 74 74 74 74 74 75
62 62 54 54 55 58 60 56 53 56 57 56 56 56 58 56 58 58 59 60 60 65 66 69 70 74 75 74 74 74 74 74 74 74 73 73 73 73 73 73 73 73 74 74 74 74 74 75 74
60 58 52 53 55 57 61 61 63 59 56 58 57 55 54 57 58 58 58 58 59 61 64 67 68 70 72 72 74 74 74 74 74 74 73 74 73 73 73 74 73 74 73 74 74 74 74 74 73
59 58 52 51 54 58 62 61 62 63 58 59 59 55 55 57 58 57 58 58 61 61 62 64 68 70 73 71 73 74 74 74 74 73 72 72 71 69 70 73 73 73 72 73 73 73 74 74 74
55 58 52 54 56 57 60 60 62 60 59 59 58 54 56 57 58 57 56 57 59 62 63 67 68 69 71 67 72 72 70 71 72 70 73 70 74 71 66 71 73 72 73 72 72 72 74 74 68
54 55 53 56 58 56 58 59 62 61 59 59 55 55 56 57 58 56 56 58 60 61 65 67 70 71 70 71 69 70 70 68 71 71 73 73 67 69 64 68 68 68 72 67 68 70 70 67 61
50 52 53 56 56 56 57 59 60 61 60 61 57 56 56 56 55 55 56 58 60 61 63 67 70 73 73 67 69 70 69 68 67 67 70 69 72 71 74 64 65 68 71 68 71 67 70 65 64
50 48 48 54 56 56 58 57 61 61 61 61 60 56 55 54 55 55 56 58 61 61 62 64 68 72 70 71 66 69 67 71 66 68 71 72 67 68 67 68 64 65 66 67 68 71 69 67 64
48 47 46 51 54 56 55 58 60 63 62 61 58 54 54 53 54 56 57 59 61 62 62 65 66 71 71 70 71 70 72 69 72 70 69 68 68 68 66 67 64 65 65 67 72 72 72 66 64
48 47 43 48 52 55 57 56 59 63 61 58 56 54 53 53 55 56 57 59 60 61 63 65 66 68 71 70 70 72 67 71 74 70 72 71 70 70 71 72 72 65 69 70 70 72 71 69 61
45 44 39 44 48 53 56 54 62 63 60 56 55 53 53 54 55 57 58 58 60 61 64 65 62 67 69 71 70 70 74 73 74 68 69 72 72 72 73 68 65 68 68 66 71 72 67 61 60
44 38 37 41 47 52 57 56 63 61 60 56 54 53 53 55 56 57 56 57 59 62 65 64 65 66 68 71 69 68 73 69 68 73 73 73 73 72 74 72 71 72 68 71 70 70 70 64 60
38 36 35 40 44 52 56 55 61 61 61 57 54 53 54 56 56 56 55 56 58 62 65 66 65 69 71 70 72 70 69 70 70 69 74 72 73 72 72 72 72 71 72 66 72 74 65 68 62
33 34 33 40 46 50 55 57 59 61 60 60 58 55 54 55 57 56 56 57 57 61 64 67 68 72 70 68 66 69 71 72 72 69 72 72 72 72 73 70 71 71 72 72 70 66 69 62 63
35 32 32 42 47 54 55 51 60 58 58 59 60 60 59 59 57 57 59 59 57 60 64 67 70 72 71 67 71 74 70 70 75 70 72 73 71 72 71 73 69 74 70 72 70 70 66 63 63
36 32 32 34 45 41 39 47 52 54 55 59 60 61 60 60 58 57 59 59 59 60 64 67 71 73 72 74 74 71 73 71 69 69 69 71 71 70 72 71 75 72 70 68 70 70 73 67 62
30 31 30 32 34 36 43 44 54 51 58 59 61 62 61 61 61 56 58 59 59 60 63 67 70 73 72 73 74 74 68 67 72 73 68 70 71 73 71 72 72 73 74 74 70 67 72 72 62
28 33 32 29 29 39 41 42 52 49 51 58 59 61 62 61 59 56 56 60 59 60 61 65 70 73 73 74 75 71 74 68 70 73 74 73 74 71 71 72 72 73 71 74 75 72 75 66 68
34 32 34 31 26 26 40 39 45 53 50 55 58 60 61 60 61 59 61 61 59 59 61 63 70 74 74 74 73 74 70 74 70 73 70 69 68 70 72 72 72 74 74 73 72 73 74 75 74
34 32 27 26 23 21 33 38 50 50 53 56 57 58 59 61 61 60 61 61 62 59 60 63 71 74 73 72 73 73 73 72 72 71 69 72 68 68 73 75 74 73 74 73 74 75 74 73 72
32 27 22 25 18 16 21 37 46 50 55 56 57 59 60 60 61 61 62 61 63 61 61 63 71 74 73 73 74 76 75 70 68 71 67 69 71 68 74 72 72 73 73 73 74 71 70 74 71
30 26 21 18 18 14 30 45 46 49 52 55 56 58 59 62 61 61 63 64 63 62 63 65 70 74 73 72 75 76 76 75 70 72 72 68 70 73 73 71 73 72 72 73 75 73 72 73 73
26 26 21 20 24 19 32 41 41 49 50 53 54 56 58 61 62 60 61 65 65 65 63 65 68 72 72 72 72 72 73 74 74 71 72 73 72 70 74 72 71 71 72 73 75 73 74 74 71
24 25 25 21 20 20 25 40 48 51 51 52 53 54 56 58 60 63 65 67 68 69 69 64 66 69 71 72 72 74 72 73 74 72 71 72 74 72 73 73 72 72 71 73 75 75 74 73 74
24 24 24 23 26 22 22 45 50 50 51 53 53 52 54 56 58 60 63 63 62 63 67 70 69 67 69 72 73 72 72 73 72 72 71 72 74 74 73 74 74 73 72 75 73 72 69 71 71

GFSSGP_sfc_dewp_102.txt.gz
Dewpoint
70 67 67 68 61 60 55 53 52 46 45 45 48 52 54 55 53 54 62 63 64 66 70 71 75 75 75 74 74 73 73 73 73 73 75 75 75 75 76 76 76 76 76 75 75 75 75 75 74
65 63 69 67 59 55 55 52 50 48 47 49 51 52 52 52 55 58 60 63 63 64 67 69 75 75 74 74 75 74 74 73 73 73 73 74 74 75 75 75 75 76 76 75 75 75 75 75 75
69 67 66 63 59 55 55 52 50 49 48 49 55 55 52 53 56 58 60 61 61 64 69 73 76 76 74 74 74 74 74 74 73 74 74 73 74 74 74 75 75 75 75 75 74 75 74 74 73
67 67 65 61 56 55 55 52 48 47 49 53 55 52 53 55 57 58 59 60 62 67 70 75 76 75 74 75 74 74 74 73 73 73 73 74 73 74 74 74 74 75 75 74 74 74 74 74 73
65 67 61 57 56 55 54 49 50 49 50 53 53 52 52 57 58 58 60 61 63 66 70 72 76 76 75 74 74 74 73 73 73 73 73 73 74 73 74 74 74 74 74 74 74 75 75 74 73
64 66 58 55 56 53 52 51 56 53 55 54 52 52 54 58 57 58 59 63 65 64 68 71 75 75 74 74 74 74 74 74 74 74 74 74 74 74 74 74 74 74 74 74 74 75 75 75 73
61 62 57 56 56 57 53 54 57 55 54 53 53 54 55 56 57 57 61 63 63 65 68 71 72 74 75 74 75 74 74 74 74 74 74 75 74 74 73 74 74 74 74 74 74 75 75 74 73
60 62 55 56 56 57 59 57 61 59 57 57 56 54 53 56 56 59 58 64 65 63 67 71 72 72 72 72 74 74 74 74 74 73 74 74 74 73 73 75 75 74 74 73 74 75 75 73 73
59 59 54 52 55 59 61 60 62 63 57 58 59 54 55 56 56 57 62 63 63 63 65 66 69 71 73 72 73 74 75 74 74 73 73 74 72 71 71 75 75 73 73 73 73 74 74 73 73
59 59 56 54 56 59 60 59 60 59 57 57 52 54 55 55 55 56 59 58 61 64 65 67 67 69 71 67 74 74 72 73 76 73 74 73 72 70 70 73 74 73 72 72 73 74 74 74 69
60 58 57 57 57 59 59 60 63 61 58 57 53 54 55 54 55 53 57 60 63 65 67 69 71 71 70 71 74 73 71 71 72 72 76 74 72 69 68 72 70 72 72 70 71 73 72 73 72
55 55 54 56 57 58 58 60 62 64 60 56 54 54 54 53 53 53 55 60 62 68 67 69 71 75 73 71 73 71 71 72 69 72 75 75 73 73 74 71 71 71 74 70 73 69 71 69 66
49 50 54 54 57 58 59 58 62 64 60 58 55 54 54 52 52 54 56 57 66 68 67 69 72 73 75 73 72 71 72 71 68 73 73 74 69 75 72 73 70 70 73 71 73 71 73 71 67
44 52 50 55 55 56 56 59 58 63 61 60 56 54 53 51 52 56 59 59 61 63 64 67 70 71 74 73 72 70 73 72 72 72 74 73 73 71 72 74 71 73 72 72 72 71 72 68 70
47 45 45 55 54 55 57 57 59 64 62 60 55 53 52 51 53 56 59 60 60 61 65 66 68 70 74 75 73 73 73 73 72 71 76 75 74 76 70 73 72 73 74 74 75 73 75 70 68
41 44 43 52 54 55 54 55 61 64 62 58 54 52 52 52 52 55 59 61 62 62 67 67 63 68 72 76 74 73 74 69 71 72 73 75 76 76 77 74 72 74 74 69 73 73 71 72 69
41 39 40 44 51 56 55 58 62 63 62 55 53 51 51 52 54 55 57 59 60 65 68 66 68 67 71 75 73 73 73 74 74 75 77 75 75 75 75 75 76 75 73 73 69 70 73 72 66
35 37 40 42 49 56 56 58 61 62 63 56 53 52 52 53 53 56 56 58 60 65 68 70 69 73 75 74 78 74 75 73 73 73 75 75 75 74 73 76 75 76 75 71 70 74 72 72 63
33 35 39 41 53 53 53 57 58 60 62 55 52 52 52 54 56 55 55 57 60 64 67 70 73 75 74 73 73 75 73 75 74 74 75 74 76 75 75 74 75 76 70 72 75 72 72 72 71
27 34 37 50 53 54 54 54 57 60 60 59 54 53 55 57 55 56 56 57 60 65 68 70 73 75 75 73 74 74 71 74 75 74 75 75 75 76 74 75 74 75 74 75 74 76 72 71 70
25 30 36 54 48 50 52 53 53 59 59 62 58 55 56 59 58 55 57 57 59 64 67 70 74 74 75 76 75 72 73 76 75 73 74 74 75 74 76 75 76 71 75 74 76 75 75 71 69
27 35 40 47 45 45 50 48 51 57 60 62 61 61 58 58 60 55 57 57 58 63 66 71 74 74 74 73 76 76 75 71 75 74 74 74 74 75 75 75 76 76 76 76 76 71 74 76 72
30 31 33 31 34 44 44 42 51 56 56 60 62 60 60 59 59 57 57 58 59 62 64 69 73 75 76 77 76 76 71 66 72 71 77 76 77 74 73 76 76 76 72 74 77 76 77 76 72
30 31 32 31 27 34 41 39 50 54 58 55 59 59 60 60 59 59 58 59 59 60 63 68 72 75 75 76 75 76 72 70 72 72 76 75 74 75 75 74 77 77 73 76 76 76 77 77 75
27 31 30 28 25 23 38 38 51 56 57 60 59 61 62 63 60 59 59 60 60 61 62 68 72 74 75 75 75 75 75 71 71 74 73 73 73 73 75 76 77 77 78 77 77 78 77 77 76
30 31 28 27 23 21 37 44 50 55 58 60 59 60 62 65 68 63 61 63 63 62 63 68 72 74 74 74 76 77 76 75 72 73 73 70 72 71 75 75 76 77 76 75 77 77 76 77 75
29 29 27 23 22 18 42 50 52 53 55 56 56 58 60 62 63 67 64 62 62 65 64 68 72 74 74 74 75 77 77 77 74 77 77 73 72 71 76 75 76 76 75 76 77 76 76 76 77
29 28 25 26 26 24 42 45 47 51 53 54 55 56 58 60 62 64 66 66 70 71 71 70 73 74 75 74 76 75 76 77 77 78 76 78 74 73 72 67 75 76 77 77 76 76 76 76 76
26 25 26 23 23 22 38 46 49 51 52 53 54 55 56 58 60 62 64 66 68 69 67 69 70 73 74 75 75 75 75 75 77 75 76 76 78 73 65 64 69 75 76 76 77 76 75 74 75
21 24 25 25 29 26 43 46 52 51 52 53 53 53 54 57 59 61 62 63 64 67 68 67 67 69 71 72 74 74 76 76 75 75 75 76 77 78 74 71 74 74 76 76 76 74 74 74 75

GFSSGP_sfc_dewp_105.txt.gz
Dewpoint
71 69 68 67 60 60 54 55 47 49 51 51 53 54 55 56 55 55 66 67 68 71 73 74 76 75 75 74 74 73 73 73 75 75 76 75 75 76 76 76 75 76 76 75 75 75 74 74 75
68 65 68 66 57 54 52 55 47 53 56 57 54 55 56 57 60 63 64 66 69 70 71 73 76 75 74 75 75 74 73 73 73 74 75 74 75 76 75 75 75 76 76 75 75 75 75 74 74
68 66 65 62 58 53 53 55 47 53 56 53 53 53 55 58 61 61 64 67 68 68 70 73 76 75 75 74 75 74 74 73 74 73 74 75 74 75 75 75 75 75 75 75 75 74 73 73 73
66 68 67 60 55 56 55 49 48 54 51 53 54 54 57 60 60 61 63 64 68 71 73 75 76 74 75 74 75 74 74 73 73 73 74 74 74 75 75 75 75 75 75 74 74 74 73 73 73
67 67 60 58 57 55 50 49 53 51 52 52 54 55 55 58 60 61 62 68 69 72 73 73 76 75 75 75 74 74 74 73 74 74 74 74 74 74 75 74 75 74 74 75 74 74 73 73 73
64 65 57 54 54 54 57 56 56 54 53 53 55 55 55 58 59 61 64 67 70 70 72 73 75 76 75 75 74 74 74 73 74 75 74 75 75 75 75 74 74 75 74 75 74 74 74 73 72
62 62 57 56 55 56 58 60 59 52 52 53 56 54 55 57 60 63 65 66 67 70 71 73 73 73 74 75 74 74 74 74 74 74 74 75 74 74 75 74 74 75 74 74 74 74 73 73 71
62 62 57 58 55 57 60 61 61 57 55 55 56 54 54 57 62 63 63 64 67 69 70 72 72 73 73 73 75 74 74 74 74 74 74 74 74 74 74 76 76 74 74 74 74 74 73 72 72
64 59 56 56 56 58 61 61 63 65 56 56 55 55 56 59 61 62 63 64 65 68 70 71 71 71 72 72 73 74 74 74 74 74 73 75 71 71 73 74 75 74 74 73 73 73 72 72 72
60 57 57 59 58 60 61 61 62 60 57 58 54 55 56 59 62 62 63 63 64 66 67 69 71 70 71 71 73 73 73 72 72 72 71 71 71 70 72 73 74 73 73 73 73 73 73 73 71
56 57 56 56 60 60 58 61 63 61 55 53 53 54 55 59 61 61 61 63 64 66 69 70 69 71 71 73 73 73 72 72 72 71 71 71 69 71 71 72 71 71 73 71 73 73 73 72 72
57 58 60 59 60 58 60 61 63 62 64 57 54 54 54 58 59 61 60 63 66 67 67 69 70 70 68 69 72 72 72 71 71 70 72 69 69 69 69 71 71 70 71 68 70 68 69 67 69
51 54 61 58 61 62 61 61 63 62 64 56 55 55 54 54 55 59 62 65 67 68 69 70 70 69 67 65 70 71 71 70 69 70 71 70 70 68 69 69 70 69 70 69 68 71 68 67 64
46 58 62 58 60 60 60 62 60 63 65 55 54 54 53 53 54 59 64 64 65 66 68 71 68 69 67 66 70 69 71 71 70 69 71 71 69 69 68 69 69 70 70 71 69 69 69 68 65
48 50 57 56 56 57 59 57 58 64 64 58 53 53 53 52 56 57 63 65 66 67 68 69 69 68 67 68 71 69 71 71 71 70 71 70 69 70 68 70 70 71 70 67 68 69 71 70 66
30 50 54 56 55 57 56 55 60 64 64 64 57 53 53 53 58 58 59 60 63 64 65 66 68 69 71 71 70 68 69 70 69 72 71 71 72 71 70 71 70 69 69 67 70 67 66 68 69
32 35 48 52 55 56 56 56 60 63 64 64 58 53 51 52 58 58 59 60 64 64 64 65 68 68 70 71 70 67 68 70 70 73 73 71 71 72 71 71 72 70 71 69 67 69 67 67 64
31 36 50 51 54 55 57 58 58 61 63 63 56 52 51 52 56 58 59 60 64 65 64 67 67 70 68 71 72 71 71 71 72 72 73 72 73 73 70 73 70 72 69 68 68 67 71 68 63
29 36 44 49 55 56 56 57 55 61 63 63 55 51 51 52 55 57 58 61 64 65 64 69 68 71 69 70 71 72 71 72 71 70 73 72 73 72 70 70 71 70 69 69 66 69 69 68 68
24 30 51 57 58 56 57 57 58 60 62 63 60 52 53 54 55 55 57 61 63 65 66 70 71 71 69 71 72 72 70 72 72 73 72 73 73 72 71 71 70 72 70 69 69 70 69 69 66
23 24 49 52 54 59 54 54 56 59 61 62 61 60 54 55 54 54 55 61 63 65 68 70 71 71 72 71 70 70 70 72 72 71 72 73 72 72 73 72 72 70 72 69 70 69 69 67 66
19 34 51 51 50 49 52 46 53 55 57 59 60 63 58 57 54 54 55 60 62 65 67 71 71 70 72 72 70 65 69 68 70 71 72 72 72 72 70 72 71 72 70 70 71 71 71 71 68
21 48 50 48 48 48 48 47 51 55 54 57 60 60 60 58 57 58 56 58 62 64 66 71 71 71 71 72 72 71 67 66 69 71 71 72 72 73 71 71 72 72 70 70 70 71 71 72 71
27 28 42 49 51 47 47 45 51 54 55 57 58 58 62 59 59 58 57 56 61 63 66 69 71 72 72 71 71 70 62 62 68 69 71 71 72 71 72 72 71 71 71 70 71 71 71 71 72
29 27 30 33 44 39 44 44 49 56 55 57 57 58 64 63 58 59 59 57 60 62 65 67 72 72 72 72 71 70 68 69 70 69 70 71 71 71 71 72 73 72 72 71 72 72 71 71 72
31 26 32 34 28 25 37 47 53 56 60 61 62 64 64 65 65 65 65 63 62 61 65 67 70 72 72 72 72 71 70 69 65 68 71 70 71 70 70 73 73 72 73 73 72 71 72 72 71
31 30 29 33 28 26 48 53 55 56 57 58 60 62 62 63 65 67 67 68 65 65 65 67 69 71 73 72 73 72 72 70 69 68 71 70 71 72 73 73 73 73 72 72 73 72 71 71 72
31 30 26 28 26 26 46 48 50 53 54 55 56 58 61 63 64 65 67 68 69 69 69 69 69 69 71 72 73 73 73 73 73 73 72 71 72 71 69 69 71 73 73 73 71 71 72 72 70
28 27 30 27 29 24 41 46 55 53 53 53 54 56 58 61 64 64 64 65 67 68 67 68 67 65 65 66 69 72 73 73 73 73 72 71 71 71 67 68 66 69 72 72 72 72 70 71 72
24 24 27 28 26 35 44 47 57 55 53 53 53 54 57 60 62 63 64 64 65 66 66 66 68 66 65 66 69 72 72 73 73 73 73 72 71 71 69 66 65 68 72 72 71 71 70 71 70

GFSSGP_sfc_dewp_108.txt.gz
Dewpoint
70 69 69 67 59 58 53 53 55 52 51 52 53 53 55 57 55 53 67 69 71 72 73 74 76 75 75 74 74 74 75 75 74 75 76 76 75 75 76 75 75 75 75 74 74 74 74 74 74
69 67 71 66 57 52 53 54 54 54 54 54 55 57 57 58 62 65 66 69 71 73 73 74 76 75 74 74 73 73 73 74 75 74 75 76 75 76 75 75 75 75 76 75 74 74 74 73 73
67 65 65 62 55 53 51 55 54 54 54 53 54 58 59 62 64 65 67 71 71 71 73 73 75 75 74 74 75 74 73 73 74 74 74 75 75 75 75 75 75 75 76 74 74 74 74 73 72
67 70 66 59 53 56 55 55 52 52 54 56 57 58 61 62 63 66 69 69 69 71 72 75 75 74 74 75 74 74 74 75 73 74 74 75 75 75 75 75 75 75 74 74 73 73 74 74 74
70 67 58 58 56 54 56 52 52 52 55 56 57 57 58 61 65 67 67 68 70 72 73 73 76 75 74 74 74 74 72 73 74 74 74 74 74 75 74 74 74 74 74 74 74 73 74 74 74
64 66 57 55 54 57 58 54 54 54 56 56 57 57 58 62 63 65 68 70 71 72 73 73 75 75 75 74 74 74 73 74 74 74 74 74 75 75 74 74 74 74 74 74 74 73 73 73 74
62 61 57 56 55 57 59 56 53 55 55 55 56 56 59 60 64 67 69 71 72 72 72 73 73 73 74 74 74 74 74 74 74 74 74 75 74 74 74 75 75 74 74 73 73 72 72 73 73
65 62 56 57 55 58 59 56 55 55 56 56 57 55 56 60 66 68 69 69 70 72 73 73 72 72 73 73 74 74 74 74 74 74 74 74 75 74 74 76 76 74 73 73 73 72 72 72 73
64 58 54 54 55 60 62 58 63 65 55 56 56 57 59 63 65 65 67 69 69 70 72 72 72 72 72 72 73 74 74 74 73 74 74 74 71 72 73 74 75 73 73 73 73 72 71 71 72
59 55 55 58 60 60 62 60 61 58 55 56 55 60 62 63 62 64 66 67 68 70 71 71 72 71 72 72 73 72 73 72 72 71 72 71 70 72 72 73 74 74 73 73 73 72 72 72 72
56 54 56 54 57 59 60 61 62 57 59 54 56 59 61 62 63 64 64 66 67 69 70 71 71 71 71 72 72 72 72 71 71 71 70 70 70 72 72 72 71 71 73 71 72 72 72 72 72
54 57 59 60 61 60 61 62 61 61 60 56 56 59 61 61 62 62 63 65 65 67 69 70 70 70 69 71 71 71 71 72 71 71 70 69 69 69 70 70 71 70 71 69 71 69 70 68 68
56 57 58 60 61 61 62 61 61 60 59 57 56 60 61 60 60 62 63 65 66 67 70 70 70 67 65 68 70 70 71 71 70 69 71 70 70 67 69 70 70 69 69 69 68 69 68 66 63
40 59 59 61 61 61 60 60 60 60 61 58 54 54 59 60 60 62 65 65 66 67 69 69 69 68 64 65 69 68 70 71 70 70 69 70 69 68 69 68 69 69 70 70 68 68 69 68 64
59 59 56 60 61 60 60 58 57 63 64 55 53 54 55 59 62 63 65 65 67 68 69 67 67 68 65 65 69 69 71 70 70 71 70 69 68 69 69 69 69 69 69 65 66 69 68 68 67
50 56 55 58 58 60 57 54 60 64 62 57 53 54 54 60 62 63 65 65 67 68 69 69 67 66 65 67 70 68 69 70 69 71 70 69 69 68 70 69 69 69 69 68 70 67 66 68 68
28 47 52 54 59 57 57 55 61 64 63 61 58 54 54 58 62 63 65 66 67 67 68 68 68 68 69 70 69 67 68 68 69 72 72 70 71 72 70 71 70 70 70 68 66 68 67 66 64
24 38 51 54 56 56 56 56 61 63 62 60 59 60 55 56 59 61 63 65 65 66 65 68 68 69 70 70 69 69 69 69 71 72 71 72 72 71 70 72 70 70 68 67 67 66 69 67 64
25 33 49 54 57 56 56 56 60 62 61 58 61 61 54 56 57 59 62 63 63 63 66 66 67 69 70 70 69 69 69 70 70 70 72 71 72 70 70 71 70 69 68 67 68 69 68 67 67
23 27 48 56 56 57 56 56 58 61 60 60 61 60 53 57 58 59 63 62 62 63 67 68 69 68 68 71 71 71 71 71 70 70 72 72 72 70 69 69 69 70 69 68 68 69 69 67 65
18 25 50 53 56 57 55 54 56 60 60 62 63 62 61 56 56 58 61 63 62 65 68 69 69 67 69 70 71 70 70 71 71 71 71 72 71 71 72 71 70 70 70 68 69 69 69 67 67
15 21 47 51 50 46 54 46 53 56 58 61 62 62 62 55 55 58 60 62 62 66 67 69 69 70 71 70 68 67 69 68 69 70 71 71 71 71 72 72 71 71 70 69 70 72 70 69 69
17 50 51 49 50 48 50 47 47 55 56 58 61 61 62 60 54 56 60 62 62 66 68 68 69 69 71 71 69 68 67 68 69 70 71 71 71 71 71 71 72 70 69 69 70 71 70 71 71
47 49 49 51 49 44 47 47 50 52 54 57 60 61 62 61 62 58 61 62 62 65 68 68 68 69 70 71 71 69 64 66 67 69 70 71 71 71 71 71 71 71 70 69 71 71 70 70 71
31 40 35 40 40 38 46 48 49 54 56 57 59 61 62 61 62 63 61 61 62 64 67 69 69 69 71 70 71 68 64 65 68 68 70 70 70 71 71 71 71 71 70 70 72 71 70 70 70
27 28 33 32 34 38 41 45 52 55 58 58 59 63 63 64 66 67 65 62 63 64 66 69 69 70 71 70 71 69 68 70 69 69 70 70 70 70 71 72 72 72 71 71 71 70 71 71 71
26 30 31 35 31 37 49 53 56 57 57 60 60 62 63 64 66 66 68 68 65 65 66 68 70 70 70 71 71 70 70 68 65 67 70 71 70 70 72 72 72 72 72 71 71 71 70 70 71
31 30 25 27 26 28 45 49 50 54 56 58 58 60 62 64 66 66 68 68 68 68 69 70 70 68 67 68 69 71 70 70 68 68 69 70 70 71 71 70 72 72 72 71 72 70 71 71 71
28 28 27 26 27 25 39 46 56 55 55 55 56 59 61 63 63 65 66 67 67 68 68 67 66 64 64 66 67 69 71 72 72 71 71 71 70 69 67 70 69 70 71 72 71 70 71 70 70
27 27 29 26 24 38 43 48 55 55 55 54 55 56 61 62 63 63 64 65 66 67 67 67 66 66 66 68 68 69 71 72 72 72 71 71 70 69 66 67 65 67 70 71 71 71 71 69 69

GFSSGP_sfc_dewp_111.txt.gz
Dewpoint
70 69 69 67 57 56 54 53 55 51 51 53 52 53 55 58 56 51 67 69 71 72 73 73 75 75 74 74 75 74 74 74 74 74 75 75 75 75 75 75 75 75 75 74 74 74 74 73 73
69 69 70 65 56 51 51 54 52 53 53 52 54 57 58 59 64 66 67 71 71 73 74 74 75 75 74 74 74 74 74 74 74 75 75 75 75 75 75 75 75 75 75 74 74 73 73 73 73
68 70 64 60 56 52 53 54 53 54 53 52 57 60 61 62 65 66 69 71 72 73 73 73 74 74 73 73 73 73 74 74 74 75 74 75 75 75 75 75 75 75 75 74 74 72 72 72 72
68 67 65 58 53 55 55 53 53 53 55 57 60 59 62 65 65 67 70 71 72 72 72 74 75 74 74 74 73 73 72 73 74 74 74 75 75 75 75 74 75 74 74 74 74 74 72 72 73
70 66 57 57 55 55 56 54 53 53 55 56 58 58 59 64 67 69 70 70 71 72 73 73 75 74 74 74 74 74 74 73 74 74 74 74 75 75 75 74 74 74 74 73 73 74 73 73 73
65 64 56 54 55 56 54 54 56 56 57 58 58 58 60 66 67 67 68 69 72 72 72 73 74 75 74 74 74 73 74 73 74 74 74 74 75 74 74 74 74 74 74 73 73 73 73 74 74
63 61 56 55 55 54 55 56 56 57 56 57 58 57 62 64 66 67 69 71 72 73 73 72 73 74 74 74 73 74 74 74 74 73 74 74 74 74 74 74 74 73 73 73 73 73 73 74 74
65 61 56 56 54 56 56 59 58 56 56 58 58 58 59 62 67 70 70 71 72 72 73 72 72 73 72 73 74 74 74 74 73 74 74 74 74 74 74 76 75 73 73 72 72 72 73 73 73
65 57 54 55 57 59 59 57 61 59 56 57 58 58 60 66 69 68 69 70 71 72 72 71 72 72 72 72 73 74 74 74 74 73 74 73 72 72 73 74 74 73 72 72 72 72 72 72 72
59 54 56 58 60 59 61 59 59 56 55 57 57 60 65 66 66 67 67 68 69 70 71 71 71 72 72 72 72 72 73 72 72 72 71 71 71 71 72 73 73 73 73 72 72 72 71 73 70
58 53 57 57 60 60 60 60 60 56 56 56 57 61 64 65 65 66 67 67 68 70 71 71 71 71 71 72 72 72 71 71 71 71 70 70 70 71 72 72 72 72 72 71 72 71 71 71 72
53 55 56 60 60 58 60 60 59 59 61 59 61 63 63 63 64 66 66 66 68 69 70 71 71 71 71 72 71 71 71 71 70 70 69 69 69 70 70 70 70 70 70 69 70 68 69 68 70
52 56 59 61 60 61 62 61 60 60 61 61 62 62 62 62 64 64 65 66 68 68 70 70 70 69 70 70 70 70 71 71 70 70 70 69 69 68 69 69 69 69 68 68 68 68 69 65 62
45 58 60 61 61 62 61 61 61 60 62 59 60 61 61 62 63 63 64 65 67 68 69 70 69 66 67 68 69 68 69 70 70 69 70 69 69 67 68 68 68 69 69 69 67 68 70 64 63
59 57 58 60 61 60 60 57 56 60 57 59 59 60 61 61 62 63 65 66 66 69 69 69 67 64 64 66 68 68 70 70 69 71 70 68 68 68 68 68 68 68 68 65 67 69 65 67 65
56 55 53 59 59 60 57 54 59 64 61 57 58 59 59 60 62 64 65 66 67 68 68 67 67 66 64 66 69 69 69 69 70 71 71 69 69 68 69 69 69 69 68 68 68 66 66 67 67
29 44 51 52 58 59 56 55 60 63 59 57 54 56 59 59 62 65 65 67 68 68 68 67 66 64 64 68 68 66 68 68 69 71 70 70 70 70 70 69 69 69 69 67 67 67 68 66 64
26 42 50 51 55 57 56 55 61 62 59 57 58 54 57 60 61 64 65 67 68 68 68 68 67 67 69 69 67 68 68 68 70 71 71 70 72 70 71 70 70 69 68 66 66 66 68 67 66
25 25 42 56 56 57 56 56 59 61 59 60 60 60 58 60 62 64 65 67 66 67 67 68 68 69 69 68 67 67 67 68 70 70 71 71 72 70 71 70 69 69 68 66 69 69 68 66 66
23 24 51 56 57 57 57 56 59 61 61 61 60 61 57 59 62 64 64 65 65 65 67 67 68 69 69 70 70 69 69 70 70 70 71 71 71 69 69 69 68 68 68 68 68 69 67 66 65
20 20 37 53 56 56 56 55 57 59 61 60 61 62 61 57 59 62 63 63 63 64 66 67 68 68 69 70 70 70 70 70 70 69 70 71 71 70 70 70 69 70 69 68 68 69 69 67 68
19 20 30 54 51 47 54 46 54 57 58 58 59 61 61 59 60 61 62 62 62 64 66 67 68 67 69 70 69 68 68 67 69 69 70 71 71 72 72 71 70 71 70 69 69 72 70 69 68
20 30 26 51 48 48 50 47 46 56 56 57 58 58 62 60 59 61 61 62 62 65 66 68 68 69 70 70 68 68 68 68 69 70 70 70 71 71 71 71 70 69 69 69 70 69 70 71 70
49 49 49 49 47 41 47 46 48 53 55 56 57 60 63 61 61 60 61 61 61 66 67 68 68 69 70 70 68 68 67 67 68 68 69 70 70 71 70 71 71 70 69 68 70 70 69 70 70
48 42 40 40 39 39 45 48 48 53 56 58 58 61 63 63 62 65 61 61 62 66 66 67 68 68 70 70 69 68 66 67 68 68 69 69 69 70 71 70 70 70 70 69 71 70 69 70 69
45 36 35 32 36 37 47 44 50 56 58 59 61 60 63 64 64 65 64 63 62 65 67 67 67 67 69 69 70 69 66 66 68 69 69 70 70 70 71 71 71 71 70 70 71 70 70 70 70
28 30 32 34 34 36 45 52 55 57 58 59 61 62 63 64 65 65 66 66 64 65 67 68 68 68 70 69 70 68 67 68 68 69 69 70 70 70 70 71 72 71 71 71 70 70 70 70 70
27 30 27 28 28 28 43 46 50 54 55 57 58 60 61 63 66 66 67 68 68 66 67 70 70 69 68 70 70 70 69 69 66 68 68 70 70 69 70 71 72 71 71 71 71 70 70 70 70
29 27 27 26 27 30 37 44 55 55 56 56 58 59 61 63 64 66 67 68 68 68 68 68 66 66 66 67 68 68 69 71 69 68 68 69 70 70 70 70 71 71 71 71 70 70 69 69 69
28 30 27 26 25 41 41 46 56 56 56 56 57 60 62 63 63 65 66 67 67 67 66 66 65 65 67 67 68 68 68 69 70 71 72 71 70 70 68 68 68 69 70 71 71 70 70 70 68

GFSSGP_sfc_dewp_114.txt.gz
Dewpoint
71 69 69 67 57 56 53 53 53 49 49 52 49 53 56 60 57 49 67 69 70 71 73 73 75 74 74 74 73 73 73 73 74 75 75 75 75 75 75 75 75 75 74 74 74 74 73 74 74
69 69 70 65 54 51 51 55 50 50 52 49 55 58 60 60 64 66 67 71 72 72 73 73 75 75 74 74 74 74 74 73 74 74 75 74 75 75 75 75 74 75 74 74 74 74 73 72 73
69 69 63 57 55 51 52 54 53 53 51 51 59 61 61 61 64 65 69 71 73 73 73 74 74 74 73 73 74 74 74 74 74 74 74 74 75 75 75 75 75 74 75 74 73 73 73 73 73
68 67 65 57 52 56 54 54 53 52 51 60 60 60 63 64 65 68 71 72 72 72 72 74 74 73 73 73 72 73 74 73 74 74 74 74 75 74 75 75 74 74 74 73 73 73 73 72 72
69 66 57 56 55 56 54 54 53 52 56 58 59 59 62 66 69 70 71 72 72 72 72 73 75 74 74 74 72 72 72 74 74 74 74 74 74 74 74 74 74 73 73 73 73 73 73 72 73
64 64 56 53 54 56 55 55 57 58 58 58 57 58 62 68 68 69 70 71 72 72 72 73 74 74 74 73 73 73 73 73 74 74 74 75 74 74 74 74 74 73 73 73 73 73 73 73 73
63 60 56 56 54 55 56 58 57 57 57 57 58 60 63 66 68 68 69 72 72 72 72 73 73 73 74 73 72 73 73 74 74 74 74 74 74 74 74 74 74 73 73 72 72 73 74 74 74
64 61 56 57 55 55 58 59 60 58 57 58 59 59 61 64 67 69 71 72 72 72 72 72 73 72 72 72 73 73 73 73 73 74 74 74 74 74 74 75 74 73 72 72 72 73 73 73 73
64 57 55 56 57 57 59 57 60 59 56 58 59 60 63 67 69 69 70 71 71 72 71 72 72 72 72 72 73 73 73 74 74 74 74 73 73 73 74 74 74 73 72 72 72 72 72 72 73
60 54 56 59 60 58 60 58 57 56 57 58 60 63 67 69 68 67 67 67 69 71 71 71 72 72 72 73 73 73 73 72 73 72 72 72 72 73 73 74 73 73 73 72 72 71 71 72 70
58 54 58 58 60 59 60 58 58 57 57 56 60 64 66 67 67 67 67 67 69 70 71 71 71 72 72 72 72 72 71 71 71 71 71 71 71 72 73 73 73 72 72 71 71 71 70 71 72
55 55 56 57 61 60 60 59 58 59 60 58 62 65 65 65 66 66 67 68 68 70 71 71 71 71 72 72 71 71 71 71 70 71 71 70 70 71 71 70 71 71 71 70 71 69 70 69 70
53 52 58 61 60 60 60 60 60 59 61 60 63 64 64 64 65 66 67 67 69 69 70 71 71 70 71 71 71 71 71 71 70 71 70 71 70 70 70 71 70 71 70 70 70 70 71 67 65
47 57 61 61 60 62 59 62 61 61 61 61 62 63 63 63 65 65 66 67 68 69 70 70 70 69 70 70 70 70 71 71 71 71 71 70 70 69 71 70 69 71 71 70 70 71 70 68 67
58 57 60 61 62 61 61 60 58 61 60 61 61 62 62 63 64 64 65 66 68 69 70 70 68 67 68 69 69 69 71 71 70 71 71 69 70 70 70 71 70 71 70 69 71 69 69 70 67
56 54 53 59 60 61 59 55 60 61 61 60 60 61 61 62 63 64 65 67 68 69 69 69 68 64 66 67 69 70 71 71 71 72 71 70 70 71 70 70 70 71 71 70 69 70 69 69 69
39 47 51 55 60 59 57 54 59 61 60 60 61 60 60 61 63 65 66 66 68 69 69 68 67 65 64 67 69 69 70 70 71 72 72 71 71 71 71 71 71 72 71 70 69 70 70 69 67
32 43 47 49 56 58 56 55 58 59 59 60 61 60 60 60 62 65 66 67 68 69 68 68 67 65 66 69 67 68 69 69 71 72 72 72 72 72 72 71 72 71 71 69 70 71 70 69 68
24 24 33 56 57 57 56 56 58 60 59 59 60 58 59 60 63 65 66 67 68 68 68 67 67 67 69 68 66 67 68 69 71 72 72 72 72 72 72 71 71 71 71 70 71 71 70 69 68
25 24 49 56 58 56 57 56 59 60 59 58 60 62 58 60 62 64 65 67 67 67 68 68 68 68 69 69 69 69 69 70 71 71 72 72 72 71 71 71 71 71 71 71 71 71 70 69 69
22 20 48 52 56 57 56 55 57 60 61 60 62 62 63 61 62 63 64 66 66 66 67 68 68 69 69 70 70 70 71 71 71 71 72 72 72 71 71 71 71 72 72 70 71 72 71 70 70
21 21 35 54 49 46 53 45 54 58 59 60 60 61 63 63 62 63 63 65 64 66 67 68 68 69 69 71 70 69 69 69 70 69 71 72 72 72 71 72 71 73 72 72 72 73 72 71 70
22 36 35 52 47 46 47 43 46 57 56 58 58 60 63 61 60 61 63 64 64 65 66 68 68 68 70 71 70 69 69 70 70 71 71 72 72 72 72 72 72 72 72 72 73 72 72 73 71
49 47 48 47 46 39 43 42 45 53 55 58 58 59 62 63 61 62 64 64 63 64 66 68 68 68 69 70 69 69 68 69 70 70 70 71 72 72 71 72 72 72 71 71 73 72 72 73 72
47 44 39 38 39 39 42 46 45 54 56 58 58 58 60 64 63 62 62 62 62 65 67 68 68 68 70 70 69 69 69 69 69 70 70 70 71 72 72 72 72 72 72 71 73 73 72 73 71
43 39 37 32 35 36 47 43 47 57 58 58 58 57 60 64 64 63 64 63 63 66 67 68 68 68 70 70 70 69 68 69 70 70 71 71 71 72 72 72 72 72 72 72 73 72 72 73 72
39 38 36 34 34 39 44 50 55 57 59 59 58 59 61 63 64 64 65 67 64 65 67 68 68 68 69 70 71 69 68 67 69 70 71 71 72 71 72 72 73 73 73 72 73 72 72 72 72
32 34 29 30 28 27 43 45 46 54 56 59 60 60 61 63 64 65 66 68 67 66 67 69 69 68 70 70 71 70 69 69 70 70 70 71 72 72 72 72 72 73 73 73 73 72 72 72 72
28 28 27 28 30 31 36 41 54 54 56 56 58 60 61 63 64 64 66 68 68 68 69 70 69 68 69 70 70 70 71 71 70 69 69 70 72 71 71 71 72 72 72 72 72 72 72 72 72
27 30 27 27 28 38 38 41 55 57 56 56 58 60 61 62 63 65 66 67 67 67 67 66 66 67 67 68 68 68 69 70 71 71 70 70 71 71 71 71 71 72 72 72 72 72 72 72 71

GFSSGP_sfc_dewp_117.txt.gz
Dewpoint
70 68 69 68 59 58 53 52 51 43 45 47 45 50 55 60 55 49 65 67 67 67 70 71 74 74 74 74 74 73 73 74 75 75 75 75 75 75 74 74 75 74 75 74 74 74 74 74 74
68 69 71 66 57 51 53 53 46 44 47 46 56 58 58 60 63 64 65 68 67 68 70 71 74 75 74 74 74 73 73 75 75 75 75 75 75 75 74 75 74 74 75 74 74 73 73 73 73
68 68 64 60 56 52 52 51 47 50 48 54 59 60 61 60 63 65 67 68 68 70 71 73 74 74 74 74 74 74 74 74 75 75 74 74 75 75 74 75 75 74 74 74 73 73 73 74 74
67 67 65 58 54 55 54 51 50 48 53 59 59 60 63 63 63 66 68 69 69 70 71 74 74 73 73 73 74 74 74 74 74 74 74 74 75 74 74 74 74 74 73 73 74 73 73 73 73
70 66 58 55 54 54 54 52 50 48 51 58 58 59 61 65 68 68 69 68 68 69 69 71 74 73 73 72 72 73 74 73 74 74 74 74 74 74 74 74 74 74 74 74 74 73 73 74 74
65 65 56 53 53 53 54 54 51 53 58 58 57 58 62 68 67 68 68 69 69 67 70 72 74 74 74 73 73 72 73 74 74 74 74 74 74 74 75 74 73 73 73 73 74 74 73 73 73
63 61 56 55 53 53 55 57 56 56 56 56 57 56 63 65 67 68 69 69 67 68 72 72 72 73 73 73 73 73 72 73 74 74 74 74 74 74 74 74 74 73 72 73 73 74 74 74 74
63 61 56 57 53 54 56 58 59 56 57 58 57 57 60 65 67 68 67 67 67 69 71 71 73 73 73 71 73 73 73 73 74 74 74 74 74 74 74 75 75 73 73 73 73 73 73 73 73
62 58 56 56 55 57 58 57 58 58 55 57 59 58 61 66 67 65 66 68 68 69 70 71 70 71 72 72 72 73 73 73 74 74 75 74 74 72 71 74 73 73 72 72 72 72 71 73 74
59 57 57 60 60 57 58 57 57 54 56 59 60 63 65 66 65 62 64 65 65 68 69 71 70 71 71 71 74 74 73 73 74 74 74 73 74 73 71 73 73 73 72 72 71 72 72 70 68
58 54 58 58 59 58 57 56 56 56 55 57 59 62 65 64 61 61 64 65 67 68 69 71 72 73 73 73 74 72 72 71 73 74 74 73 72 73 73 72 71 71 71 69 69 69 68 69 70
53 55 57 58 60 58 58 56 55 59 59 57 60 62 62 61 60 60 63 65 68 69 69 71 72 74 74 73 71 71 71 70 69 71 73 72 70 72 71 70 72 72 70 71 71 70 72 69 70
49 50 55 58 60 59 59 57 58 60 58 60 62 62 62 62 63 63 65 65 67 68 69 71 72 74 74 74 72 71 71 70 69 71 71 71 70 71 70 72 70 71 71 70 71 71 69 67 66
48 55 59 60 60 60 59 59 60 60 60 61 61 62 62 63 64 64 64 65 67 68 68 70 71 73 73 72 73 72 73 71 71 71 71 72 70 71 71 71 70 71 71 71 71 72 70 68 67
57 57 60 60 60 60 60 59 58 60 61 61 61 62 62 63 64 63 64 65 66 68 69 69 70 71 72 73 72 72 72 71 70 70 72 71 72 72 72 71 71 71 72 72 71 70 71 68 66
55 56 55 60 60 61 59 53 58 61 60 61 61 61 62 63 63 64 65 66 67 68 70 70 69 69 71 72 72 71 72 72 72 72 69 70 72 73 73 71 71 73 72 71 70 70 70 68 69
49 50 51 57 59 60 59 55 60 61 61 61 60 60 61 63 64 65 65 66 68 69 70 70 70 68 70 71 72 72 73 72 72 73 72 72 72 72 73 71 72 74 72 70 70 71 71 69 67
46 40 46 50 57 58 56 56 59 60 61 60 61 61 61 61 62 64 65 66 68 69 71 71 70 69 69 71 71 71 71 71 72 74 72 73 72 73 73 71 73 72 71 70 71 73 71 69 67
30 26 39 54 57 56 55 56 58 61 61 61 61 59 60 60 63 64 65 66 68 69 70 71 71 70 68 69 68 69 69 71 71 73 73 74 74 74 74 72 72 72 71 72 74 72 72 69 70
25 25 52 56 58 56 56 55 58 60 60 60 61 60 60 60 62 64 66 66 67 69 70 71 71 71 69 68 69 69 71 70 71 72 73 73 73 73 74 74 72 73 71 73 74 74 70 70 71
24 24 49 50 56 56 55 56 57 59 60 60 62 62 61 60 61 63 65 66 67 68 69 70 71 70 70 71 70 71 71 73 71 71 72 72 73 72 73 73 73 74 73 70 73 73 74 69 71
25 23 40 53 49 45 54 45 55 57 58 59 61 62 61 62 62 62 63 65 66 68 69 70 71 70 71 73 71 72 68 69 73 73 73 74 74 73 72 73 73 75 72 74 74 73 74 73 70
26 29 32 45 49 46 50 44 48 56 57 58 59 61 62 62 61 62 63 65 65 67 68 69 71 72 72 73 72 70 73 74 70 72 74 75 75 74 72 74 74 75 73 74 75 74 75 72 70
47 42 46 49 48 37 41 42 46 54 56 58 59 59 62 62 61 62 63 65 65 66 67 68 70 72 72 73 73 73 73 74 74 72 70 73 71 72 74 74 74 74 74 74 74 75 74 74 73
48 40 41 42 41 35 44 45 43 53 55 58 59 59 60 63 62 61 63 64 65 65 67 67 70 71 72 72 73 72 72 73 73 73 75 75 70 73 73 75 75 73 74 73 75 76 75 74 72
41 35 27 29 33 32 48 43 45 55 57 58 60 60 61 62 63 63 62 63 64 65 67 68 70 71 71 72 73 73 73 71 71 72 70 70 71 77 74 74 75 74 74 74 75 73 72 75 73
37 36 33 35 38 36 44 47 53 56 57 57 59 60 60 62 63 63 63 63 64 65 67 68 70 71 71 71 74 74 73 72 71 73 73 72 74 75 74 74 74 74 74 74 75 72 74 74 74
35 34 27 33 34 30 43 45 45 53 55 57 58 58 59 62 63 64 65 66 66 67 67 69 70 71 71 72 73 74 72 72 71 72 73 74 74 74 74 74 74 74 74 75 75 73 74 74 72
29 30 31 30 32 27 34 42 55 54 56 58 57 57 59 61 63 64 65 67 67 68 68 70 71 71 71 72 74 74 73 72 72 72 73 73 74 74 74 74 74 74 74 74 75 75 74 73 74
28 29 31 28 33 37 36 38 55 56 56 58 59 60 60 60 63 64 65 67 67 68 69 71 71 71 71 71 73 73 73 74 73 72 71 72 73 74 74 74 73 74 74 75 74 73 71 73 73